GEFSMW_con_cape1000_006.txt.gz
Probability
97 81 74 84 90 87 90 97 90 68 35 6 3 0 0 0 0 0 10 65 84 100 90 90 90 87 87 77 32 0 0 0 0 0 0 0 0 0 0 0 0 0 0
100 100 94 87 84 71 77 77 71 61 45 19 3 0 0 0 0 0 10 26 39 77 87 68 84 74 71 58 26 6 0 0 0 0 0 0 0 0 0 0 0 0 0
97 97 94 87 77 61 52 45 35 45 48 52 29 3 3 0 0 0 3 3 16 39 68 77 29 23 13 19 10 6 0 0 0 0 0 0 0 0 0 0 0 0 0
68 61 58 55 32 10 10 6 10 16 39 26 19 0 0 0 0 0 0 0 0 6 32 45 32 19 10 0 0 0 0 0 0 0 0 0 0 0 0 0 0 0 0
29 29 16 0 0 0 0 0 0 6 13 10 0 0 0 0 0 0 0 0 0 0 0 3 0 0 0 6 3 0 0 0 0 0 0 0 0 0 0 0 0 0 0
0 0 0 0 0 0 0 0 0 0 0 0 0 0 0 0 0 0 0 0 0 0 0 0 0 0 0 0 3 0 0 0 0 0 0 0 0 0 0 0 0 0 0
0 0 0 0 0 0 0 0 0 0 0 0 0 0 0 0 0 0 0 0 0 0 0 0 0 0 0 0 0 0 0 0 0 0 0 0 0 0 0 0 0 0 0
0 0 0 0 0 0 0 0 0 0 0 0 0 0 0 0 0 0 0 0 0 0 0 0 0 0 0 0 0 0 0 0 0 0 0 0 0 0 0 0 0 0 0
0 0 0 0 0 0 0 0 0 0 0 0 0 0 0 0 0 0 0 0 0 0 0 0 0 0 0 0 0 0 0 0 0 0 0 0 0 0 0 0 0 0 0
0 0 0 0 0 0 0 0 0 0 0 0 0 0 0 0 0 0 0 0 0 0 0 0 0 0 0 0 0 0 0 0 0 0 0 0 0 0 0 0 0 0 0
0 0 0 0 0 0 0 0 0 0 0 0 0 0 0 0 0 0 0 0 0 0 0 0 0 0 0 0 0 0 0 0 0 0 0 0 0 0 0 0 0 0 0
0 0 0 0 0 0 0 0 0 0 0 0 0 0 0 0 0 0 0 0 0 0 0 0 0 0 0 0 0 0 0 0 0 0 0 0 0 0 0 0 0 0 0
0 0 0 0 0 0 0 0 0 0 0 0 0 0 0 0 0 0 0 0 0 0 0 0 0 0 0 0 0 0 0 0 0 0 0 0 0 0 0 0 0 0 0
0 0 0 0 0 0 0 0 0 0 0 0 0 0 0 0 0 0 0 0 0 0 0 0 0 0 0 0 0 0 0 0 0 0 0 0 0 0 0 0 0 0 0
0 0 0 0 0 0 0 0 0 0 0 0 0 0 0 0 0 0 0 0 0 0 0 0 0 0 0 0 0 0 0 0 0 0 0 0 0 0 0 0 0 0 0
0 0 0 0 0 0 0 0 0 0 0 0 0 0 0 0 0 0 0 0 0 0 0 0 0 0 0 0 0 0 0 0 0 0 0 0 0 0 0 0 0 0 0
0 0 0 0 0 0 0 0 0 0 0 0 0 0 0 0 0 0 0 0 0 0 0 0 0 0 0 0 0 0 0 0 0 0 0 0 0 0 0 0 0 0 0
0 0 0 0 0 0 0 0 0 0 0 0 0 0 0 0 0 0 0 0 0 0 0 0 0 0 0 0 0 0 0 0 0 0 0 0 0 0 0 0 0 0 0
0 0 0 0 0 0 0 0 0 0 0 0 0 0 0 0 0 0 0 0 0 0 0 0 0 0 0 0 0 0 0 0 0 0 0 0 0 0 0 0 0 0 0
0 0 0 0 0 0 0 0 0 0 0 0 0 0 0 0 0 0 0 0 0 0 0 0 0 0 0 0 0 0 0 0 0 0 0 0 0 0 0 0 0 0 0
0 0 0 0 0 0 0 0 0 0 0 0 0 0 0 0 0 0 0 0 0 0 0 0 0 0 0 0 0 0 0 0 0 0 0 0 0 0 0 0 0 0 0
0 0 0 0 0 0 0 0 0 0 0 0 0 0 0 0 0 0 0 0 0 0 0 0 0 0 0 0 0 0 0 0 0 0 0 0 0 0 0 0 0 0 0
0 0 0 0 0 0 0 0 0 0 0 0 0 0 0 0 0 0 0 0 0 0 0 0 0 0 0 0 0 0 0 0 0 0 0 0 0 0 0 0 0 0 0
0 0 0 0 0 0 0 0 0 0 0 0 0 0 0 0 0 0 0 0 0 0 0 0 0 0 0 0 0 0 0 0 0 0 0 0 0 0 0 0 0 0 0
0 0 0 0 0 0 0 0 0 0 0 0 0 0 0 0 0 0 0 0 0 0 0 0 0 0 0 0 0 0 0 0 0 0 0 0 0 0 0 0 0 0 0
0 0 0 0 0 0 0 0 0 0 0 0 0 0 0 0 0 0 0 0 0 0 0 0 0 0 0 0 0 0 0 0 0 0 0 0 0 0 0 0 0 0 0

GEFSMW_con_cape1000_012.txt.gz
Probability
48 68 84 87 90 90 84 84 87 77 52 29 10 0 0 0 0 0 0 0 0 6 10 10 26 58 71 87 90 77 61 35 6 0 0 0 0 0 0 0 0 0 0
58 68 74 74 71 71 74 68 61 42 19 3 0 0 0 0 0 0 0 0 0 0 3 3 3 10 23 48 68 65 45 23 0 0 0 0 0 0 0 0 0 0 0
77 81 77 68 65 65 58 52 48 29 10 0 0 0 0 0 0 0 0 0 0 0 0 0 0 0 0 10 16 26 32 16 6 3 0 0 0 0 0 0 0 0 0
87 71 68 58 45 39 32 32 26 23 3 0 0 6 3 0 0 0 0 0 0 0 0 0 0 0 0 0 3 0 19 13 3 0 0 0 0 0 0 0 0 0 0
90 77 55 39 19 16 13 10 6 6 0 0 0 3 0 0 0 0 0 0 0 0 0 0 0 0 0 0 0 0 0 0 3 0 0 0 0 0 0 0 0 0 0
68 52 35 26 6 3 3 0 0 0 0 0 0 0 0 0 0 0 0 0 0 0 0 0 0 0 0 0 0 0 0 0 3 0 0 0 0 0 0 0 0 0 0
52 35 26 6 3 0 0 0 0 0 0 0 0 0 0 0 0 0 0 0 0 0 0 0 0 0 0 0 0 0 0 0 0 0 0 0 0 0 0 0 0 0 0
13 6 0 0 0 0 0 0 0 0 0 0 0 0 0 0 0 0 0 0 0 0 0 0 0 0 0 0 0 0 0 0 0 0 0 0 0 0 0 0 0 0 0
0 0 0 0 0 0 0 0 0 0 0 0 0 0 0 0 0 0 0 0 0 0 0 0 0 0 0 0 0 0 0 0 0 0 0 0 0 0 0 0 0 0 0
0 0 0 0 0 0 0 0 0 0 0 0 0 0 0 0 0 0 0 0 0 0 0 0 0 0 0 0 0 0 0 0 0 0 0 0 0 0 0 0 0 0 0
0 0 0 0 0 0 0 0 0 0 0 0 0 0 0 0 0 0 0 0 0 0 0 0 0 0 0 0 0 0 0 0 0 0 0 0 0 0 0 0 0 0 0
0 0 0 0 0 0 0 0 0 0 0 0 0 0 0 0 0 0 0 0 0 0 0 0 0 0 0 0 0 0 0 0 0 0 0 0 0 0 0 0 0 0 0
0 0 0 0 0 0 0 0 0 0 0 0 0 0 0 0 0 0 0 0 0 0 0 0 0 0 0 0 0 0 0 0 0 0 0 0 0 0 0 0 0 0 0
0 0 0 0 0 0 0 0 0 0 0 0 0 0 0 0 0 0 0 0 0 0 0 0 0 0 0 0 0 0 0 0 0 0 0 0 0 0 0 0 0 0 0
0 0 0 0 0 0 0 0 0 0 0 0 0 0 0 0 0 0 0 0 0 0 0 0 0 0 0 0 0 0 0 0 0 0 0 0 0 0 0 0 0 0 0
0 0 0 0 0 0 0 0 0 0 0 0 0 0 0 0 0 0 0 0 0 0 0 0 0 0 0 0 0 0 0 0 0 0 0 0 0 0 0 0 0 0 0
0 0 0 0 0 0 0 0 0 0 0 0 0 0 0 0 0 0 0 0 0 0 0 0 0 0 0 0 0 0 0 0 0 0 0 0 0 0 0 0 0 0 0
0 0 0 0 0 0 0 0 0 0 0 0 0 0 0 0 0 0 0 0 0 0 0 0 0 0 0 0 0 0 0 0 0 0 0 0 0 0 0 0 0 0 0
0 0 0 0 0 0 0 0 0 0 0 0 0 0 0 0 0 0 0 0 0 0 0 0 0 0 0 0 0 0 0 0 0 0 0 0 0 0 0 0 0 0 0
0 0 0 0 0 0 0 0 0 0 0 0 0 0 0 0 0 0 0 0 0 0 0 0 0 0 0 0 0 0 0 0 0 0 0 0 0 0 0 0 0 0 0
0 0 0 0 0 0 0 0 0 0 0 0 0 0 0 0 0 0 0 0 0 0 0 0 0 0 0 0 0 0 0 0 0 0 0 0 0 0 0 0 0 0 0
0 0 0 0 0 0 0 0 0 0 0 0 0 0 0 0 0 0 0 0 0 0 0 0 0 0 0 0 0 0 0 0 0 0 0 0 0 0 0 0 0 0 0
0 0 0 0 0 0 0 0 0 0 0 0 0 0 0 0 0 0 0 0 0 0 0 0 0 0 0 0 0 0 0 0 0 0 0 0 0 0 0 0 0 0 0
0 0 0 0 0 0 0 0 0 0 0 0 0 0 0 0 0 0 0 0 0 0 0 0 0 0 0 0 0 0 0 0 0 0 0 0 0 0 0 0 0 0 0
0 0 0 0 0 0 0 0 0 0 0 0 0 0 0 0 0 0 0 0 0 0 0 0 0 0 0 0 0 0 0 0 0 0 0 0 0 0 0 0 0 0 0
0 0 0 0 0 0 0 0 0 0 0 0 0 0 0 0 0 0 0 0 0 0 0 0 0 0 0 0 0 0 0 0 0 0 0 0 0 0 0 0 0 0 0

GEFSMW_con_cape1000_018.txt.gz
Probability
100 100 97 94 94 94 97 97 94 97 97 68 61 55 19 23 10 16 19 13 6 6 23 3 16 39 29 45 52 55 55 65 77 74 81 81 77 90 100 100 97 97 90
100 97 97 87 77 74 84 94 100 90 87 68 74 65 52 3 0 13 32 26 19 10 0 6 0 3 23 32 32 55 39 16 48 68 42 26 29 74 77 100 100 97 94
100 94 81 68 65 74 81 71 84 94 90 90 58 71 97 97 29 29 35 23 16 6 3 10 3 10 6 3 13 39 35 23 26 35 55 16 3 13 35 77 94 97 94
97 84 68 55 52 68 77 90 94 94 90 90 74 58 71 6 3 61 19 23 19 0 0 0 0 3 3 3 3 0 19 35 19 29 68 61 39 16 6 32 71 90 94
97 77 45 42 32 55 74 77 90 94 94 94 87 94 71 42 13 35 39 42 10 0 0 0 0 0 3 3 3 13 16 16 19 26 29 52 87 77 23 3 26 52 61
81 81 71 61 68 71 68 65 77 90 97 100 81 97 94 87 71 68 39 26 10 3 0 0 3 6 6 3 6 16 19 32 29 29 26 39 52 42 42 19 32 35 48
55 48 42 45 45 45 55 55 77 87 94 87 90 94 90 87 81 71 26 23 6 0 0 0 3 6 6 10 13 16 13 32 42 42 35 35 48 65 52 45 32 42 71
6 6 3 3 3 3 3 6 39 71 68 65 90 94 97 84 48 52 26 16 10 0 0 3 0 0 3 0 13 13 13 26 35 32 55 61 58 74 74 68 68 71 74
0 0 0 0 0 0 0 6 6 19 29 29 84 94 97 90 71 71 74 29 26 3 0 3 0 0 0 3 16 13 26 29 29 35 48 55 65 81 84 90 90 90 90
0 0 0 0 0 0 0 0 3 10 10 19 58 61 87 87 90 77 68 61 52 35 19 3 0 0 0 0 13 10 13 29 39 52 61 71 55 61 81 90 94 97 94
0 0 0 0 0 0 0 0 0 0 0 6 16 35 61 74 65 81 81 77 65 52 32 10 6 0 0 0 3 6 3 3 6 23 19 45 52 71 77 87 97 97 94
0 0 0 0 0 0 0 0 0 0 0 0 0 0 10 29 42 55 68 71 71 52 32 10 6 0 0 0 0 0 3 3 3 10 13 19 26 42 52 68 77 81 61
0 0 0 0 0 0 0 0 0 0 0 0 0 0 0 0 6 26 45 61 55 55 35 16 6 0 0 0 0 0 3 3 0 0 3 6 19 35 32 32 39 32 16
0 0 0 0 0 0 0 0 0 0 0 0 0 0 0 0 0 0 6 19 45 45 32 13 3 0 0 0 0 0 0 0 0 0 0 0 3 3 10 0 10 10 6
0 0 0 0 0 0 0 0 0 0 0 0 0 0 0 0 0 0 0 0 13 13 29 10 3 0 0 0 0 0 0 0 0 0 0 0 0 0 0 0 0 0 0
0 0 0 0 0 0 0 0 0 0 0 0 0 0 0 0 0 0 0 0 3 6 10 6 6 0 0 0 0 0 0 0 0 0 0 0 0 0 0 0 0 0 0
0 0 0 0 0 0 0 0 0 0 0 0 0 0 0 0 0 0 0 0 3 3 6 0 3 3 0 0 0 0 0 0 0 0 0 0 0 0 0 0 0 0 0
0 0 0 0 0 0 0 0 0 0 0 0 0 0 0 0 0 0 0 0 0 3 3 10 0 3 0 0 0 0 0 0 0 0 0 0 0 0 0 0 0 0 0
0 0 0 0 0 0 0 0 0 0 0 0 0 0 0 0 0 0 0 0 0 0 0 0 0 0 0 0 0 0 0 0 0 0 0 0 0 0 0 0 0 0 0
0 0 0 0 0 0 0 0 0 0 0 0 0 0 0 0 0 0 0 0 0 0 0 0 0 0 0 0 0 0 0 0 0 0 0 0 0 0 0 0 0 0 0
0 0 0 0 0 0 0 0 0 0 0 0 0 0 0 0 0 0 0 0 0 0 0 0 0 0 0 0 0 0 0 0 0 0 0 0 0 0 0 0 0 0 0
0 0 0 0 0 0 0 0 0 0 0 0 0 0 0 0 0 0 0 0 0 0 0 0 0 0 0 0 0 0 0 0 0 0 0 0 0 0 0 0 0 0 0
0 0 0 0 0 0 0 0 0 0 0 0 0 0 0 0 0 0 0 0 0 0 0 0 0 0 0 0 0 0 0 0 0 0 0 0 0 0 0 0 0 0 0
0 0 0 0 0 0 0 0 0 0 0 0 0 0 0 0 0 0 0 0 0 0 0 0 0 0 0 0 0 0 0 0 0 0 0 0 0 0 0 0 0 0 0
0 0 0 0 0 0 0 0 0 0 0 0 0 0 0 0 0 0 0 0 0 0 0 0 0 0 0 0 0 0 0 0 0 0 0 0 0 0 0 0 0 0 0
0 0 0 0 0 0 0 0 0 0 0 0 0 0 0 0 0 0 0 0 0 0 0 0 0 0 0 0 0 0 0 0 0 0 0 0 0 0 0 0 0 0 0

GEFSMW_con_cape1000_024.txt.gz
Probability
90 90 87 87 87 87 94 97 97 100 100 100 100 97 100 94 87 77 84 45 16 29 61 61 71 52 55 68 55 55 48 45 65 58 58 68 61 71 74 81 77 87 90
74 68 68 65 68 81 84 87 100 100 100 100 100 100 90 61 74 74 81 58 42 55 16 81 42 42 71 45 65 81 84 39 32 42 29 19 16 68 32 74 81 81 90
65 45 26 29 32 61 77 84 97 97 100 100 100 100 100 100 100 97 97 94 68 55 48 39 42 58 55 42 77 68 58 35 39 32 32 26 10 16 35 61 68 81 90
32 13 10 13 19 32 58 84 87 94 100 100 100 97 100 97 100 100 100 94 71 61 52 45 32 55 58 58 52 48 61 42 26 29 48 26 26 13 6 6 23 68 84
6 3 0 0 0 3 19 42 68 81 87 97 97 100 100 100 100 100 100 100 87 90 77 58 48 48 61 58 52 58 65 52 39 23 26 29 23 19 3 0 13 42 77
3 0 0 0 0 0 3 10 39 55 65 81 90 100 100 100 100 100 100 100 100 90 84 71 71 55 65 58 55 68 65 68 65 42 32 23 23 23 23 13 16 13 48
0 0 0 0 0 0 0 6 13 19 23 35 48 81 90 94 100 100 100 100 90 90 84 48 65 58 61 65 74 81 74 71 71 65 52 39 29 19 16 16 13 6 39
0 0 0 0 0 0 0 0 0 3 3 6 26 39 45 65 77 90 94 90 90 90 81 61 61 68 68 48 71 65 55 65 71 45 55 45 29 29 32 16 10 6 23
0 0 0 0 0 0 0 0 0 0 0 0 3 13 13 32 35 48 84 87 87 74 77 74 71 77 84 84 84 58 71 68 65 42 42 45 35 48 35 29 16 3 6
0 0 0 0 0 0 0 0 0 0 0 0 0 0 0 3 10 13 29 39 55 71 77 68 84 87 87 87 87 77 65 71 61 58 65 58 35 45 45 55 48 29 19
0 0 0 0 0 0 0 0 0 0 0 0 0 0 0 0 0 3 3 10 16 35 52 68 84 74 84 90 90 77 61 55 48 58 35 35 39 35 35 39 55 42 29
0 0 0 0 0 0 0 0 0 0 0 0 0 0 0 0 0 0 0 3 3 6 6 10 45 58 55 81 84 74 32 39 39 26 23 10 6 19 35 35 45 45 32
0 0 0 0 0 0 0 0 0 0 0 0 0 0 0 0 0 0 0 0 0 3 3 6 6 10 29 35 48 65 48 35 19 13 6 6 0 3 16 32 32 32 6
0 0 0 0 0 0 0 0 0 0 0 0 0 0 0 0 0 0 0 0 0 0 0 0 6 10 10 13 16 23 39 35 26 13 3 0 0 0 6 10 10 13 3
0 0 0 0 0 0 0 0 0 0 0 0 0 0 0 0 0 0 0 0 0 0 0 0 0 0 0 0 3 3 0 23 19 6 3 0 0 0 0 0 13 3 0
0 0 0 0 0 0 0 0 0 0 0 0 0 0 0 0 0 0 0 0 0 0 0 0 0 0 0 0 0 0 0 0 3 0 0 0 0 0 0 0 0 0 0
0 0 0 0 0 0 0 0 0 0 0 0 0 0 0 0 0 0 0 0 0 0 0 0 0 0 0 0 0 0 0 0 6 3 3 0 0 0 0 0 0 0 0
0 0 0 0 0 0 0 0 0 0 0 0 0 0 0 0 0 0 0 0 0 0 0 0 0 0 0 0 0 0 0 0 3 0 0 0 0 0 0 0 0 0 0
0 0 0 0 0 0 0 0 0 0 0 0 0 0 0 0 0 0 0 0 6 3 0 0 0 0 0 0 0 0 0 0 0 0 0 0 0 0 0 0 0 0 0
0 0 0 0 0 0 0 0 0 0 0 0 0 0 0 0 0 0 6 0 3 0 0 0 0 0 0 0 0 0 0 0 0 0 0 0 0 0 0 0 0 0 0
0 0 0 0 0 0 0 0 0 0 0 0 0 0 0 0 0 0 6 3 0 0 0 0 0 0 0 0 0 0 0 0 0 0 0 0 0 0 0 0 0 0 0
0 0 0 0 0 3 0 0 0 0 0 0 0 0 0 0 0 0 3 3 0 0 0 0 0 0 0 0 0 0 0 0 0 0 0 0 0 0 0 0 0 0 0
0 0 0 0 0 0 0 0 0 0 0 0 0 0 0 0 0 0 0 3 0 0 0 0 0 0 0 0 0 0 0 0 0 0 0 0 0 0 0 0 0 0 0
0 0 0 0 0 0 0 0 0 0 0 0 0 0 0 0 0 0 0 0 0 0 0 0 0 0 0 0 0 0 0 0 0 0 0 0 0 0 0 0 0 0 0
0 0 0 0 0 0 0 0 0 0 0 0 0 0 0 0 0 0 0 0 0 0 0 0 0 0 0 0 0 0 0 0 0 0 0 0 0 0 0 0 0 0 0
0 0 0 0 0 0 0 0 0 0 0 0 0 0 0 0 0 0 0 0 0 0 0 0 0 0 0 0 0 0 0 0 0 0 0 0 0 0 0 0 0 0 0

GEFSMW_con_cape1000_030.txt.gz
Probability
3 3 3 3 6 3 6 6 6 6 13 26 35 45 55 48 52 55 74 65 52 32 16 3 0 0 0 0 0 0 0 0 0 0 0 0 0 0 0 0 0 6 29
0 0 0 0 0 0 3 3 3 0 6 3 6 19 19 10 19 35 42 39 16 6 3 0 0 0 0 0 0 0 0 0 0 0 0 0 0 0 0 0 0 0 6
0 0 0 0 0 0 0 0 0 0 0 0 0 3 0 0 0 3 6 6 0 0 0 0 0 0 0 0 0 0 0 0 0 0 0 0 0 0 0 0 0 0 0
0 0 0 0 0 0 0 0 0 0 0 0 0 10 10 3 0 0 0 0 0 0 0 0 0 0 0 0 0 0 0 0 0 0 0 0 0 0 0 0 0 0 0
0 0 0 0 0 0 0 0 0 0 0 0 0 6 6 3 0 0 0 0 0 0 0 0 0 0 0 0 0 0 0 0 0 0 0 0 0 0 0 0 0 0 0
0 0 0 0 0 0 0 0 0 0 0 0 0 0 0 3 0 0 0 0 0 0 0 0 0 0 0 0 0 0 0 0 0 0 0 0 0 0 0 0 0 0 0
0 0 0 0 0 0 0 0 0 0 0 0 0 0 0 0 0 0 0 0 0 0 0 0 0 0 0 0 0 0 0 0 0 0 0 0 0 0 0 0 0 0 0
0 0 0 0 0 0 0 0 0 0 0 0 0 0 0 0 0 0 0 0 0 0 0 0 0 0 0 0 0 0 0 0 0 0 0 0 0 0 0 0 0 0 0
0 0 0 0 0 0 0 0 0 0 0 0 0 0 0 0 0 0 0 0 0 0 0 0 0 0 0 0 0 0 0 0 0 0 0 0 0 0 0 0 0 0 0
0 0 0 0 0 0 0 0 0 0 0 0 0 0 0 0 0 0 0 0 0 0 0 0 0 0 0 0 0 0 0 0 0 0 0 0 0 0 0 0 0 0 0
0 0 0 0 0 0 0 0 0 0 0 0 0 0 0 0 0 0 0 0 0 0 0 0 0 0 0 0 0 0 0 0 0 0 0 0 0 0 0 0 0 0 0
0 0 0 0 0 0 0 0 0 0 0 0 0 0 0 0 0 0 0 0 0 0 0 0 0 0 0 0 0 0 0 0 0 0 0 0 0 0 0 0 0 0 0
0 0 0 0 0 0 0 0 0 0 0 0 0 0 0 0 0 0 0 0 0 0 0 0 0 0 0 0 0 0 0 0 0 0 0 0 0 0 0 0 0 0 0
0 0 0 0 0 0 0 0 0 0 0 0 0 0 0 0 0 0 0 0 0 0 0 0 0 0 0 0 0 0 0 0 0 0 0 0 0 0 0 0 0 0 0
0 0 0 0 0 0 0 0 0 0 0 0 0 0 0 0 0 0 0 0 0 0 0 0 0 0 0 0 0 0 0 0 0 0 0 0 0 0 0 0 0 0 0
0 0 0 0 0 0 0 0 0 0 0 0 0 0 0 0 0 0 0 0 0 0 0 0 0 0 0 0 0 0 0 0 0 0 0 0 0 0 0 0 0 0 0
0 0 0 0 0 0 0 0 0 0 0 0 0 0 0 0 0 0 0 0 0 0 0 0 0 0 0 0 0 0 0 0 0 0 0 0 0 0 0 0 0 0 0
0 0 0 0 0 0 0 0 0 0 0 0 0 0 0 0 0 0 0 0 0 0 0 0 0 0 0 0 0 0 0 0 0 0 0 0 0 0 0 0 0 0 0
0 0 0 0 0 0 0 0 0 0 0 0 0 0 0 0 0 0 0 0 0 0 0 0 0 0 0 0 0 0 0 0 0 0 0 0 0 0 0 0 0 0 0
0 0 0 0 0 0 0 0 0 0 0 0 0 0 0 0 0 0 0 0 0 0 0 0 0 0 0 0 0 0 0 0 0 0 0 0 0 0 0 0 0 0 0
0 0 0 0 0 0 0 0 0 0 0 0 0 0 0 0 0 0 0 0 0 0 0 0 0 0 0 0 0 0 0 0 0 0 0 0 0 0 0 0 0 0 0
0 0 0 0 0 0 0 0 0 0 0 0 0 0 0 0 0 0 0 0 0 0 0 0 0 0 0 0 0 0 0 0 0 0 0 0 0 0 0 0 0 0 0
0 0 0 0 0 0 0 0 0 0 0 0 0 0 0 0 0 0 0 0 0 0 0 0 0 0 0 0 0 0 0 0 0 0 0 0 0 0 0 0 0 0 0
0 0 0 0 0 0 0 0 0 0 0 0 0 0 0 0 0 0 0 0 0 0 0 0 0 0 0 0 0 0 0 0 0 0 0 0 0 0 0 0 0 0 0
0 0 0 0 0 0 0 0 0 0 0 0 0 0 0 0 0 0 0 0 0 0 0 0 0 0 0 0 0 0 0 0 0 0 0 0 0 0 0 0 0 0 0
0 0 0 0 0 0 0 0 0 0 0 0 0 0 0 0 0 0 0 0 0 0 0 0 0 0 0 0 0 0 0 0 0 0 0 0 0 0 0 0 0 0 0

GEFSMW_con_cape1000_036.txt.gz
Probability
0 0 0 0 0 0 0 0 0 0 0 0 0 0 3 3 3 6 23 26 29 39 23 13 3 3 0 0 0 0 0 0 0 0 0 0 0 0 0 0 0 0 0
0 0 0 0 0 0 0 0 0 0 0 0 0 0 0 0 0 3 3 16 19 23 29 3 3 0 0 0 0 0 0 0 0 0 0 0 0 0 0 0 0 0 0
0 0 0 0 0 0 0 0 0 0 0 0 0 0 0 0 0 0 0 0 3 6 6 10 0 0 0 0 0 0 0 0 0 0 0 0 0 0 0 0 0 0 0
0 0 0 0 0 0 0 0 0 0 0 0 0 0 0 0 0 0 0 0 0 0 3 0 0 0 0 0 0 0 0 0 0 0 0 0 0 0 0 0 0 0 0
0 0 0 0 0 0 0 0 0 0 0 0 0 0 0 0 0 0 0 0 0 0 0 0 0 0 0 0 0 0 0 0 0 0 0 0 0 0 0 0 0 0 0
0 0 0 0 0 0 0 0 0 0 0 0 0 0 0 0 0 0 0 0 0 0 0 0 0 0 0 0 0 0 0 0 0 0 0 0 0 0 0 0 0 0 0
0 0 0 0 0 0 0 0 0 0 0 0 0 0 0 0 0 0 0 0 0 0 0 0 0 0 0 0 0 0 0 0 0 0 0 0 0 0 0 0 0 0 0
0 0 0 0 0 0 0 0 0 0 0 0 0 0 0 0 0 0 0 0 0 0 0 0 0 0 0 0 0 0 0 0 0 0 0 0 0 0 0 0 0 0 0
0 0 0 0 0 0 0 0 0 0 0 0 0 0 0 0 0 0 0 0 0 0 0 0 0 0 0 0 0 0 0 0 0 0 0 0 0 0 0 0 0 0 0
0 0 0 0 0 0 0 0 0 0 0 0 0 0 0 0 0 0 0 0 0 0 0 0 0 0 0 0 0 0 0 0 0 0 0 0 0 0 0 0 0 0 0
0 0 0 0 0 0 0 0 0 0 0 0 0 0 0 0 0 0 0 0 0 0 0 0 0 0 0 0 0 0 0 0 0 0 0 0 0 0 0 0 0 0 0
0 0 0 0 0 0 0 0 0 0 0 0 0 0 0 0 0 0 0 0 0 0 0 0 0 0 0 0 0 0 0 0 0 0 0 0 0 0 0 0 0 0 0
0 0 0 0 0 0 0 0 0 0 0 0 0 0 0 0 0 0 0 0 0 0 0 0 0 0 0 0 0 0 0 0 0 0 0 0 0 0 0 0 0 0 0
0 0 0 0 0 0 0 0 0 0 0 0 0 0 0 0 0 0 0 0 0 0 0 0 0 0 0 0 0 0 0 0 0 0 0 0 0 0 0 0 0 0 0
0 0 0 0 0 0 0 0 0 0 0 0 0 0 0 0 0 0 0 0 0 0 0 0 0 0 0 0 0 0 0 0 0 0 0 0 0 0 0 0 0 0 0
0 0 0 0 0 0 0 0 0 0 0 0 0 0 0 0 0 0 0 0 0 0 0 0 0 0 0 0 0 0 0 0 0 0 0 0 0 0 0 0 0 0 0
0 0 0 0 0 0 0 0 0 0 0 0 0 0 0 0 0 0 0 0 0 0 0 0 0 0 0 0 0 0 0 0 0 0 0 0 0 0 0 0 0 0 0
0 0 0 0 0 0 0 0 0 0 0 0 0 0 0 0 0 0 0 0 0 0 0 0 0 0 0 0 0 0 0 0 0 0 0 0 0 0 0 0 0 0 0
0 0 0 0 0 0 0 0 0 0 0 0 0 0 0 0 0 0 0 0 0 0 0 0 0 0 0 0 0 0 0 0 0 0 0 0 0 0 0 0 0 0 0
0 0 0 0 0 0 0 0 0 0 0 0 0 0 0 0 0 0 0 0 0 0 0 0 0 0 0 0 0 0 0 0 0 0 0 0 0 0 0 0 0 0 0
0 0 0 0 0 0 0 0 0 0 0 0 0 0 0 0 0 0 0 0 0 0 0 0 0 0 0 0 0 0 0 0 0 0 0 0 0 0 0 0 0 0 0
0 0 0 0 0 0 0 0 0 0 0 0 0 0 0 0 0 0 0 0 0 0 0 0 0 0 0 0 0 0 0 0 0 0 0 0 0 0 0 0 0 0 0
0 0 0 0 0 0 0 0 0 0 0 0 0 0 0 0 0 0 0 0 0 0 0 0 0 0 0 0 0 0 0 0 0 0 0 0 0 0 0 0 0 0 0
0 0 0 0 0 0 0 0 0 0 0 0 0 0 0 0 0 0 0 0 0 0 0 0 0 0 0 0 0 0 0 0 0 0 0 0 0 0 0 0 0 0 0
0 0 0 0 0 0 0 0 0 0 0 0 0 0 0 0 0 0 0 0 0 0 0 0 0 0 0 0 0 0 0 0 0 0 0 0 0 0 0 0 0 0 0
0 0 0 0 0 0 0 0 0 0 0 0 0 0 0 0 0 0 0 0 0 0 0 0 0 0 0 0 0 0 0 0 0 0 0 0 0 0 0 0 0 0 0

GEFSMW_con_cape1000_042.txt.gz
Probability
6 6 3 3 10 13 19 19 23 19 32 32 29 29 26 39 26 26 13 16 10 16 19 19 35 48 52 55 32 35 23 42 32 23 23 19 6 10 32 32 32 16 19
13 3 6 6 6 3 6 3 3 6 13 26 35 35 35 32 23 16 10 3 3 13 6 23 23 29 45 29 29 26 23 10 13 13 6 6 6 6 0 6 6 3 6
3 3 6 3 0 3 3 3 3 3 3 6 3 6 13 13 10 6 6 0 3 3 6 19 23 42 29 26 29 39 26 6 6 3 6 0 0 0 0 0 3 3 3
3 0 0 6 6 3 3 3 3 3 3 0 0 0 0 6 6 3 6 3 6 6 6 13 19 26 32 52 35 10 23 26 3 6 3 0 3 0 0 0 0 0 0
0 0 0 0 0 0 3 3 3 0 0 0 0 3 0 0 0 0 0 0 3 6 6 6 6 13 23 29 32 26 42 23 10 3 3 0 0 0 0 0 0 0 0
0 0 0 0 0 0 0 0 0 0 0 0 0 0 3 0 0 0 0 0 0 0 0 0 3 3 10 13 26 39 45 45 26 13 6 0 0 0 0 0 0 0 0
0 0 0 0 0 0 0 0 0 0 0 0 0 0 0 0 0 0 0 0 0 0 0 0 0 0 6 6 10 29 35 42 45 42 23 13 0 0 0 0 0 0 0
0 0 0 0 0 0 0 0 0 0 0 0 0 0 0 0 0 0 0 0 0 0 0 0 0 0 0 0 0 6 13 19 39 32 45 32 10 6 0 0 0 0 0
0 0 0 0 0 0 0 0 0 0 0 0 0 0 0 0 0 0 0 0 3 0 0 0 0 0 0 0 0 0 6 10 16 19 42 42 23 13 10 3 0 0 3
0 0 0 0 0 0 0 0 0 0 0 0 0 0 0 0 0 0 0 0 0 0 0 0 0 0 0 0 0 0 0 3 6 13 23 42 42 39 19 10 10 0 3
0 0 0 0 0 0 0 0 0 0 0 0 0 0 0 0 0 0 0 0 0 0 0 0 0 0 0 0 0 0 0 0 3 3 3 6 26 45 26 23 19 10 6
0 0 0 0 0 0 0 0 0 0 0 0 0 0 0 0 0 0 0 0 0 0 0 0 0 0 0 0 0 0 0 0 0 0 3 3 3 23 42 45 19 19 19
0 0 0 0 0 0 0 0 0 0 0 0 0 0 0 0 0 0 0 0 0 0 0 0 0 0 0 0 0 0 0 0 0 0 0 0 0 3 26 39 29 29 6
0 0 0 0 0 0 0 0 0 0 0 0 0 0 0 0 0 0 0 0 0 0 0 0 0 0 0 0 0 0 0 0 0 0 0 0 0 0 3 6 29 29 32
0 0 0 0 0 0 0 0 0 0 0 0 0 0 0 0 0 0 0 0 0 0 0 0 0 0 0 0 0 0 0 0 0 0 0 0 0 0 0 0 10 16 23
0 0 0 0 0 0 0 0 0 0 0 0 0 0 0 0 0 0 0 0 0 0 0 0 0 0 0 0 0 0 0 0 0 0 0 0 0 0 0 0 0 0 3
0 0 0 0 0 0 0 0 0 0 0 0 0 0 0 0 0 0 0 0 0 0 0 0 0 0 0 0 0 0 0 0 0 0 0 0 0 0 0 0 0 0 0
0 0 0 0 0 0 0 0 0 0 0 0 0 0 0 0 0 0 0 0 0 0 0 0 0 0 0 0 0 0 0 0 0 0 0 0 0 0 0 0 0 0 0
0 0 0 0 0 0 0 0 0 0 0 0 0 0 0 0 0 0 0 0 0 0 0 0 0 0 0 0 0 0 0 0 0 0 0 0 0 0 0 0 0 0 0
0 0 0 0 0 0 0 0 0 0 0 0 0 0 0 0 0 0 0 0 0 0 0 0 0 0 0 0 0 0 0 0 0 0 0 0 0 0 0 0 0 0 0
0 0 0 0 0 0 0 0 0 0 0 0 0 0 0 0 0 0 0 0 0 0 0 0 0 0 0 0 0 0 0 0 0 0 0 0 0 0 0 0 0 0 0
0 0 0 0 0 0 0 0 0 0 0 0 0 0 0 0 0 0 0 0 0 0 0 0 0 0 0 0 0 0 0 0 0 0 0 0 0 0 0 0 0 0 0
0 0 0 0 0 0 0 0 0 0 0 0 0 0 0 0 0 0 0 0 0 0 0 0 0 0 0 0 0 0 0 0 0 0 0 0 0 0 0 0 0 0 0
0 0 0 0 0 0 0 0 0 0 0 0 0 0 0 0 0 0 0 0 0 0 0 0 0 0 0 0 0 0 0 0 0 0 0 0 0 0 0 0 0 0 0
0 0 0 0 0 0 0 0 0 0 0 0 0 0 0 0 0 0 0 0 0 0 0 0 0 0 0 0 0 0 0 0 0 0 0 0 0 0 0 0 0 0 0
0 0 0 0 0 0 0 0 0 0 0 0 0 0 0 0 0 0 0 0 0 0 0 0 0 0 0 0 0 0 0 0 0 0 0 0 0 0 0 0 0 0 0

GEFSMW_con_cape1000_048.txt.gz
Probability
45 35 19 29 23 26 35 32 32 35 42 42 35 35 32 39 42 39 32 26 26 26 26 29 32 32 23 13 13 13 6 10 6 6 3 6 10 26 35 32 26 23 35
35 23 23 16 16 16 13 13 13 16 23 32 39 35 19 13 16 23 26 19 10 16 10 10 6 13 16 13 13 10 10 3 3 3 0 0 0 13 3 19 16 19 19
23 13 0 3 10 10 3 3 10 10 19 19 16 6 10 6 6 3 13 0 0 3 10 13 3 6 10 10 6 3 6 3 0 0 0 0 0 0 6 6 6 16 26
3 3 0 3 3 3 6 6 13 16 16 16 19 10 6 0 3 3 3 3 3 3 0 3 0 3 6 6 6 6 6 6 3 6 6 0 6 3 3 6 10 19 13
0 0 0 0 0 0 0 3 6 16 19 19 13 13 3 3 0 0 0 0 0 3 0 3 3 3 3 3 3 3 6 6 6 6 3 3 10 0 0 0 0 0 3
0 0 0 0 0 0 0 0 3 13 6 3 3 0 0 0 0 0 0 0 0 0 0 0 0 0 3 0 0 3 3 6 6 6 10 3 3 0 0 0 0 0 10
0 0 0 0 0 0 0 0 0 0 0 0 0 0 0 0 0 0 0 0 0 0 0 0 0 0 0 0 0 0 0 3 3 3 3 6 3 13 6 3 0 0 10
0 0 0 0 0 0 0 0 0 0 0 0 0 0 0 0 0 0 0 0 0 0 0 0 0 0 0 0 0 0 0 0 6 3 3 3 6 10 6 6 3 0 0
0 0 0 0 0 0 0 0 0 0 0 0 0 0 0 0 0 0 0 0 0 0 0 0 0 0 0 0 0 0 0 0 0 3 6 3 6 6 10 6 6 0 0
0 0 0 0 0 0 0 0 0 0 0 0 0 0 0 0 0 0 0 0 0 0 0 0 0 0 0 0 0 0 0 0 0 0 0 6 3 3 6 13 6 3 0
0 0 0 0 0 0 0 0 0 0 0 0 0 0 0 0 0 0 0 0 0 0 0 0 0 0 0 0 0 0 0 0 0 0 0 0 3 6 6 6 6 10 6
0 0 0 0 0 0 0 0 0 0 0 0 0 0 0 0 0 0 0 0 0 0 0 0 0 0 0 0 0 0 0 0 0 0 0 0 0 0 3 0 6 6 6
0 0 0 0 0 0 0 0 0 0 0 0 0 0 0 0 0 0 0 0 0 0 0 0 0 0 0 0 0 0 0 0 0 0 0 0 0 0 0 0 0 3 0
0 0 0 0 0 0 0 0 0 0 0 0 0 0 0 0 0 0 0 0 0 0 0 0 0 0 0 0 0 0 0 0 0 0 0 0 0 0 0 0 0 0 0
0 0 0 0 0 0 0 0 0 0 0 0 0 0 0 0 0 0 0 0 0 0 0 0 0 0 0 0 0 0 0 0 0 0 0 0 0 0 0 0 0 0 0
0 0 0 0 0 0 0 0 0 0 0 0 0 0 0 0 0 0 0 0 0 0 0 0 0 0 0 0 0 0 0 0 0 0 0 0 0 0 0 0 0 0 0
0 0 0 0 0 0 0 0 0 0 0 0 0 0 0 0 0 0 0 0 0 0 0 0 0 0 0 0 0 0 0 0 0 0 0 0 0 0 0 0 0 0 0
0 0 0 0 0 0 0 0 0 0 0 0 0 0 0 0 0 0 0 0 0 0 0 0 0 0 0 0 0 0 0 0 0 0 0 0 0 0 0 0 0 0 0
0 0 0 0 0 0 0 0 0 0 0 0 0 0 0 0 0 0 0 0 0 0 0 0 0 0 0 0 0 0 0 0 0 0 0 0 0 0 0 0 0 0 0
0 0 0 0 0 0 0 0 0 0 0 0 0 0 0 0 0 0 0 0 0 0 0 0 0 0 0 0 0 0 0 0 0 0 0 0 0 0 0 0 0 0 0
0 0 0 0 0 0 0 0 0 0 0 0 0 0 0 0 0 0 0 0 0 0 0 0 0 0 0 0 0 0 0 0 0 0 0 0 0 0 0 0 0 0 0
0 0 0 0 0 0 0 0 0 0 0 0 0 0 0 0 0 0 0 0 0 0 0 0 0 0 0 0 0 0 0 0 0 0 0 0 0 0 0 0 0 0 0
0 0 0 0 0 0 0 0 0 0 0 0 0 0 0 0 0 0 0 0 0 0 0 0 0 0 0 0 0 0 0 0 0 0 0 0 0 0 0 0 0 0 0
0 0 0 0 0 0 0 0 0 0 0 0 0 0 0 0 0 0 0 0 3 0 0 0 0 0 0 0 0 0 0 0 0 0 0 0 0 0 0 0 0 0 0
0 0 0 0 0 0 0 0 0 0 0 0 0 0 0 0 0 0 0 0 3 3 0 0 0 0 0 0 0 0 0 0 0 0 0 0 0 0 0 0 0 0 0
0 0 0 0 0 0 0 0 0 0 0 0 0 0 0 0 0 0 0 0 0 0 0 0 0 0 0 0 0 0 0 0 0 0 0 0 0 0 0 0 0 0 0

GEFSMW_con_cape1000_054.txt.gz
Probability
13 13 13 16 16 10 10 3 3 3 0 0 0 0 0 0 0 0 0 0 0 0 0 0 0 0 0 0 3 0 0 0 0 0 0 0 0 0 0 0 0 0 3
10 10 6 6 6 10 3 3 3 0 0 0 0 0 0 0 0 0 0 0 0 0 0 0 0 0 0 0 0 0 0 0 0 0 0 0 0 0 0 0 0 0 0
6 3 6 6 6 3 0 3 0 0 0 0 0 0 0 0 0 0 0 0 0 0 0 0 0 0 0 0 0 0 0 0 0 0 0 0 0 0 0 0 0 0 0
3 0 0 3 0 0 0 0 0 0 0 0 0 0 0 0 0 0 0 0 0 0 0 0 0 0 0 0 0 0 0 0 0 0 0 0 0 0 0 0 0 0 0
3 0 0 0 0 0 0 0 0 0 0 0 0 0 0 0 0 0 0 0 0 0 0 0 0 0 0 0 0 0 0 0 0 0 0 0 0 0 0 0 0 0 0
0 0 0 0 0 0 0 0 0 0 0 0 0 0 0 0 0 0 0 0 0 0 0 0 0 0 0 0 0 0 0 0 0 0 0 0 0 0 0 0 0 0 0
0 0 0 0 0 0 0 0 0 0 0 0 0 0 0 0 0 0 0 0 0 0 0 0 0 0 0 0 0 0 0 0 0 0 0 0 0 0 0 0 0 0 0
0 0 0 0 0 0 0 0 0 0 0 0 0 0 0 0 0 0 0 0 0 0 0 0 0 0 0 0 0 0 0 0 0 0 0 0 0 0 0 0 0 0 0
0 0 0 0 0 0 0 0 0 0 0 0 0 0 0 0 0 0 0 0 0 0 0 0 0 0 0 0 0 0 0 0 0 0 0 0 0 0 0 0 0 0 0
0 0 0 0 0 0 0 0 0 0 0 0 0 0 0 0 0 0 0 0 0 0 0 0 0 0 0 0 0 0 0 0 0 0 0 0 0 0 0 0 0 0 0
0 0 0 0 0 0 0 0 0 0 0 0 0 0 0 0 0 0 0 0 0 0 0 0 0 0 0 0 0 0 0 0 0 0 0 0 0 0 0 0 0 0 0
0 0 0 0 0 0 0 0 0 0 0 0 0 0 0 0 0 0 0 0 0 0 0 0 0 0 0 0 0 0 0 0 0 0 0 0 0 0 0 0 0 0 0
0 0 0 0 0 0 0 0 0 0 0 0 0 0 0 0 0 0 0 0 0 0 0 0 0 0 0 0 0 0 0 0 0 0 0 0 0 0 0 0 0 0 0
0 0 0 0 0 0 0 0 0 0 0 0 0 0 0 0 0 0 0 0 0 0 0 0 0 0 0 0 0 0 0 0 0 0 0 0 0 0 0 0 0 0 0
0 0 0 0 0 0 0 0 0 0 0 0 0 0 0 0 0 0 0 0 0 0 0 0 0 0 0 0 0 0 0 0 0 0 0 0 0 0 0 0 0 0 0
0 0 0 0 0 0 0 0 0 0 0 0 0 0 0 0 0 0 0 0 0 0 0 0 0 0 0 0 0 0 0 0 0 0 0 0 0 0 0 0 0 0 0
0 0 0 0 0 0 0 0 0 0 0 0 0 0 0 0 0 0 0 0 0 0 0 0 0 0 0 0 0 0 0 0 0 0 0 0 0 0 0 0 0 0 0
0 0 0 0 0 0 0 0 0 0 0 0 0 0 0 0 0 0 0 0 0 0 0 0 0 0 0 0 0 0 0 0 0 0 0 0 0 0 0 0 0 0 0
0 0 0 0 0 0 0 0 0 0 0 0 0 0 0 0 0 0 0 0 0 0 0 0 0 0 0 0 0 0 0 0 0 0 0 0 0 0 0 0 0 0 0
0 0 0 0 0 0 0 0 0 0 0 0 0 0 0 0 0 0 0 0 0 0 0 0 0 0 0 0 0 0 0 0 0 0 0 0 0 0 0 0 0 0 0
0 0 0 0 0 0 0 0 0 0 0 0 0 0 0 0 0 0 0 0 0 0 0 0 0 0 0 0 0 0 0 0 0 0 0 0 0 0 0 0 0 0 0
0 0 0 0 0 0 0 0 0 0 0 0 0 0 0 0 0 0 0 0 0 0 0 0 0 0 0 0 0 0 0 0 0 0 0 0 0 0 0 0 0 0 0
0 0 0 0 0 0 0 0 0 0 0 0 0 0 0 0 0 0 0 0 0 0 0 0 0 0 0 0 0 0 0 0 0 0 0 0 0 0 0 0 0 0 0
0 0 0 0 0 0 0 0 0 0 0 0 0 0 0 0 0 0 0 0 0 0 0 0 0 0 0 0 0 0 0 0 0 0 0 0 0 0 0 0 0 0 0
0 0 0 0 0 0 0 0 0 0 0 0 0 0 0 0 0 0 0 0 0 0 0 0 0 0 0 0 0 0 0 0 0 0 0 0 0 0 0 0 0 0 0
0 0 0 0 0 0 0 0 0 0 0 0 0 0 0 0 0 0 0 0 0 0 0 0 0 0 0 0 0 0 0 0 0 0 0 0 0 0 0 0 0 0 0

GEFSMW_con_cape1000_060.txt.gz
Probability
3 13 16 0 0 0 0 0 0 0 0 0 0 0 0 0 0 0 0 0 0 0 0 0 0 0 0 0 0 0 0 0 0 0 0 0 0 0 0 0 0 3 6
3 6 3 3 0 0 0 0 0 0 0 0 0 0 0 0 0 0 0 0 0 0 0 0 0 0 0 0 0 0 0 0 0 0 0 0 0 0 0 0 0 0 3
3 3 3 0 0 0 0 0 0 0 0 0 0 0 0 0 0 0 0 0 0 0 0 0 0 0 0 0 0 0 0 0 0 0 0 0 0 0 0 0 0 0 0
0 0 3 0 0 0 0 0 0 0 0 0 0 0 0 0 0 0 0 0 0 0 0 0 0 0 0 0 0 0 0 0 0 0 0 0 0 0 0 0 0 0 0
0 0 0 0 0 0 0 0 0 0 0 0 0 0 0 0 0 0 0 0 0 0 0 0 0 0 0 0 0 0 0 0 0 0 0 0 0 0 0 0 0 0 0
0 0 0 0 0 0 0 0 0 0 0 0 0 0 0 0 0 0 0 0 0 0 0 0 0 0 0 0 0 0 0 0 0 0 0 0 0 0 0 0 0 0 0
0 0 0 0 0 0 0 0 0 0 0 0 0 0 0 0 0 0 0 0 0 0 0 0 0 0 0 0 0 0 0 0 0 0 0 0 0 0 0 0 0 0 0
0 0 0 0 0 0 0 0 0 0 0 0 0 0 0 0 0 0 0 0 0 0 0 0 0 0 0 0 0 0 0 0 0 0 0 0 0 0 0 0 0 0 0
0 0 0 0 0 0 0 0 0 0 0 0 0 0 0 0 0 0 0 0 0 0 0 0 0 0 0 0 0 0 0 0 0 0 0 0 0 0 0 0 0 0 0
0 0 0 0 0 0 0 0 0 0 0 0 0 0 0 0 0 0 0 0 0 0 0 0 0 0 0 0 0 0 0 0 0 0 0 0 0 0 0 0 0 0 0
0 0 0 0 0 0 0 0 0 0 0 0 0 0 0 0 0 0 0 0 0 0 0 0 0 0 0 0 0 0 0 0 0 0 0 0 0 0 0 0 0 0 0
0 0 0 0 0 0 0 0 0 0 0 0 0 0 0 0 0 0 0 0 0 0 0 0 0 0 0 0 0 0 0 0 0 0 0 0 0 0 0 0 0 0 0
0 0 0 0 0 0 0 0 0 0 0 0 0 0 0 0 0 0 0 0 0 0 0 0 0 0 0 0 0 0 0 0 0 0 0 0 0 0 0 0 0 0 0
0 0 0 0 0 0 0 0 0 0 0 0 0 0 0 0 0 0 0 0 0 0 0 0 0 0 0 0 0 0 0 0 0 0 0 0 0 0 0 0 0 0 0
0 0 0 0 0 0 0 0 0 0 0 0 0 0 0 0 0 0 0 0 0 0 0 0 0 0 0 0 0 0 0 0 0 0 0 0 0 0 0 0 0 0 0
0 0 0 0 0 0 0 0 0 0 0 0 0 0 0 0 0 0 0 0 0 0 0 0 0 0 0 0 0 0 0 0 0 0 0 0 0 0 0 0 0 0 0
0 0 0 0 0 0 0 0 0 0 0 0 0 0 0 0 0 0 0 0 0 0 0 0 0 0 0 0 0 0 0 0 0 0 0 0 0 0 0 0 0 0 0
0 0 0 0 0 0 0 0 0 0 0 0 0 0 0 0 0 0 0 0 0 0 0 0 0 0 0 0 0 0 0 0 0 0 0 0 0 0 0 0 0 0 0
0 0 0 0 0 0 0 0 0 0 0 0 0 0 0 0 0 0 0 0 0 0 0 0 0 0 0 0 0 0 0 0 0 0 0 0 0 0 0 0 0 0 0
0 0 0 0 0 0 0 0 0 0 0 0 0 0 0 0 0 0 0 0 0 0 0 0 0 0 0 0 0 0 0 0 0 0 0 0 0 0 0 0 0 0 0
0 0 0 0 0 0 0 0 0 0 0 0 0 0 0 0 0 0 0 0 0 0 0 0 0 0 0 0 0 0 0 0 0 0 0 0 0 0 0 0 0 0 0
0 0 0 0 0 0 0 0 0 0 0 0 0 0 0 0 0 0 0 0 0 0 0 0 0 0 0 0 0 0 0 0 0 0 0 0 0 0 0 0 0 0 0
0 0 0 0 0 0 0 0 0 0 0 0 0 0 0 0 0 0 0 0 0 0 0 0 0 0 0 0 0 0 0 0 0 0 0 0 0 0 0 0 0 0 0
0 0 0 0 0 0 0 0 0 0 0 0 0 0 0 0 0 0 0 0 0 0 0 0 0 0 0 0 0 0 0 0 0 0 0 0 0 0 0 0 0 0 0
0 0 0 0 0 0 0 0 0 0 0 0 0 0 0 0 0 0 0 0 0 0 0 0 0 0 0 0 0 0 0 0 0 0 0 0 0 0 0 0 0 0 0
0 0 0 0 0 0 0 0 0 0 0 0 0 0 0 0 0 0 0 0 0 0 0 0 0 0 0 0 0 0 0 0 0 0 0 0 0 0 0 0 0 0 0

GEFSMW_con_cape1000_066.txt.gz
Probability
65 61 58 48 42 45 55 52 48 55 45 35 23 16 10 6 3 3 3 0 3 3 3 0 0 0 0 0 0 0 0 0 0 0 0 0 3 6 29 29 26 23 16
52 45 48 42 35 39 42 35 52 39 35 26 19 13 6 3 3 3 3 0 0 0 0 0 0 0 0 0 0 0 0 0 0 0 0 0 0 6 0 13 19 19 26
42 42 45 39 35 35 39 16 35 35 32 19 3 3 3 3 0 0 0 0 0 0 0 0 0 0 0 0 0 0 0 0 0 0 0 0 0 0 0 0 0 10 19
32 29 35 39 32 35 32 26 32 39 29 16 3 3 3 6 3 0 0 0 0 0 0 0 0 0 0 0 0 0 0 0 0 0 0 0 0 0 0 0 0 0 3
26 29 29 42 42 29 29 35 48 48 32 23 13 16 6 3 0 0 0 0 0 0 0 0 0 0 0 0 0 0 0 0 0 0 0 0 0 0 0 0 0 0 0
23 32 35 45 52 35 35 35 45 48 35 26 16 16 10 6 3 3 0 0 0 0 0 0 0 0 0 0 0 0 0 0 0 0 0 0 0 0 0 0 0 0 0
39 45 52 48 52 48 45 42 45 39 32 23 16 6 6 6 6 0 0 0 0 0 0 0 0 0 0 0 0 0 0 0 0 0 0 0 0 0 0 0 0 0 0
26 39 45 55 65 52 48 29 23 23 13 6 3 0 0 0 0 0 0 0 0 0 0 0 0 0 0 0 0 0 0 0 0 0 0 0 0 0 0 0 0 0 0
10 10 16 23 26 23 23 13 13 6 3 3 0 0 0 0 0 0 0 0 0 0 0 0 0 0 0 0 0 0 0 0 0 0 0 0 0 0 0 0 0 0 0
6 6 10 16 13 13 10 3 3 3 3 0 0 0 0 0 0 0 0 0 0 0 0 0 0 0 0 0 0 0 0 0 0 0 0 0 0 0 0 0 0 0 0
0 6 6 6 6 0 3 3 3 3 3 0 0 0 0 0 0 0 0 0 0 0 0 0 0 0 0 0 0 0 0 0 0 0 0 0 0 0 0 0 0 0 0
0 6 6 0 0 0 0 0 0 3 0 0 0 0 0 0 0 0 0 0 0 0 0 0 0 0 0 0 0 0 0 0 0 0 0 0 0 0 0 0 0 0 0
0 0 0 0 0 0 0 0 0 0 0 0 0 0 0 0 0 0 0 0 0 0 0 0 0 0 0 0 0 0 0 0 0 0 0 0 0 0 0 0 0 0 0
0 0 0 0 0 0 0 0 0 0 0 0 0 0 0 0 0 0 0 0 0 0 0 0 0 0 0 0 0 0 0 0 0 0 0 0 0 0 0 0 0 0 0
0 0 0 0 0 0 0 0 0 0 0 0 0 0 0 0 0 0 0 0 0 0 0 0 0 0 0 0 0 0 0 0 0 0 0 0 0 0 0 0 0 0 0
0 0 0 0 0 0 0 0 0 0 0 0 0 0 0 0 0 0 0 0 0 0 0 0 0 0 0 0 0 0 0 0 0 0 0 0 0 0 0 0 0 0 0
0 0 0 0 0 0 0 0 0 0 0 0 0 0 0 0 0 0 0 0 0 0 0 0 0 0 0 0 0 0 0 0 0 0 0 0 0 0 0 0 0 0 0
0 0 0 0 0 0 0 0 0 0 0 0 0 0 0 0 0 0 0 0 0 0 0 0 0 0 0 0 0 0 0 0 0 0 0 0 0 0 0 0 0 0 0
0 0 0 0 0 0 0 0 0 0 0 0 0 0 0 0 0 0 0 0 0 0 0 0 0 0 0 0 0 0 0 0 0 0 0 0 0 0 0 0 0 0 0
0 0 0 0 0 0 0 0 0 0 0 0 0 0 0 0 0 0 0 0 0 0 0 0 0 0 0 0 0 0 0 0 0 0 0 0 0 0 0 0 0 0 0
0 0 0 0 0 0 0 0 0 0 0 0 0 0 0 0 0 0 0 0 0 0 0 0 0 0 0 0 0 0 0 0 0 0 0 0 0 0 0 0 0 0 0
0 0 0 0 0 0 0 0 0 0 0 0 0 0 0 0 0 0 0 0 0 0 0 0 0 0 0 0 0 0 0 0 0 0 3 0 0 0 0 0 0 0 0
0 0 0 0 0 0 0 0 0 0 0 0 0 0 0 0 0 0 0 0 0 0 0 0 0 0 0 0 0 0 0 0 0 0 0 0 0 0 0 0 0 0 0
0 0 0 0 0 0 0 0 0 0 0 0 0 0 0 0 0 0 0 0 0 0 0 0 0 0 0 3 0 0 0 0 0 0 0 0 0 0 0 0 0 0 0
0 0 0 0 0 0 0 0 0 0 0 0 0 0 0 0 0 0 0 0 0 0 0 0 0 0 0 0 0 0 0 0 0 0 0 0 0 0 0 0 0 0 0
0 0 0 0 0 0 0 0 0 0 0 0 0 0 0 0 0 0 0 0 0 0 0 0 0 0 0 0 0 0 0 0 0 0 0 0 0 0 0 0 0 0 0

GEFSMW_con_cape1000_072.txt.gz
Probability
81 81 81 77 74 90 94 90 87 77 77 71 71 81 61 42 32 26 13 3 0 0 0 0 0 0 0 0 0 0 0 0 3 0 0 0 0 6 13 29 26 26 35
71 71 84 74 65 97 100 94 84 81 77 81 77 81 68 45 42 26 19 3 6 0 0 3 0 0 0 0 0 0 0 0 0 0 0 0 0 3 0 16 35 23 32
61 65 58 61 58 84 90 61 84 81 81 74 65 58 58 58 52 35 23 16 10 0 0 0 0 0 0 0 0 0 0 0 0 0 0 0 0 0 6 3 6 10 29
52 55 48 55 65 74 71 94 90 87 87 65 58 58 55 39 39 32 19 16 10 0 0 0 0 0 0 0 0 0 0 0 0 0 0 0 0 0 0 0 3 3 3
52 48 48 68 52 55 65 87 94 87 74 61 61 52 48 32 29 26 16 13 6 6 3 0 0 0 0 0 0 0 0 0 0 0 0 0 0 0 0 0 0 0 3
42 48 45 71 65 55 61 65 87 87 77 68 61 48 42 32 23 19 10 10 10 6 3 0 0 0 0 0 0 0 0 0 0 0 0 0 0 0 0 0 0 0 0
29 35 55 52 65 61 55 61 81 84 77 55 45 39 32 26 19 13 10 3 0 3 0 0 0 0 0 0 0 0 0 0 0 0 0 0 0 0 0 0 0 0 0
32 55 58 61 61 55 68 65 74 71 58 42 35 26 19 6 3 3 0 0 0 0 0 0 0 0 0 0 0 0 0 0 0 0 0 0 0 0 0 0 0 0 0
26 35 39 42 55 48 55 55 68 58 39 29 23 16 10 0 0 3 0 0 0 0 0 0 0 0 0 0 0 0 0 0 0 0 0 0 0 0 0 0 0 0 0
16 16 23 23 39 42 55 48 42 32 26 19 16 6 3 0 0 0 0 0 0 0 0 0 0 0 0 0 0 0 0 0 0 0 0 0 0 0 0 0 0 0 0
3 3 13 23 29 19 23 26 26 26 19 13 13 6 3 0 0 0 0 0 0 0 0 0 0 0 0 0 0 0 0 0 0 0 0 0 0 0 0 0 0 0 0
3 3 16 16 16 13 13 19 19 16 13 13 6 6 0 0 0 0 0 0 0 0 0 0 0 0 0 0 0 0 0 0 0 0 0 0 0 0 0 0 0 0 0
3 10 16 13 13 13 13 10 10 6 6 3 3 3 0 0 3 0 0 0 0 0 0 0 0 0 0 0 0 0 0 0 0 0 0 0 0 0 0 0 0 0 0
16 13 19 13 16 19 19 13 3 3 0 0 3 3 3 3 6 3 0 0 0 3 0 0 0 0 0 0 0 0 0 0 0 0 0 0 0 0 0 0 0 0 0
10 16 23 23 26 23 19 6 6 6 0 0 0 0 3 6 3 0 0 0 0 0 0 0 0 0 0 0 0 0 0 0 0 0 0 0 0 0 0 0 0 0 0
6 10 19 23 29 19 13 10 6 3 3 3 0 0 3 0 0 0 0 0 0 0 0 0 0 0 0 0 0 0 0 0 0 0 0 0 0 0 0 0 0 0 0
13 23 16 26 32 19 16 16 10 6 3 3 3 3 3 0 0 0 0 0 3 3 6 3 0 0 0 0 0 0 0 0 0 0 0 0 0 0 0 0 0 0 0
10 19 13 23 19 19 16 16 6 6 3 3 0 0 3 0 0 0 0 6 6 3 6 6 0 3 0 0 0 0 0 0 0 0 0 0 0 0 0 0 0 0 0
16 19 6 0 16 13 13 13 10 3 3 0 0 0 0 0 3 0 3 10 16 10 6 6 0 0 0 0 0 0 0 0 0 0 0 0 0 0 0 0 0 0 0
10 16 6 6 19 19 13 13 10 10 6 6 3 3 3 3 3 6 13 10 16 10 0 0 0 0 3 0 0 0 0 0 0 0 0 0 0 0 0 0 0 0 0
6 16 16 16 32 32 26 23 23 16 13 6 3 3 10 10 6 10 16 13 6 0 3 3 3 3 0 0 0 0 0 0 0 0 3 0 0 0 0 0 0 0 0
16 13 35 42 45 32 29 32 29 19 13 13 10 10 13 3 0 6 10 13 13 6 0 0 0 0 0 0 0 0 0 0 0 0 0 0 0 0 0 0 0 0 0
16 19 35 52 45 45 42 32 42 29 16 13 16 19 16 13 13 13 6 10 10 3 0 0 0 3 0 0 0 0 0 0 0 0 0 0 0 0 0 0 0 0 0
26 32 19 26 39 39 35 45 42 35 29 23 23 23 23 13 19 10 0 0 0 0 0 3 0 0 0 6 3 0 0 0 0 0 0 0 0 0 0 0 0 0 0
23 26 39 45 39 32 32 29 26 29 26 23 16 13 0 0 16 6 0 0 3 0 0 0 0 0 0 0 0 0 0 0 0 0 0 0 0 0 0 0 0 0 0
32 29 32 13 23 26 26 26 29 26 32 23 16 0 0 0 3 0 3 0 0 0 0 0 0 0 0 0 0 0 0 0 0 0 0 0 0 0 0 0 0 0 0

GEFSMW_con_cape1000_078.txt.gz
Probability
48 58 61 65 52 39 35 39 35 29 29 13 13 10 6 6 3 0 0 0 0 0 0 0 0 0 0 0 0 0 0 0 0 0 0 0 0 0 0 0 0 0 6
48 52 52 48 42 42 39 35 32 26 26 10 3 0 0 0 3 3 0 0 0 0 0 0 0 0 0 0 0 0 0 0 0 0 0 0 0 0 0 0 0 0 0
48 45 52 52 45 32 32 32 29 26 10 10 0 0 0 0 0 0 0 0 0 0 0 0 0 0 0 0 0 0 0 0 0 0 0 0 0 0 0 0 0 0 0
45 45 45 35 35 32 29 29 23 16 6 6 0 0 0 0 0 0 0 0 0 0 0 0 0 0 0 0 0 0 0 0 0 0 0 0 0 0 0 0 0 0 0
42 39 39 32 35 32 26 19 19 13 6 3 3 0 0 0 0 0 0 0 0 0 0 0 0 0 0 0 0 0 0 0 0 0 0 0 0 0 0 0 0 0 0
29 35 32 26 19 23 23 16 19 13 10 6 3 0 0 0 0 0 0 0 0 0 0 0 0 0 0 0 0 0 0 0 0 0 0 0 0 0 0 0 0 0 0
26 23 19 19 19 19 23 16 16 13 13 10 13 3 3 3 3 3 0 0 0 0 0 0 0 0 0 0 0 0 0 0 0 0 0 0 0 0 0 0 0 0 0
23 23 16 13 16 16 16 19 13 16 13 13 10 6 3 3 0 0 0 0 0 0 0 0 0 0 0 0 0 0 0 0 0 0 0 0 0 0 0 0 0 0 0
23 19 13 10 10 13 16 16 13 13 13 10 6 6 3 0 0 0 0 0 0 0 0 0 0 0 0 0 0 0 0 0 0 0 0 0 0 0 0 0 0 0 0
23 13 13 10 10 6 10 13 10 6 13 10 6 6 0 0 0 0 0 0 0 0 0 0 0 0 0 0 0 0 0 0 0 0 0 0 0 0 0 0 0 0 0
10 10 13 10 6 10 13 6 3 10 13 13 10 6 3 0 0 0 0 0 0 0 0 0 0 0 0 0 0 0 0 0 0 0 0 0 0 0 0 0 0 0 0
10 10 6 6 6 13 10 6 10 10 10 10 10 3 3 0 0 0 0 0 0 0 0 0 0 0 0 0 0 0 0 0 0 0 0 0 0 0 0 0 0 0 0
3 3 6 6 6 6 13 13 10 10 6 10 6 3 0 0 0 0 0 0 0 0 0 0 0 0 0 0 0 0 0 0 0 0 0 0 0 0 0 0 0 0 0
0 0 0 0 0 0 10 10 10 6 10 6 6 0 0 0 0 0 0 0 0 0 0 0 0 0 0 0 0 0 0 0 0 0 0 0 0 0 0 0 0 0 0
0 0 0 0 0 6 3 3 3 6 6 3 3 0 0 0 0 0 0 0 0 0 0 0 0 0 0 0 0 0 0 0 0 0 0 0 0 0 0 0 0 0 0
0 0 0 3 3 6 6 6 3 3 3 3 0 0 0 0 0 0 0 0 0 0 0 0 0 0 0 0 0 0 0 0 0 0 0 0 0 0 0 0 0 0 0
0 0 3 3 3 0 0 3 3 3 0 0 0 0 0 0 0 0 0 0 0 0 0 0 0 0 0 0 0 0 0 0 0 0 0 0 0 0 0 0 0 0 0
0 0 0 0 0 0 0 0 0 0 0 0 0 0 0 0 0 0 0 0 0 0 0 0 0 0 0 0 0 0 0 0 0 0 0 0 0 0 0 0 0 0 0
0 0 0 0 0 0 0 0 0 0 0 0 0 0 0 0 0 0 0 0 0 0 0 0 0 0 0 0 0 0 0 0 0 0 0 0 0 0 0 0 0 0 0
0 0 0 0 0 0 0 0 0 0 0 0 0 0 0 0 0 0 0 0 0 0 0 0 0 0 0 0 0 0 0 0 0 0 0 0 0 0 0 0 0 0 0
0 0 0 0 0 0 0 0 0 0 0 0 0 0 0 0 0 0 0 0 0 0 0 0 0 0 0 0 0 0 0 0 0 0 0 0 0 0 0 0 0 0 0
0 0 0 0 0 0 0 0 0 0 0 0 0 0 0 0 0 0 0 0 0 0 0 0 0 0 0 0 0 0 0 0 0 0 0 0 0 0 0 0 0 0 0
0 0 0 0 0 0 0 0 0 0 0 0 0 0 0 0 0 0 0 0 0 0 0 0 0 0 0 0 0 0 0 0 0 0 0 0 0 0 0 0 0 0 0
0 0 0 0 0 0 0 0 0 0 0 0 0 0 0 0 0 0 0 0 0 0 0 0 0 0 0 0 0 0 0 0 0 0 0 0 0 0 0 0 0 0 0
0 0 0 0 0 0 0 0 0 0 0 0 0 0 0 0 0 0 0 0 0 0 0 0 0 0 0 0 0 0 0 0 0 0 0 0 0 0 0 0 0 0 0
0 0 0 0 0 0 0 0 0 0 0 0 0 0 0 0 0 0 0 0 0 0 0 0 0 0 0 0 0 0 0 0 0 0 0 0 0 0 0 0 0 0 0

GEFSMW_con_cape1000_084.txt.gz
Probability
23 42 39 45 39 35 29 23 19 10 6 3 3 3 3 0 0 0 0 0 0 0 0 0 0 0 0 0 0 0 0 0 0 0 0 0 0 0 0 0 0 0 0
23 32 35 35 32 29 23 19 13 6 3 3 3 0 0 0 0 0 0 0 0 0 0 0 0 0 0 0 0 0 0 0 0 0 0 0 0 0 0 0 0 0 0
23 29 32 29 29 29 26 19 13 6 3 3 0 0 0 0 0 0 0 0 0 0 0 0 0 0 0 0 0 0 0 0 0 0 0 0 0 0 0 0 0 0 0
23 29 32 26 26 23 19 10 10 6 3 3 0 0 0 0 0 0 0 0 0 0 0 0 0 0 0 0 0 0 0 0 0 0 0 0 0 0 0 0 0 0 0
23 23 32 29 26 19 19 13 10 6 3 0 0 0 0 0 0 0 0 0 0 0 0 0 0 0 0 0 0 0 0 0 0 0 0 0 0 0 0 0 0 0 0
26 26 23 26 23 19 19 13 13 10 0 0 0 0 0 0 0 0 0 0 0 0 0 0 0 0 0 0 0 0 0 0 0 0 0 0 0 0 0 0 0 0 0
23 26 26 26 19 16 19 13 13 6 0 0 0 0 0 0 0 0 0 0 0 0 0 0 0 0 0 0 0 0 0 0 0 0 0 0 0 0 0 0 0 0 0
13 16 23 19 16 16 16 16 13 10 0 0 0 0 0 0 0 0 0 0 0 0 0 0 0 0 0 0 0 0 0 0 0 0 0 0 0 0 0 0 0 0 0
13 16 16 16 16 10 13 13 16 6 3 0 0 0 0 0 0 0 0 0 0 0 0 0 0 0 0 0 0 0 0 0 0 0 0 0 0 0 0 0 0 0 0
10 13 16 16 13 10 10 10 13 13 6 3 3 0 0 0 0 0 0 0 0 0 0 0 0 0 0 0 0 0 0 0 0 0 0 0 0 0 0 0 0 0 0
6 10 10 13 10 10 10 13 10 10 6 6 3 3 0 0 0 0 0 0 0 0 0 0 0 0 0 0 0 0 0 0 0 0 0 0 0 0 0 0 0 0 0
6 6 6 3 10 13 10 10 10 10 6 6 3 3 3 3 3 0 0 0 0 0 0 0 0 0 0 0 0 0 0 0 0 0 0 0 0 0 0 0 0 0 0
6 6 10 3 6 6 10 10 10 10 6 3 3 3 6 3 3 3 0 0 0 0 0 0 0 0 0 0 0 0 0 0 0 0 0 0 0 0 0 0 0 0 0
10 10 10 10 0 0 3 3 6 3 3 3 3 3 6 3 3 0 0 0 0 0 0 0 0 0 0 0 0 0 0 0 0 0 0 0 0 0 0 0 0 0 0
3 6 6 10 3 3 3 3 3 3 3 3 3 6 6 0 0 0 0 0 0 0 0 0 0 0 0 0 0 0 0 0 0 0 0 0 0 0 0 0 0 0 0
0 3 3 3 0 0 0 0 0 0 0 3 3 3 0 0 0 0 0 0 0 0 0 0 0 0 0 0 0 0 0 0 0 0 0 0 0 0 0 0 0 0 0
0 0 0 0 0 0 0 0 0 0 0 0 0 0 0 0 0 0 0 0 0 0 0 0 0 0 0 0 0 0 0 0 0 0 0 0 0 0 0 0 0 0 0
0 0 0 0 0 0 0 0 0 0 0 0 0 0 0 0 0 0 0 0 0 0 0 0 0 0 0 0 0 0 0 0 0 0 0 0 0 0 0 0 0 0 0
0 0 0 0 0 0 0 0 0 0 0 0 0 0 0 0 0 0 0 0 0 0 0 0 0 0 0 0 0 0 0 0 0 0 0 0 0 0 0 0 0 0 0
0 0 0 0 0 0 0 0 0 0 0 0 0 0 0 0 0 0 0 0 0 0 0 0 0 0 0 0 0 0 0 0 0 0 0 0 0 0 0 0 0 0 0
0 0 0 0 0 0 0 0 0 0 0 0 0 0 0 0 0 0 0 0 0 0 0 0 0 0 0 0 0 0 0 0 0 0 0 0 0 0 0 0 0 0 0
0 0 0 0 0 0 0 0 0 0 0 0 0 0 0 0 0 0 0 0 0 0 0 0 0 0 0 0 0 0 0 0 0 0 0 0 0 0 0 0 0 0 0
0 0 0 0 0 0 0 0 0 0 0 0 0 0 0 0 0 0 0 0 0 0 0 0 0 0 0 0 0 0 0 0 0 0 0 0 0 0 0 0 0 0 0
0 0 0 0 0 0 0 0 0 0 0 0 0 0 0 0 0 0 0 0 0 0 0 0 0 0 0 0 0 0 0 0 0 0 0 0 0 0 0 0 0 0 0
0 0 0 0 0 0 0 0 0 0 0 0 0 0 0 0 0 0 0 0 0 0 0 0 0 0 0 0 0 0 0 0 0 0 0 0 0 0 0 0 0 0 0
0 0 0 0 0 0 0 0 0 0 0 0 0 0 0 0 0 0 0 0 0 0 0 0 0 0 0 0 0 0 0 0 0 0 0 0 0 0 0 0 0 0 0

GEFSMW_con_cape1000_090.txt.gz
Probability
32 39 45 45 55 58 61 77 71 71 71 65 58 55 45 32 32 29 26 23 13 6 3 3 3 0 0 0 0 0 0 0 0 0 0 0 0 0 0 3 0 0 3
32 45 48 52 55 58 65 68 74 74 71 71 61 55 45 29 29 26 29 23 16 10 3 6 0 3 3 0 0 0 0 0 0 0 0 0 0 0 0 0 0 0 0
39 42 35 52 55 55 61 61 74 68 74 68 58 55 52 35 23 19 29 23 10 6 6 6 3 3 0 0 0 0 0 0 0 0 0 0 0 0 0 0 0 0 0
35 39 42 55 52 58 68 74 81 81 77 68 45 39 35 29 26 19 16 19 16 16 3 3 3 3 0 0 0 0 0 0 0 0 0 0 0 0 0 0 0 0 0
32 39 48 58 55 68 74 81 84 81 74 61 55 52 32 29 16 13 29 23 16 13 13 10 10 10 6 0 0 0 0 0 0 0 0 0 0 0 0 0 0 0 0
32 45 48 61 71 68 77 77 81 84 71 61 55 55 45 35 26 32 26 23 10 10 10 6 10 6 6 6 6 3 0 0 0 0 0 0 0 0 0 0 0 0 0
42 48 58 74 74 71 74 74 81 81 74 61 58 52 61 55 52 35 23 16 3 6 10 6 6 6 6 6 6 6 0 0 0 0 0 0 0 0 0 0 0 0 0
48 65 61 77 87 77 81 71 81 84 74 61 58 55 58 39 35 32 16 10 6 6 6 6 6 6 6 6 6 0 0 0 0 0 0 0 0 0 0 0 0 0 0
39 52 55 68 77 84 87 65 77 84 81 58 65 77 68 42 35 39 23 10 10 6 6 6 6 3 6 6 6 0 0 0 0 0 0 0 0 0 0 0 0 0 0
32 39 55 55 68 65 84 74 74 84 84 71 71 55 65 65 55 39 16 13 6 6 6 6 3 3 6 6 3 0 0 0 0 0 0 0 0 0 0 0 0 0 0
23 35 55 61 68 68 71 87 84 81 81 81 84 68 61 52 55 48 29 26 16 10 10 6 6 3 3 3 3 0 0 0 0 0 0 0 0 0 0 0 0 0 0
23 29 42 48 55 68 68 81 84 87 84 84 81 77 61 55 52 39 35 29 26 13 10 10 6 3 3 3 3 0 0 0 0 0 0 0 0 0 0 0 0 0 0
23 35 42 58 58 58 65 71 84 90 81 77 84 77 61 61 58 45 39 29 23 19 10 10 6 3 3 3 3 0 0 0 0 0 0 0 0 0 0 0 0 0 0
32 42 48 65 65 71 81 84 87 81 68 68 77 74 68 65 58 45 42 32 26 23 19 10 10 3 3 3 3 0 0 0 0 0 0 0 0 0 6 0 6 0 0
45 52 58 71 81 77 87 84 81 77 71 71 65 68 68 61 52 45 42 29 23 19 19 19 13 3 3 3 3 3 0 0 0 0 0 0 0 0 0 0 3 3 3
35 58 68 77 84 84 84 87 81 84 84 77 65 65 65 55 42 35 32 26 19 16 16 16 6 6 3 0 0 0 0 0 0 0 0 0 0 0 0 0 0 0 0
32 55 58 71 87 90 81 77 77 74 74 71 65 65 58 52 42 32 26 23 16 16 13 13 13 10 10 0 0 0 0 0 0 0 3 0 0 0 0 0 0 0 0
48 58 65 71 71 71 74 77 71 74 68 71 65 61 55 48 42 26 23 23 19 19 16 19 16 16 6 0 0 0 0 0 0 0 0 3 0 0 0 0 0 0 0
35 45 48 52 58 61 61 65 61 65 61 55 61 58 48 42 35 23 19 23 26 26 29 26 23 23 13 0 0 0 0 0 0 0 0 0 0 0 0 0 0 0 0
26 29 35 35 42 42 48 58 48 48 48 48 42 32 29 29 26 26 23 13 19 19 19 3 13 13 16 0 0 0 0 0 0 0 0 0 0 0 0 0 0 0 0
16 19 23 23 23 23 35 32 26 23 29 23 19 13 10 10 10 13 16 16 16 13 13 6 13 16 16 0 0 0 0 0 0 0 3 3 0 0 0 0 0 0 0
3 6 13 16 16 16 16 32 26 16 13 13 13 10 10 6 3 10 13 6 10 10 10 13 10 6 6 0 0 0 0 0 0 0 3 3 0 0 0 0 0 0 0
0 3 3 6 6 0 3 16 13 10 6 3 10 10 6 3 3 3 6 10 10 3 0 3 3 3 3 0 0 0 0 0 0 0 0 0 0 0 0 0 0 0 0
3 3 0 0 0 0 0 3 3 3 3 3 3 6 6 3 3 3 6 6 3 3 6 3 6 3 3 0 3 0 0 0 0 0 0 0 0 0 0 0 0 0 0
3 3 3 3 3 3 0 0 0 3 3 3 0 0 0 0 3 3 3 0 3 0 3 3 3 3 0 0 0 0 0 0 0 0 0 0 0 0 0 0 0 0 0
0 0 0 0 3 3 3 0 0 0 0 0 0 0 0 0 0 0 0 0 0 0 0 0 0 0 0 0 0 0 0 0 0 0 0 0 0 0 0 0 0 0 0

GEFSMW_con_cape1000_096.txt.gz
Probability
55 61 58 58 65 71 74 74 81 84 90 77 77 71 61 52 52 48 42 26 23 19 23 16 13 10 16 13 6 3 0 3 0 3 3 10 6 13 10 6 3 10 16
48 52 55 58 58 71 71 71 74 74 77 77 81 74 68 52 55 52 42 39 29 26 10 16 10 10 13 10 6 3 3 0 0 0 3 6 6 3 0 3 3 10 13
52 52 55 52 55 61 65 61 71 71 71 71 65 58 68 55 58 55 48 39 29 26 19 16 13 13 13 13 13 10 6 0 0 0 0 3 3 3 0 0 3 6 10
58 55 55 45 45 45 52 65 74 74 81 74 71 55 48 55 52 58 55 48 32 23 23 16 10 10 10 16 10 6 3 3 0 0 0 0 0 3 0 0 0 3 6
52 48 52 48 48 48 58 65 68 77 77 71 77 74 55 61 58 65 65 48 42 26 19 16 13 13 13 13 13 16 3 6 3 3 0 0 0 0 0 0 0 0 0
35 48 52 48 55 55 61 65 74 77 81 81 81 77 65 65 71 68 65 58 48 32 23 13 13 10 10 10 10 13 6 10 6 3 0 0 0 0 0 0 0 0 0
35 45 58 55 68 61 58 68 71 77 90 87 84 81 77 74 71 74 74 48 39 32 35 13 16 13 13 10 10 13 10 6 6 6 3 3 3 3 3 3 0 3 0
45 48 71 74 65 68 71 77 81 87 90 87 87 81 81 71 71 77 68 52 48 23 23 23 19 19 13 6 10 10 6 6 6 6 3 3 3 3 3 3 3 0 3
42 61 68 71 68 68 77 81 87 87 90 87 90 87 84 77 77 81 71 48 48 23 23 19 19 13 13 10 10 10 10 6 6 6 6 6 6 3 3 3 3 3 0
45 58 68 65 68 68 81 90 87 90 90 90 84 71 84 81 74 74 71 58 42 26 23 19 19 16 16 13 16 6 6 10 6 6 6 6 3 3 3 3 3 3 3
61 65 71 71 77 84 77 87 81 87 87 87 90 90 77 81 77 74 71 65 55 39 32 23 29 16 16 10 13 6 6 6 6 6 6 6 6 3 3 3 3 3 3
42 61 74 81 84 84 84 90 90 84 87 90 94 94 90 84 77 71 74 65 61 42 35 35 32 26 16 23 16 6 6 3 3 6 6 6 6 10 3 3 3 6 3
45 58 81 81 87 81 84 84 87 90 87 87 87 87 84 84 74 77 71 61 58 52 42 39 45 35 26 19 16 13 10 0 0 3 3 6 6 10 6 6 6 6 0
71 68 81 84 84 84 97 97 87 87 87 90 87 84 87 87 81 77 74 71 58 55 48 42 42 35 35 19 16 10 6 6 10 10 13 10 10 6 10 10 6 6 3
68 81 81 84 87 90 94 94 87 84 84 84 77 77 87 84 81 77 68 65 52 45 52 52 39 35 35 19 16 19 10 23 23 19 16 16 6 6 3 3 10 10 3
52 68 84 87 94 90 90 90 87 87 87 87 77 81 87 84 77 77 68 68 58 55 52 42 35 29 10 0 0 3 6 13 16 16 16 16 3 0 0 0 0 0 0
68 61 77 87 90 90 90 90 90 84 84 87 81 87 87 74 71 71 65 65 65 58 58 48 39 35 26 0 0 0 3 10 13 16 32 6 0 0 3 0 0 0 0
68 74 81 81 90 84 87 87 87 84 84 84 84 87 84 77 74 71 68 68 65 58 61 61 52 58 29 3 0 0 0 0 0 3 13 32 23 3 6 6 0 0 0
58 65 65 71 77 74 77 77 74 74 77 74 77 74 74 71 68 68 71 74 74 68 61 61 58 55 45 0 0 0 0 0 0 0 0 10 19 0 0 0 0 0 3
55 55 55 52 58 65 68 68 68 61 61 65 65 68 61 61 58 61 58 65 65 61 55 52 52 48 48 10 0 0 0 0 0 3 6 0 0 0 0 0 0 0 0
42 42 45 45 45 48 52 55 45 52 45 48 52 58 58 61 58 58 55 55 52 55 45 45 48 55 48 13 0 0 0 0 0 0 0 0 0 0 0 0 0 0 0
23 26 29 23 23 19 32 32 29 26 26 29 32 45 45 29 29 48 45 48 48 42 48 45 45 32 35 13 0 0 0 0 0 0 0 0 0 0 0 0 0 0 0
19 19 19 16 16 16 16 13 13 26 19 19 19 23 29 23 23 32 35 32 32 26 23 16 16 19 19 19 0 0 0 0 0 0 0 0 0 0 0 0 0 0 0
19 13 10 10 10 10 10 13 13 13 16 16 13 16 16 16 19 26 19 16 16 16 19 13 13 10 10 10 10 0 0 0 0 0 0 0 0 0 0 0 0 0 0
13 13 13 10 6 6 6 10 10 10 10 16 16 16 16 16 16 13 13 10 10 3 3 6 6 6 3 0 0 0 0 0 0 0 0 0 0 0 0 0 0 0 0
6 6 6 6 3 3 3 3 6 6 10 10 13 10 6 13 10 6 6 0 0 0 0 0 0 0 0 0 0 0 0 0 0 0 0 0 0 0 0 0 0 0 0

GEFSMW_con_cape1000_102.txt.gz
Probability
39 32 23 23 29 32 32 35 39 42 35 29 26 13 19 16 13 13 16 10 3 3 0 0 0 0 0 0 0 0 0 0 0 0 0 0 0 0 0 0 0 0 0
35 29 23 23 29 29 32 32 35 32 32 29 23 13 10 16 13 16 10 3 3 3 3 0 0 0 0 0 0 0 0 0 0 0 0 0 0 0 0 0 0 0 0
29 29 23 26 26 29 32 32 35 32 29 23 19 19 13 10 10 3 3 3 3 3 3 0 0 0 0 0 0 0 0 0 0 0 0 0 0 0 0 0 0 0 0
32 16 19 26 26 29 32 26 32 32 23 23 23 19 13 13 13 3 3 3 3 3 3 0 0 0 0 0 0 0 0 0 0 0 0 0 0 0 0 0 0 0 0
26 23 16 23 32 32 32 32 32 29 26 26 23 13 6 3 3 3 6 3 3 3 6 0 0 0 0 0 0 0 0 0 0 0 0 0 0 0 0 0 0 0 0
19 16 13 16 26 29 35 35 35 29 23 26 23 13 6 3 3 3 3 3 3 3 3 0 0 0 0 0 0 0 0 0 0 0 0 0 0 0 0 0 0 0 0
13 13 16 16 16 19 32 32 35 35 19 19 23 19 6 6 6 3 3 3 3 3 3 0 0 0 0 0 0 0 0 0 0 0 0 0 0 0 0 0 0 0 0
10 13 13 16 16 19 26 29 29 35 29 23 23 16 10 10 3 6 3 3 3 3 3 0 0 0 0 3 0 0 0 0 0 0 0 0 0 0 0 0 0 0 0
13 16 16 16 16 16 26 29 32 32 39 35 26 16 13 10 6 3 3 3 3 3 0 0 0 0 0 0 0 0 0 0 0 0 0 0 0 0 0 0 0 0 0
13 16 19 16 16 16 26 23 29 35 35 32 23 23 13 6 6 6 3 3 0 3 0 0 0 3 3 0 0 0 0 0 0 0 0 0 0 0 0 0 0 0 0
16 23 23 29 19 23 26 29 39 35 39 29 19 19 19 6 3 6 6 0 0 0 0 0 3 3 0 0 0 0 0 0 0 0 0 0 0 0 0 0 0 0 0
10 13 19 19 26 29 35 35 42 45 35 26 26 13 10 10 6 6 3 3 0 0 0 0 0 0 0 0 0 0 0 0 0 0 0 0 0 0 0 0 0 0 0
10 6 19 16 26 35 35 45 45 45 35 35 26 19 16 13 10 6 6 3 0 0 0 0 0 0 0 0 0 0 0 0 0 0 0 0 0 0 0 0 0 0 0
10 10 13 26 29 35 39 45 48 48 42 35 35 32 23 16 13 6 6 10 0 0 0 0 0 0 0 0 0 0 0 0 0 0 0 0 0 0 0 0 0 0 0
3 10 6 19 29 32 35 52 52 48 45 45 39 39 29 19 10 6 10 6 0 0 0 0 0 0 0 0 0 0 0 0 0 0 0 0 0 0 0 0 0 0 0
3 6 6 13 23 29 35 45 45 45 39 45 42 32 26 10 10 10 13 6 3 3 0 0 0 0 0 0 0 0 0 0 0 0 0 0 0 0 0 0 0 0 0
6 3 6 10 10 19 32 32 42 39 26 29 39 26 23 23 10 13 10 10 3 3 3 0 3 3 0 0 0 0 0 0 0 0 0 0 0 0 0 0 0 0 0
0 6 6 6 6 16 19 23 23 32 29 32 29 26 29 26 23 13 13 6 6 3 3 3 3 0 0 0 0 0 0 0 0 0 0 0 0 0 0 0 0 0 0
3 0 3 3 6 6 16 19 13 16 19 16 16 19 19 23 19 13 13 10 0 0 6 3 3 0 0 0 0 0 0 0 0 0 0 0 0 0 0 0 0 0 0
3 3 0 0 3 10 10 13 10 6 10 6 6 10 16 19 16 6 6 3 0 0 6 3 0 3 3 0 0 0 0 0 0 0 0 0 0 0 0 0 0 0 0
0 3 0 0 0 0 3 6 6 6 6 10 6 10 13 16 13 13 10 3 0 0 0 0 0 0 0 0 0 0 0 0 0 0 0 0 0 0 0 0 0 0 0
3 0 0 0 0 0 0 3 3 3 3 0 0 6 6 10 3 6 6 3 0 0 0 0 0 0 0 0 0 0 0 0 0 0 0 0 0 0 0 0 0 0 0
3 0 0 0 0 0 0 0 0 0 0 3 3 3 3 3 3 3 3 3 0 0 0 0 0 0 0 0 0 0 0 0 0 0 0 0 0 0 0 0 0 0 0
0 0 0 0 0 0 0 0 0 0 0 0 0 3 3 3 3 3 3 3 0 0 0 0 0 0 0 0 0 0 0 0 0 0 0 0 0 0 0 0 0 0 0
0 0 0 0 0 0 0 0 0 0 0 0 0 0 0 0 3 0 0 0 0 0 0 0 0 0 0 0 0 0 0 0 0 0 0 0 0 0 0 0 0 0 0
0 0 0 0 0 0 0 0 0 0 0 0 0 0 0 0 0 0 0 0 0 0 0 0 0 0 0 0 0 0 0 0 0 0 0 0 0 0 0 0 0 0 0

GEFSMW_con_cape1000_108.txt.gz
Probability
26 26 26 29 23 23 16 19 19 23 19 16 16 16 16 13 13 6 6 3 0 0 0 0 0 0 0 0 0 0 0 0 0 0 0 0 0 0 0 0 0 0 0
19 16 23 23 23 16 16 16 16 19 23 19 13 3 6 10 10 6 3 3 0 0 0 0 0 0 0 0 0 0 0 0 0 0 0 0 0 0 0 0 0 0 0
19 19 13 16 19 19 19 19 16 19 16 13 3 3 3 3 3 6 3 3 3 0 0 0 0 0 0 0 0 0 0 0 0 0 0 0 0 0 0 0 0 0 0
19 19 13 10 13 19 19 19 13 19 16 13 10 3 3 3 3 3 3 3 3 0 0 0 0 0 0 0 0 0 0 0 0 0 0 0 0 0 0 0 0 0 0
16 16 10 13 6 10 16 16 16 13 13 10 10 6 3 3 3 3 3 3 3 0 3 0 0 0 0 0 0 0 0 0 0 0 0 0 0 0 0 0 0 0 0
16 13 13 6 6 10 10 19 19 16 10 13 10 10 3 3 3 3 3 3 3 0 3 3 0 0 0 0 0 0 0 0 0 0 0 0 0 0 0 0 0 0 0
10 10 10 6 6 6 10 16 16 16 10 13 13 13 3 3 3 3 3 3 3 0 3 3 0 0 0 0 0 0 0 0 0 0 0 0 0 0 0 0 0 0 0
6 6 10 10 10 10 16 19 16 16 10 10 13 10 6 3 3 3 3 3 3 3 0 3 0 0 0 0 0 0 0 0 0 0 0 0 0 0 0 0 0 0 0
3 6 6 6 6 10 13 13 16 13 10 13 13 16 6 3 3 3 3 3 3 3 3 3 0 0 0 0 0 0 0 0 0 0 0 0 0 0 0 0 0 0 0
0 0 3 3 6 10 16 16 16 16 13 13 13 13 3 3 3 3 3 3 3 3 0 3 0 0 0 0 0 0 0 0 0 0 0 0 0 0 0 0 0 0 0
0 0 0 0 3 6 13 16 16 16 13 13 10 10 3 3 3 3 3 3 3 0 3 3 0 0 0 0 0 0 0 0 0 0 0 0 0 0 0 0 0 0 0
0 0 0 0 0 3 13 13 19 16 16 16 10 10 3 0 0 0 3 0 0 0 0 0 0 0 0 0 0 0 0 0 0 0 0 0 0 0 0 0 0 0 0
0 0 0 0 3 3 10 13 16 19 16 13 13 10 0 0 0 0 0 0 0 0 0 0 0 0 0 0 0 0 0 0 0 0 0 0 0 0 0 0 0 0 0
0 0 0 3 6 6 6 13 19 16 13 13 16 13 0 0 3 3 3 3 3 0 0 0 0 0 0 0 0 0 0 0 0 0 0 0 0 0 0 0 0 0 0
0 0 0 0 6 10 10 13 13 13 10 13 10 13 6 0 0 3 3 3 3 3 0 0 0 0 0 0 0 0 0 0 0 0 0 0 0 0 0 0 0 0 0
0 0 0 0 0 10 13 13 16 10 13 16 16 10 6 3 0 3 3 3 3 3 0 0 0 0 0 0 0 0 0 0 0 0 0 0 0 0 0 0 0 0 0
0 0 0 0 0 0 13 10 6 10 13 16 19 13 6 6 10 6 3 3 3 0 0 0 0 0 0 0 0 0 0 0 0 0 0 0 0 0 0 0 0 0 0
0 0 0 0 3 3 6 6 3 10 13 23 23 16 13 10 6 6 3 0 0 0 0 0 0 0 0 0 0 0 0 0 0 0 0 0 0 0 0 0 0 0 0
0 0 0 0 3 3 3 3 3 10 13 16 13 13 13 13 6 13 3 3 0 0 0 0 0 0 0 0 0 0 0 0 0 0 0 0 0 0 0 0 0 0 0
0 0 3 3 3 3 3 3 6 6 0 3 3 10 13 13 6 6 3 0 0 0 0 0 0 0 0 0 0 0 0 0 0 0 0 0 0 0 0 0 0 0 0
0 0 0 3 3 0 3 3 3 0 0 0 3 3 3 3 3 3 3 0 0 0 0 0 0 0 0 0 0 0 0 0 0 0 0 0 0 0 0 0 0 0 0
0 0 0 0 0 0 0 0 0 0 0 0 0 0 0 3 3 3 3 3 3 0 0 0 0 0 0 0 0 0 0 0 0 0 0 0 0 0 0 0 0 0 0
0 0 0 0 0 0 0 0 0 0 0 0 0 0 0 0 0 3 3 3 3 0 0 0 0 0 0 0 0 0 0 0 0 0 0 0 0 0 0 0 0 0 0
0 0 0 0 0 0 0 0 0 0 0 0 0 0 0 0 0 0 0 3 3 0 0 0 0 0 0 0 0 0 0 0 0 0 0 0 0 0 0 0 0 0 0
0 0 0 0 0 0 0 0 0 0 0 0 0 0 0 0 0 0 0 0 0 0 0 0 0 0 0 0 0 0 0 0 0 0 0 0 0 0 0 0 0 0 0
0 0 0 0 0 0 0 0 0 0 0 0 0 0 0 0 0 0 0 0 0 0 0 0 0 0 0 0 0 0 0 0 0 0 0 0 0 0 0 0 0 0 0

GEFSMW_con_cape1000_114.txt.gz
Probability
65 61 65 55 55 55 58 65 61 65 68 74 81 77 81 77 68 68 65 52 45 39 35 26 39 26 19 16 10 10 6 6 6 3 10 6 0 3 6 6 6 6 10
61 61 58 48 45 45 52 52 58 65 65 71 71 71 68 61 65 55 61 52 45 42 35 35 26 29 29 16 13 13 10 6 3 0 3 3 3 3 0 6 10 6 6
55 52 52 45 35 48 48 35 58 58 55 61 55 55 58 52 45 58 55 39 35 39 32 29 26 26 19 16 13 10 3 6 0 0 0 0 3 6 0 0 0 3 6
55 48 48 48 42 45 42 42 58 55 55 55 55 55 55 48 52 55 52 35 35 35 29 26 26 29 13 13 13 3 3 3 0 0 0 0 3 0 0 0 0 0 3
45 48 48 48 42 42 35 42 48 52 68 58 55 58 55 58 55 48 48 39 32 35 32 26 29 29 19 13 13 13 0 0 0 0 0 0 0 0 0 0 0 0 0
42 48 52 52 42 39 39 39 45 61 65 58 58 65 58 58 48 52 48 42 35 32 32 29 29 23 23 23 23 19 10 0 0 0 0 0 0 3 3 3 0 0 0
48 52 48 45 39 45 42 39 52 58 55 55 55 55 61 55 52 45 52 39 32 35 39 26 32 26 23 23 23 26 10 6 6 6 0 0 0 0 3 3 3 0 0
45 48 45 45 45 42 48 48 58 65 61 61 61 61 61 52 45 48 42 35 29 32 39 35 32 23 23 16 23 6 6 10 6 3 3 6 0 0 0 0 0 0 0
42 45 45 39 35 39 48 45 55 55 52 48 58 61 61 55 48 48 52 39 48 29 35 32 32 32 26 23 23 16 13 10 10 3 6 6 3 3 3 3 3 0 0
32 42 35 29 29 42 48 42 45 58 52 48 52 45 55 58 55 48 48 55 55 45 35 32 35 32 26 26 29 16 13 13 10 10 3 3 3 3 3 3 3 6 3
42 39 39 26 29 29 39 45 45 55 52 52 58 55 55 52 45 48 45 55 58 55 45 35 29 32 26 29 32 16 13 13 13 13 6 10 10 3 3 0 0 0 3
45 45 52 39 35 32 39 42 39 48 48 55 58 58 65 58 52 48 45 55 52 52 58 42 35 39 35 42 39 29 16 13 16 16 13 13 3 10 0 6 3 3 3
58 52 52 58 42 42 42 48 48 45 48 55 61 61 65 58 61 55 55 61 58 58 55 52 52 42 39 39 45 35 29 16 10 10 10 6 10 19 10 10 6 6 0
74 68 68 68 61 61 55 55 52 45 52 61 61 61 68 61 65 65 68 65 55 55 55 52 45 48 39 42 39 39 29 26 19 19 19 6 6 10 13 3 10 0 6
74 74 71 68 68 68 74 71 65 68 61 68 61 71 74 77 68 65 68 61 58 48 58 55 55 55 48 32 39 42 39 35 29 23 16 13 6 3 3 0 10 6 10
65 65 74 68 74 77 74 77 74 71 71 71 71 71 71 71 68 65 65 65 68 61 61 61 58 55 16 3 0 10 35 35 29 29 26 13 6 0 0 0 0 0 0
65 61 61 71 71 65 65 65 65 68 65 65 68 65 68 68 68 65 71 71 68 68 65 58 45 42 26 3 0 0 6 26 26 32 32 13 0 0 3 0 0 0 0
58 55 58 65 65 65 68 65 65 65 58 65 58 61 71 65 61 61 65 65 65 58 55 52 45 52 29 3 0 0 0 6 13 16 16 19 16 0 0 3 3 3 3
42 45 52 48 52 55 58 61 52 55 55 58 52 55 58 74 71 68 61 58 58 58 52 48 48 45 32 3 0 0 3 3 6 10 10 10 6 0 0 0 0 0 3
35 35 35 42 45 48 48 52 48 45 42 42 45 42 48 48 61 61 61 55 55 48 48 39 39 39 23 3 0 0 0 0 3 6 3 0 0 0 0 0 3 3 3
26 29 29 29 29 39 42 35 35 32 26 29 32 39 35 35 32 39 45 42 42 32 32 32 26 23 19 3 0 0 0 0 3 3 6 3 0 0 0 0 0 0 0
13 19 23 26 29 29 29 32 23 29 26 23 23 19 19 16 16 26 26 26 19 19 19 13 13 13 10 0 0 0 0 0 0 0 0 0 0 0 0 0 0 0 0
10 10 13 13 13 16 23 19 16 19 19 19 19 19 16 16 16 13 16 13 16 13 13 13 6 3 3 0 0 0 0 0 0 0 0 0 0 0 0 0 0 0 0
6 6 6 6 6 10 10 10 16 16 19 16 13 10 6 6 10 10 6 3 0 3 3 3 3 3 3 0 0 0 0 0 0 0 0 0 0 0 0 0 0 0 0
0 0 3 3 3 3 6 10 6 6 6 10 10 6 3 3 0 0 0 0 0 0 0 0 3 6 6 0 0 0 0 0 0 0 0 0 0 0 0 0 0 0 0
0 0 0 0 0 3 6 3 6 6 0 0 0 0 0 0 0 0 0 0 0 0 0 0 0 0 0 0 0 0 0 0 0 0 0 0 0 0 0 0 0 0 0

GEFSMW_con_cape1000_120.txt.gz
Probability
77 77 74 68 68 65 68 71 61 61 71 71 68 68 71 74 74 77 77 71 65 61 61 48 48 45 48 45 29 29 19 19 23 19 23 23 23 26 35 26 23 10 19
74 77 77 68 68 61 71 74 68 61 68 71 68 68 71 71 71 77 84 71 68 58 39 52 48 42 55 32 26 32 39 19 23 13 10 6 6 19 0 23 13 6 16
68 71 68 68 65 68 68 61 68 71 68 68 61 61 71 68 61 68 74 68 61 55 52 48 42 42 35 29 29 26 16 16 16 16 19 13 3 3 13 13 6 13 10
61 61 71 65 68 65 65 68 68 61 68 58 61 61 58 55 55 55 68 65 58 52 42 42 45 45 35 35 23 23 26 29 32 23 16 16 29 10 13 10 13 16 3
71 65 65 65 58 65 68 68 65 65 58 58 61 65 61 55 48 61 58 61 65 45 39 39 42 39 35 42 35 42 29 35 35 32 13 13 19 10 10 0 0 10 3
61 58 52 58 55 61 61 61 61 58 55 61 65 65 55 65 55 58 58 58 55 45 39 39 42 42 39 35 29 29 26 29 39 35 39 13 10 10 10 6 3 3 3
68 58 55 58 61 65 58 58 61 61 58 61 61 68 71 74 74 61 52 45 55 52 55 42 48 45 42 39 26 32 26 29 29 19 32 29 13 6 10 6 0 3 0
65 61 55 61 65 61 58 55 58 68 65 68 65 68 74 68 65 58 48 45 45 42 52 52 48 42 35 29 32 29 29 29 29 16 26 29 16 10 10 10 6 3 0
65 55 58 61 55 58 58 55 58 61 61 58 61 55 61 55 58 61 52 55 61 52 52 48 45 45 42 35 42 29 35 32 26 23 19 19 19 10 10 10 13 6 3
65 58 58 55 61 61 65 58 58 58 61 55 45 42 65 61 68 58 61 65 61 61 61 61 55 48 45 48 42 29 32 32 35 39 29 23 13 29 6 10 3 3 3
58 61 61 61 61 58 55 55 58 58 58 55 55 55 55 61 65 61 71 68 74 68 55 58 58 58 52 45 52 42 45 32 29 29 26 26 23 26 29 19 13 13 10
55 58 68 65 58 58 61 58 52 52 55 52 52 52 55 58 61 61 65 68 71 74 71 58 61 55 52 48 55 52 42 39 39 32 29 29 16 29 23 16 19 23 23
68 68 77 71 65 58 61 61 61 52 48 45 48 55 55 52 58 65 68 68 68 65 71 68 71 65 58 61 58 52 52 52 42 39 35 32 23 29 35 29 10 19 6
81 74 77 74 71 74 68 65 65 55 52 52 48 52 55 55 55 58 65 65 68 65 58 68 65 61 61 52 55 52 52 52 48 45 45 35 26 23 29 19 26 16 13
81 81 81 74 74 74 74 68 61 61 58 58 55 58 58 61 61 61 61 65 65 55 61 65 68 68 48 35 42 52 42 48 45 45 39 29 19 13 13 6 13 10 10
74 81 81 81 81 81 74 74 71 71 71 71 61 65 68 65 65 65 71 68 68 68 68 61 55 48 32 10 3 29 39 42 42 42 39 39 16 3 0 0 0 0 3
81 81 81 84 84 81 77 77 77 81 77 74 71 71 71 65 68 65 71 68 71 71 65 55 52 52 35 6 0 0 26 39 39 35 42 16 10 3 3 0 0 0 0
74 77 77 77 84 84 84 81 84 84 81 74 71 71 71 65 65 71 74 71 71 68 58 55 58 52 35 13 0 0 6 26 32 29 26 23 23 3 3 10 0 0 0
65 68 68 74 77 74 77 77 74 77 74 71 65 65 65 65 61 61 65 65 61 61 55 52 52 48 35 6 0 0 6 23 23 26 16 19 19 3 0 0 3 0 0
45 58 58 55 55 65 68 68 61 65 65 58 55 58 61 58 58 52 52 52 61 55 55 45 39 35 35 10 0 0 6 16 16 19 10 3 3 0 0 0 0 0 0
42 48 48 48 48 52 52 45 45 39 42 39 42 52 52 48 48 52 48 52 42 42 39 35 35 26 23 10 0 0 0 6 10 13 10 6 0 0 0 0 0 0 0
26 29 39 39 45 45 42 39 39 39 35 35 35 35 35 32 32 39 35 35 35 35 29 23 26 26 13 3 0 0 0 0 0 0 0 0 0 0 0 0 0 0 0
19 19 19 19 26 32 32 32 32 32 26 23 23 19 19 16 19 16 19 16 23 19 23 19 16 13 6 6 0 0 0 0 0 0 0 0 0 0 0 0 0 0 0
19 16 16 16 16 16 16 16 19 19 19 19 16 16 10 10 10 6 10 13 6 3 3 6 3 3 3 0 0 0 0 0 0 0 0 0 0 0 0 0 0 0 0
10 10 13 13 10 10 16 16 16 13 10 10 10 6 3 0 0 0 0 0 0 0 0 0 0 0 3 0 0 0 0 0 0 0 0 0 0 0 0 0 0 0 0
6 6 10 10 10 10 10 10 10 13 13 6 6 3 0 0 0 0 0 0 0 0 0 0 0 0 0 0 0 0 0 0 0 0 0 0 0 0 0 0 0 0 0

GEFSMW_con_cape1000_126.txt.gz
Probability
55 48 55 52 42 35 32 32 32 29 19 13 13 16 13 13 10 10 16 13 29 16 3 6 3 0 0 0 0 0 0 0 0 0 0 0 0 0 0 0 0 0 0
55 48 55 52 45 39 32 32 29 29 19 10 10 16 10 10 6 13 19 16 23 13 13 3 3 0 0 0 0 0 0 0 0 0 0 0 0 0 0 0 0 0 0
55 55 55 52 39 45 32 32 32 29 19 10 10 19 6 6 6 10 6 16 19 13 10 0 0 0 0 0 0 0 0 0 0 0 0 0 0 0 0 0 0 0 0
55 48 45 48 48 45 35 26 29 32 26 16 16 16 13 6 6 6 10 10 13 10 3 0 0 0 0 0 0 0 0 0 0 0 0 0 0 0 0 0 0 0 0
55 48 48 45 42 39 39 32 29 23 19 16 13 10 6 6 3 6 10 10 6 6 3 0 0 0 0 0 0 0 0 0 0 0 0 0 0 0 0 0 0 0 0
48 45 42 39 39 39 26 32 32 29 29 19 16 13 6 6 6 6 10 10 6 6 6 3 3 0 0 0 0 0 0 0 0 0 0 0 0 0 0 0 0 0 0
42 42 35 26 29 32 23 29 32 32 32 29 19 10 3 3 3 0 3 6 3 6 6 3 3 3 0 0 0 0 0 0 0 0 0 0 0 0 0 0 0 0 0
32 42 32 23 19 19 16 26 29 23 19 19 13 10 6 3 3 3 0 0 3 3 3 0 3 3 3 3 0 0 0 0 0 0 0 0 0 0 0 0 0 0 0
26 32 23 26 23 23 16 16 19 23 19 19 13 10 10 3 3 3 0 0 0 0 0 0 0 0 3 3 3 3 0 0 0 0 0 0 0 0 0 0 0 0 0
23 19 26 26 13 13 16 19 16 16 16 16 16 19 10 10 3 3 3 0 0 3 3 0 0 0 0 3 3 3 0 0 0 0 0 0 0 0 0 0 0 0 0
23 26 23 26 23 23 16 23 19 13 13 13 16 16 13 13 10 10 6 6 3 3 3 3 0 0 3 3 3 3 3 0 0 0 0 0 0 0 0 0 0 0 0
23 19 19 16 16 26 26 16 19 19 19 19 19 16 16 13 10 10 10 6 6 3 3 6 0 0 0 0 0 3 3 0 0 0 0 0 0 0 0 0 0 0 0
16 10 23 19 13 23 23 23 23 23 23 23 23 19 19 10 10 10 10 10 6 6 3 0 3 0 0 0 0 3 3 0 0 0 0 0 0 0 0 0 0 0 0
16 16 19 23 16 26 26 26 16 23 23 23 19 19 19 13 13 10 16 16 10 10 6 3 3 0 0 0 0 0 0 0 0 0 0 0 0 0 0 0 0 0 0
16 16 16 23 23 16 23 29 19 13 13 16 23 19 19 16 16 19 19 19 16 19 13 13 6 3 3 0 0 0 0 0 0 0 0 0 0 0 0 0 0 0 0
26 23 23 29 29 29 26 32 26 23 23 19 19 23 19 16 23 23 23 23 16 13 13 13 10 10 10 6 0 0 3 0 0 0 0 0 0 0 0 0 0 0 0
32 19 29 29 29 26 29 32 29 23 23 23 19 19 23 23 23 26 19 16 16 13 13 13 6 6 10 0 0 0 0 0 0 0 0 0 0 0 0 0 0 0 0
26 16 19 19 26 23 26 26 26 29 19 16 23 19 23 23 26 16 19 16 16 13 10 10 10 6 6 0 0 0 0 0 0 0 3 3 0 0 0 0 0 0 0
16 13 16 23 19 23 23 23 23 26 16 16 19 19 19 19 13 10 10 10 13 13 16 13 10 6 10 0 0 0 0 0 0 0 0 3 3 0 0 0 0 0 0
19 19 16 19 19 19 26 29 23 23 26 26 23 19 19 13 16 13 13 10 10 6 6 6 6 3 3 3 0 0 0 0 0 0 0 0 0 0 0 0 0 0 0
10 10 6 10 13 19 23 23 16 19 19 16 13 10 10 16 16 6 6 6 3 3 3 0 0 0 3 3 0 0 0 0 0 0 0 0 0 0 0 0 0 0 0
3 10 10 6 6 10 19 16 13 10 6 3 6 6 6 10 3 0 0 3 3 0 0 0 3 0 0 0 0 0 0 0 0 0 0 0 0 0 0 0 0 0 0
3 10 10 10 6 6 10 10 6 6 6 0 0 0 3 0 0 0 0 0 0 0 0 0 0 0 0 0 0 0 0 0 0 0 0 0 0 0 0 0 0 0 0
6 6 10 10 10 10 6 3 3 3 3 3 3 3 3 3 0 0 0 0 0 0 0 0 0 0 0 0 0 0 0 0 0 0 0 0 0 0 0 0 0 0 0
3 6 10 10 10 6 3 3 3 3 3 0 0 0 0 0 0 3 3 3 3 3 0 0 0 0 0 0 0 0 0 0 0 0 0 0 0 0 0 0 0 0 0
0 0 0 3 3 6 3 3 3 3 3 3 0 0 0 0 0 0 0 0 0 0 0 0 0 0 0 0 0 0 0 0 0 0 0 0 0 0 0 0 0 0 0

GEFSMW_con_cape1000_132.txt.gz
Probability
39 52 48 42 32 19 19 16 19 10 10 13 10 10 6 3 3 6 6 6 0 0 0 0 0 0 0 0 0 0 0 0 0 0 0 0 0 0 0 0 0 3 3
42 45 32 32 32 23 16 13 10 10 13 10 6 6 6 3 3 6 10 6 0 0 0 0 0 0 0 0 0 0 0 0 0 0 0 0 0 0 0 0 0 0 0
35 42 39 35 29 19 16 16 10 10 10 3 3 3 3 0 0 0 0 3 0 0 0 0 0 0 0 0 0 0 0 0 0 0 0 0 0 0 0 0 0 0 0
45 32 39 32 32 19 16 6 10 10 10 0 3 3 3 6 6 3 3 3 6 3 3 0 0 0 0 0 0 0 0 0 0 0 0 0 0 0 0 0 0 0 0
42 45 39 32 26 16 16 13 10 10 6 0 3 3 3 3 3 0 3 3 3 3 3 3 0 0 0 0 0 0 0 0 0 0 0 0 0 0 0 0 0 0 0
42 35 35 29 29 16 13 19 16 10 3 6 3 3 3 0 0 0 3 3 0 0 3 3 0 0 0 0 0 0 0 0 0 0 0 0 0 0 0 0 0 0 0
42 39 35 29 29 26 19 23 16 13 6 6 3 0 0 0 0 3 3 3 0 0 0 0 0 0 0 0 0 0 0 0 0 0 0 0 0 0 0 0 0 0 0
45 42 39 29 26 26 16 16 16 13 10 6 6 3 0 0 0 0 3 3 3 0 0 0 0 0 0 0 0 0 0 0 0 0 0 0 0 0 0 0 0 0 0
26 35 26 23 23 23 13 16 13 16 13 10 6 6 3 0 0 3 0 3 0 0 0 0 0 0 0 0 0 0 0 0 0 0 0 0 0 0 0 0 0 0 0
23 19 13 16 16 16 13 13 10 10 10 6 6 6 6 3 3 3 3 0 0 0 0 0 0 0 0 0 0 0 0 0 0 0 0 0 0 0 0 0 0 0 0
19 19 13 10 10 6 13 10 10 10 6 6 6 6 6 6 3 3 3 0 0 0 0 0 0 0 0 0 0 0 0 0 0 0 0 0 0 0 0 0 0 0 0
23 19 13 6 3 10 6 3 6 6 10 10 6 6 6 6 6 3 3 3 3 0 0 0 0 0 0 0 0 0 0 0 0 0 0 0 0 0 0 0 0 0 0
19 19 10 10 6 6 6 6 3 6 6 16 13 6 6 6 6 6 3 3 3 3 3 0 0 0 0 0 0 0 0 0 0 0 0 0 0 0 0 0 0 0 0
16 19 6 3 3 3 6 6 6 3 3 6 13 10 10 6 6 6 3 3 3 3 3 3 3 0 0 0 0 0 0 0 0 0 0 0 0 0 0 0 0 0 0
10 6 3 3 3 3 3 3 6 6 6 3 10 13 10 10 10 10 10 3 3 3 3 3 3 3 0 0 0 0 0 0 0 0 0 0 0 0 0 0 0 0 0
6 3 3 3 3 3 3 3 6 3 3 6 6 10 13 10 10 13 10 10 6 3 3 3 0 0 0 0 0 0 0 0 0 0 0 0 0 0 0 0 0 0 0
6 0 0 3 3 3 3 3 6 6 3 6 13 13 10 10 13 10 10 6 6 3 3 3 3 3 0 0 0 0 0 0 0 0 0 0 0 0 0 0 0 0 0
3 0 0 0 0 0 3 3 3 3 6 6 6 13 10 13 13 13 10 6 6 3 3 3 3 3 0 0 0 0 0 0 0 0 0 0 0 0 0 0 0 0 0
3 3 3 3 3 3 3 6 10 6 3 3 6 10 10 10 10 10 6 6 6 3 3 3 3 3 3 0 0 0 0 0 0 0 0 0 0 0 0 0 0 0 0
3 3 3 0 0 3 3 6 13 6 6 6 6 10 10 10 10 6 6 3 6 3 3 0 0 0 0 0 0 0 0 0 0 0 0 0 0 0 0 0 0 0 0
3 3 3 0 0 3 3 6 10 10 6 6 6 10 10 6 6 6 3 3 0 0 0 0 0 0 0 0 0 0 0 0 0 0 0 0 0 0 0 0 0 0 0
3 3 3 0 3 3 6 6 6 6 6 6 10 6 6 6 6 6 3 0 0 0 0 0 0 0 0 0 0 0 0 0 0 0 0 0 0 0 0 0 0 0 0
0 3 3 0 3 3 3 6 3 3 0 6 6 3 3 3 6 6 0 0 0 0 0 0 0 0 0 0 0 0 0 0 0 0 0 0 0 0 0 0 0 0 0
0 0 0 0 3 0 0 0 0 0 3 0 0 3 3 3 3 0 0 0 0 0 0 0 0 0 0 0 0 0 0 0 0 0 0 0 0 0 0 0 0 0 0
0 0 0 0 0 0 0 0 0 0 0 0 0 0 0 0 0 0 0 0 0 0 0 0 0 0 0 0 0 0 0 0 0 0 0 0 0 0 0 0 0 0 0
0 3 0 0 0 0 0 0 0 0 0 0 0 0 0 0 0 0 0 0 0 0 0 0 0 0 0 0 0 0 0 0 0 0 0 0 0 0 0 0 0 0 0

GEFSMW_con_cape1000_138.txt.gz
Probability
90 90 84 77 71 71 74 71 71 65 61 61 52 45 58 65 58 65 61 68 65 68 65 55 71 58 48 48 39 29 35 35 29 13 19 6 3 13 19 13 6 3 10
87 84 81 74 65 68 65 74 65 58 61 58 65 61 58 48 58 55 61 55 55 65 52 65 58 55 55 52 48 39 35 19 26 16 16 16 16 10 0 13 13 3 6
90 87 84 74 65 65 65 52 55 52 58 55 58 48 58 55 45 55 55 48 45 55 55 61 55 61 39 45 45 42 39 23 13 10 16 10 19 16 6 0 6 13 6
84 84 81 71 71 68 55 58 55 55 52 55 48 39 42 32 48 52 55 52 52 55 55 61 61 48 35 48 35 35 35 35 19 16 16 6 10 3 6 6 3 3 10
71 84 74 74 61 61 55 52 52 52 48 52 48 55 39 42 35 45 55 58 55 58 61 61 58 52 35 39 39 35 35 29 19 16 10 6 3 3 6 10 3 0 0
61 68 71 68 65 61 58 52 48 42 42 42 42 58 48 48 48 55 58 58 61 65 58 58 61 58 45 45 48 42 39 35 23 29 16 13 6 6 3 3 6 0 0
65 71 71 71 68 61 61 55 45 39 39 39 42 52 48 55 55 52 58 52 52 61 65 52 65 55 55 48 45 45 32 32 39 32 23 13 10 3 0 0 0 0 0
65 74 68 68 68 61 65 55 48 48 42 45 42 55 58 45 48 58 45 48 52 52 55 58 55 52 45 35 45 39 42 39 39 23 32 26 10 0 3 0 6 0 0
65 65 61 61 61 58 58 58 48 42 45 39 39 45 45 45 45 55 52 39 52 45 45 58 61 45 42 35 42 42 39 29 32 32 39 26 19 6 0 3 3 3 3
68 65 58 61 61 58 61 55 55 45 42 42 39 29 42 45 39 48 52 42 39 48 48 55 48 42 39 35 42 39 39 35 29 35 29 39 19 16 10 10 10 10 6
61 61 55 58 55 52 52 52 55 52 42 39 42 42 52 45 35 48 48 52 52 55 48 58 55 48 42 42 39 32 26 32 32 26 19 29 26 19 16 10 10 6 10
65 61 45 48 45 42 42 45 48 55 45 48 48 52 55 52 45 45 45 58 61 61 52 55 52 45 35 39 35 29 26 26 26 23 19 13 23 29 19 16 6 10 3
68 71 55 52 48 42 39 39 39 45 48 48 48 48 55 52 55 48 52 55 58 48 52 55 48 45 42 35 32 26 19 19 19 23 19 16 13 23 23 19 6 10 3
77 74 65 58 48 48 45 35 35 32 29 45 52 52 48 52 52 45 45 45 48 52 55 55 45 45 39 35 29 26 23 23 23 23 19 16 16 23 23 19 23 16 19
81 77 65 58 55 55 48 39 35 39 39 35 42 48 52 55 52 45 42 45 45 42 48 45 39 42 35 29 32 35 19 29 19 19 23 19 6 0 3 0 13 16 13
81 81 68 61 55 48 48 48 42 48 42 39 39 39 42 42 45 45 45 48 45 39 42 35 29 26 13 0 0 19 35 26 23 23 23 13 3 0 0 0 0 0 0
61 65 61 61 61 48 45 52 52 42 35 35 35 42 42 39 42 32 39 35 48 48 48 35 32 26 19 0 0 0 13 23 19 23 23 6 0 0 3 0 0 0 0
58 58 58 48 48 45 35 45 45 45 42 48 45 42 35 35 29 29 35 45 42 45 42 39 29 23 16 0 0 0 3 13 16 16 13 19 16 6 6 6 3 3 3
48 48 48 45 42 45 45 45 42 39 35 32 35 35 35 32 35 35 42 45 42 39 35 35 29 23 16 0 0 0 3 6 10 10 3 6 6 0 0 0 3 3 3
42 48 42 42 45 42 39 45 42 42 35 32 32 39 39 32 32 32 32 39 32 29 26 19 19 16 10 0 0 0 3 10 10 6 6 0 0 0 0 0 3 3 3
32 32 39 45 42 42 52 45 39 39 29 32 29 26 32 35 35 32 29 35 29 23 23 16 10 6 3 0 0 0 6 3 6 6 3 3 0 0 0 0 0 0 0
32 32 32 35 32 35 35 39 35 29 29 35 32 29 29 32 29 32 29 26 26 19 16 6 6 6 6 0 0 0 0 0 3 0 3 3 0 0 0 0 0 0 0
23 23 19 23 26 23 29 23 23 29 29 26 29 26 26 23 19 19 19 23 19 13 6 3 6 6 3 0 0 0 0 0 0 0 0 0 0 0 0 0 0 0 0
13 10 10 6 10 13 13 16 16 19 26 23 26 26 19 16 10 6 6 10 10 10 6 3 3 3 3 0 0 0 0 0 0 0 0 0 0 0 0 0 0 0 0
6 3 3 10 10 10 10 10 13 19 16 19 16 19 13 10 3 3 3 3 3 3 3 6 3 3 0 0 0 0 0 0 0 0 0 0 0 0 0 0 0 0 0
3 6 6 6 10 6 6 6 10 10 13 10 10 3 3 6 6 6 3 0 3 0 0 3 3 3 0 0 0 0 0 0 0 0 0 0 0 0 0 0 0 0 0

GEFSMW_con_cape1000_144.txt.gz
Probability
94 90 90 87 90 90 84 84 84 84 77 74 65 68 68 74 65 74 81 84 94 94 97 94 87 74 77 74 74 77 74 81 84 65 58 55 45 55 74 55 45 39 45
97 90 90 90 94 90 87 87 87 84 77 77 71 68 77 71 68 74 71 74 90 84 65 81 77 71 81 71 77 74 74 71 68 74 48 32 42 58 23 65 55 42 58
94 94 87 90 90 94 84 84 84 87 77 74 68 65 71 77 74 71 84 77 71 77 74 77 77 74 81 74 71 81 68 55 65 55 42 23 10 23 26 32 19 48 42
90 94 90 87 84 84 77 84 84 81 81 77 68 65 65 55 68 71 77 77 68 77 74 74 74 77 77 87 68 61 77 68 61 55 55 42 52 26 16 26 32 35 48
90 90 90 90 84 74 71 81 84 84 84 74 74 81 68 68 71 74 77 77 71 68 68 77 74 81 87 84 77 65 77 77 71 68 55 39 52 29 26 13 19 29 35
81 90 90 87 81 71 71 71 87 84 77 71 68 81 74 74 68 74 68 71 77 74 65 74 77 81 81 74 74 65 52 74 68 77 74 48 45 23 32 19 23 23 39
81 87 84 81 74 74 71 71 77 81 77 74 71 71 77 81 71 61 74 68 68 68 71 61 71 84 81 68 71 77 81 74 58 68 77 68 45 39 35 16 16 13 23
74 84 84 77 77 74 77 74 77 77 74 74 71 68 68 68 65 65 55 55 48 52 81 84 77 71 74 65 77 71 68 68 61 52 65 74 58 32 32 35 19 10 10
71 71 74 71 71 71 77 81 84 87 77 61 68 68 68 65 65 65 55 58 71 61 65 68 71 68 65 65 68 71 61 65 58 55 58 58 52 45 32 42 29 13 6
68 71 71 68 68 74 77 77 81 84 71 65 68 45 65 58 65 58 55 58 65 61 68 65 68 65 61 65 61 65 58 55 55 68 65 61 35 35 45 39 26 23 10
68 74 74 68 65 65 77 81 74 71 68 71 68 65 65 65 61 55 52 55 61 58 58 58 65 58 58 55 61 45 45 42 48 48 42 45 39 26 32 32 26 26 26
65 68 71 65 65 61 65 77 71 71 61 58 68 65 71 71 61 55 55 58 58 61 58 58 58 52 45 52 48 48 39 39 32 32 29 35 23 26 26 26 23 19 23
77 77 71 68 68 61 74 74 68 71 61 58 65 65 68 71 71 61 58 52 52 52 45 52 55 52 55 45 48 52 39 35 32 32 35 23 19 19 26 32 23 23 13
84 84 77 77 74 81 77 74 68 61 58 61 68 68 68 71 71 68 68 58 61 61 55 58 58 55 45 45 52 45 39 32 35 35 23 19 19 16 19 19 26 26 26
77 81 84 84 81 81 74 68 68 61 61 61 68 68 71 74 71 71 65 68 65 55 55 48 48 45 42 39 35 35 35 29 29 23 23 26 16 13 13 6 13 16 19
71 77 81 81 81 77 71 71 68 74 71 65 65 65 65 61 58 48 52 52 52 52 45 42 39 39 26 6 3 19 23 23 26 29 26 16 16 3 3 0 0 0 3
74 77 77 77 81 81 81 71 71 71 68 68 61 61 52 52 55 42 48 52 55 55 48 45 39 35 29 6 0 0 13 29 29 26 26 6 3 0 3 0 0 0 0
77 77 77 77 77 77 77 71 68 71 68 61 58 48 52 52 52 52 45 45 45 42 42 32 35 32 23 3 0 0 3 16 19 16 19 16 6 0 0 0 0 0 0
68 65 65 68 71 74 68 74 68 68 58 52 52 48 52 45 48 39 45 45 45 42 39 35 32 29 19 3 0 0 3 10 13 13 13 16 6 0 0 0 0 0 0
58 58 61 61 61 65 68 68 65 61 48 48 52 48 45 42 35 35 39 42 42 35 32 32 29 23 19 6 0 0 3 10 10 10 6 0 0 0 0 0 0 0 0
45 52 58 58 61 58 61 61 55 48 45 45 39 35 29 32 26 32 32 35 35 29 26 23 23 16 10 6 0 0 3 13 6 3 3 0 0 0 0 0 0 0 0
42 42 52 52 48 45 48 48 45 39 35 32 29 26 23 23 23 26 32 32 26 19 19 19 16 13 10 6 0 0 0 3 3 3 0 0 0 0 0 0 0 0 0
32 39 39 42 39 42 35 32 32 32 29 29 26 26 16 13 19 19 19 19 19 19 19 16 10 3 6 3 0 0 0 0 0 3 0 0 0 0 0 0 0 0 0
32 32 32 35 29 29 26 23 13 16 19 19 16 16 13 13 13 10 10 10 10 13 6 3 3 3 6 3 3 0 0 0 0 0 0 0 0 0 0 0 0 0 0
26 26 26 26 23 19 13 13 13 16 19 16 16 13 13 13 6 0 3 3 3 3 0 0 0 0 0 3 3 0 0 0 0 0 0 0 0 0 0 0 0 0 0
23 19 16 13 13 13 13 10 13 16 19 10 10 6 6 3 3 3 3 0 0 0 0 0 0 0 0 0 0 0 0 0 0 0 0 0 0 0 0 0 0 0 0

GEFSMW_con_cape1000_150.txt.gz
Probability
74 77 77 74 61 55 55 55 52 52 42 39 39 29 16 16 13 13 19 10 10 13 10 13 3 0 0 0 0 0 0 0 0 0 0 0 0 0 0 0 0 3 3
81 74 74 77 71 65 58 58 52 48 39 32 32 19 13 13 13 13 13 6 13 3 6 3 3 3 0 0 3 0 0 0 0 0 0 0 0 0 0 0 0 0 0
77 81 74 65 74 68 55 52 45 42 35 29 29 23 13 16 16 13 10 13 16 10 6 6 3 3 0 0 3 0 0 0 0 0 0 0 0 0 0 0 0 0 0
74 74 74 65 68 61 58 48 42 45 39 32 29 19 16 10 6 6 10 6 6 6 6 3 3 3 3 3 0 0 0 0 0 0 0 0 0 0 0 0 0 0 0
74 77 77 68 61 65 58 52 42 42 45 35 23 23 16 10 6 6 10 10 6 6 3 6 3 3 3 3 3 0 0 0 0 0 0 0 0 0 0 0 0 0 0
77 81 77 68 68 68 68 55 52 39 39 35 29 23 13 6 6 6 6 10 10 6 6 6 3 3 3 3 3 0 0 0 0 0 0 0 0 0 0 0 0 0 0
74 74 68 68 65 68 68 65 45 39 39 32 26 26 16 6 6 6 6 6 10 10 6 6 3 3 3 3 3 0 3 0 0 0 0 0 0 0 0 0 0 0 0
61 65 74 68 65 61 65 55 52 45 42 32 23 19 16 16 10 6 6 3 3 6 3 3 3 3 3 3 3 3 3 0 0 0 0 0 0 0 0 0 0 0 0
58 68 65 65 65 65 55 52 45 42 42 32 23 23 16 13 13 10 3 10 3 3 3 3 3 3 3 3 3 3 3 0 0 0 0 0 0 0 0 0 0 0 0
58 61 61 61 58 61 52 42 45 45 35 29 23 26 19 16 13 10 10 6 6 10 6 6 6 6 6 6 6 3 3 3 0 0 0 0 0 0 0 0 0 0 0
52 55 58 55 48 48 48 42 35 32 35 23 19 23 23 23 19 16 16 10 10 13 10 6 6 10 6 6 3 3 3 3 3 0 0 0 0 0 0 0 0 0 0
42 45 45 42 42 42 42 39 35 35 26 23 19 19 19 23 23 26 19 16 13 10 10 3 6 10 10 6 6 6 3 6 3 3 0 0 0 0 0 0 0 0 0
39 42 45 42 42 42 35 39 35 35 29 23 23 23 19 23 19 16 13 16 13 10 3 6 6 6 6 6 6 6 10 6 6 6 3 0 0 0 0 0 0 0 0
45 39 45 42 39 39 35 32 35 32 29 23 23 23 16 13 13 13 13 13 10 6 6 6 6 6 6 6 6 10 10 6 6 6 3 0 0 0 0 0 0 0 0
48 39 39 29 35 39 35 32 32 32 29 26 19 13 13 13 13 13 10 10 10 10 6 6 6 6 6 6 6 6 6 3 3 6 3 0 0 0 0 0 0 0 0
52 55 39 32 32 32 32 29 26 29 23 23 19 16 16 13 13 10 10 13 10 10 10 10 6 6 6 6 0 3 6 3 3 3 3 3 0 0 0 0 0 0 0
55 48 45 39 35 32 29 19 16 16 16 16 13 13 13 13 6 10 10 10 10 10 10 6 6 6 6 3 0 0 3 3 3 3 3 3 3 0 0 0 0 0 0
55 52 39 29 26 29 26 16 13 19 13 10 13 13 13 6 10 10 10 6 6 3 6 6 6 3 3 3 0 0 0 3 3 3 3 3 3 0 0 0 0 0 0
39 35 32 35 19 16 23 23 23 26 26 19 13 13 16 16 16 13 10 10 10 6 0 3 0 3 3 3 0 0 0 0 3 3 3 3 3 3 0 0 0 0 0
32 26 26 16 10 10 13 13 13 19 19 19 19 16 19 19 16 16 13 10 6 3 3 0 0 0 0 0 0 0 0 3 3 3 3 0 0 3 0 0 0 0 0
23 19 23 13 10 10 6 10 10 6 10 16 10 10 13 16 13 13 10 3 3 3 3 3 3 0 0 0 0 0 0 3 3 3 3 3 0 0 0 0 0 0 0
23 23 19 13 6 6 3 3 3 3 0 3 6 6 6 6 6 6 6 6 6 3 3 3 3 0 0 0 0 0 0 0 0 3 3 3 3 0 0 0 0 0 0
26 19 6 6 6 0 0 0 0 0 0 0 0 3 6 6 6 6 6 6 3 3 3 3 3 0 0 0 0 0 0 0 0 0 0 0 3 0 0 0 0 0 0
16 6 6 6 6 3 0 0 0 0 0 0 0 3 6 6 3 3 3 3 0 0 0 0 0 0 0 0 0 0 0 0 0 0 0 0 0 0 0 0 0 0 0
16 6 6 6 3 3 3 3 0 0 0 0 0 0 3 3 0 0 0 0 0 0 0 0 0 0 0 0 0 0 0 0 0 0 0 0 0 0 0 0 0 0 0
6 6 3 3 3 3 3 3 0 0 0 0 0 0 0 0 0 0 0 0 0 0 0 0 0 0 0 0 0 0 0 0 0 0 0 0 0 0 0 0 0 0 0

GEFSMW_con_cape1000_156.txt.gz
Probability
45 48 42 52 39 35 32 26 26 16 10 10 13 16 13 10 6 6 6 6 3 0 0 0 0 0 0 0 0 0 0 0 0 0 0 0 0 0 0 0 3 6 6
52 52 52 48 42 35 35 29 19 16 10 10 13 13 10 10 10 6 6 6 0 0 0 0 0 0 0 0 0 0 0 0 0 0 0 0 0 0 0 0 0 0 3
55 55 58 48 39 35 29 29 26 16 16 10 10 10 10 10 6 6 6 3 3 0 0 0 0 0 0 0 0 0 0 0 0 0 0 0 0 0 0 0 0 0 0
55 52 55 45 42 29 29 32 16 13 13 10 16 16 13 13 10 10 10 0 0 3 3 0 0 0 0 0 0 0 0 0 0 0 0 0 0 0 0 0 0 0 0
55 61 61 52 42 42 39 35 19 19 13 16 16 13 6 10 6 6 6 3 0 3 3 3 3 0 0 0 0 0 0 0 0 0 0 0 0 0 0 0 0 0 0
52 55 65 55 48 42 45 32 23 26 16 13 10 13 10 6 6 6 6 3 3 3 3 3 3 3 0 0 0 0 0 0 0 0 0 0 0 0 0 0 0 0 0
48 58 58 52 52 48 42 35 23 23 23 19 13 10 6 10 6 6 6 6 6 6 3 3 3 3 3 3 3 0 0 0 0 0 0 0 0 0 0 0 0 0 0
52 58 55 58 52 48 42 32 23 26 23 26 16 13 6 6 10 10 10 3 3 3 3 3 3 3 0 3 3 3 0 0 0 0 0 0 0 0 0 0 0 0 0
52 58 55 55 61 52 45 29 23 19 23 23 16 13 6 6 6 6 6 6 3 3 3 3 3 3 3 3 3 3 3 0 0 0 0 0 0 0 0 0 0 0 0
48 55 58 58 55 55 45 35 23 19 16 19 19 13 10 3 3 3 6 6 3 3 3 3 3 3 3 3 3 3 3 3 0 0 0 0 0 0 0 0 0 0 0
45 55 52 39 35 39 35 29 26 23 19 23 19 10 10 6 3 6 6 3 3 3 3 3 3 3 3 3 3 3 3 3 3 0 0 0 0 0 0 0 0 0 0
45 45 45 39 39 39 32 29 23 23 19 13 16 13 10 6 6 6 6 3 3 3 3 6 6 3 3 3 3 3 3 3 3 3 3 0 0 0 0 0 0 0 0
45 35 39 35 42 42 32 23 23 23 16 13 16 13 10 6 6 3 3 3 3 3 3 3 6 3 3 3 3 3 3 3 3 3 3 3 3 0 0 0 0 0 0
42 39 35 29 32 32 29 26 19 13 13 16 16 19 16 13 6 6 3 3 3 3 3 3 3 3 3 3 3 3 3 3 3 3 3 3 3 3 3 0 0 0 0
39 39 39 23 26 29 26 23 19 16 16 16 16 19 19 10 10 6 6 10 10 10 10 10 6 6 6 6 6 6 6 6 3 3 3 3 3 3 0 0 0 0 0
39 35 32 26 23 26 26 23 23 16 16 16 19 16 13 10 10 10 10 10 10 10 10 10 10 10 6 6 0 0 6 6 6 6 3 3 3 0 0 0 0 0 0
26 26 26 23 19 23 26 23 19 16 16 16 13 13 13 13 10 10 10 10 10 10 10 10 10 10 6 3 0 0 0 3 3 3 3 3 3 0 3 0 0 0 0
26 16 16 19 19 16 19 16 13 13 10 6 10 10 10 10 10 10 10 6 6 6 6 6 6 6 3 3 0 0 0 0 3 3 3 3 3 3 3 3 3 0 0
16 19 16 19 23 16 13 13 10 10 10 10 6 6 6 6 6 6 6 6 6 3 3 0 0 0 0 0 0 0 0 0 0 0 3 3 3 3 0 0 3 3 3
23 23 13 6 6 10 10 13 10 6 3 6 6 3 3 6 6 6 3 3 3 0 0 0 0 0 0 0 0 0 0 0 0 0 0 0 0 0 0 0 0 3 3
6 3 3 3 3 3 3 6 3 0 0 0 0 0 0 0 0 3 3 0 0 0 0 0 0 0 0 0 0 0 0 0 0 0 0 0 0 0 0 0 0 0 0
3 3 3 0 0 0 0 0 0 0 0 0 0 0 0 0 0 0 0 0 0 0 0 0 0 0 0 0 0 0 0 0 0 0 0 0 0 0 0 0 0 0 0
3 0 0 0 0 0 0 0 0 0 0 0 0 0 0 0 0 0 0 0 0 0 0 0 0 0 0 0 0 0 0 0 0 0 0 0 0 0 0 0 0 0 0
0 0 0 0 0 0 0 0 0 0 0 0 0 0 0 0 0 0 0 3 0 3 3 3 0 0 0 0 0 0 0 0 0 0 0 0 0 0 0 0 0 0 0
0 0 0 0 0 0 0 0 0 0 0 0 0 0 0 0 0 0 0 0 0 0 3 3 3 0 0 0 0 0 0 0 0 0 0 0 0 0 0 0 0 0 0
0 0 0 0 0 0 0 0 0 0 0 0 0 0 0 0 0 0 0 0 0 0 0 0 0 0 0 0 0 0 0 0 0 0 0 0 0 0 0 0 0 0 0

GEFSMW_con_cape1000_162.txt.gz
Probability
94 94 94 90 84 87 87 97 94 94 94 90 84 81 77 74 71 68 52 55 61 61 74 58 81 68 61 58 39 55 45 35 39 29 19 19 16 19 35 32 29 26 16
90 94 97 97 90 97 94 94 90 90 90 87 87 81 87 71 61 61 61 58 58 61 55 81 61 61 68 68 65 65 58 35 29 32 32 29 29 48 3 23 29 13 10
90 94 94 94 94 97 94 84 90 90 87 87 77 68 74 65 52 55 61 55 65 61 68 65 65 65 58 65 71 68 61 42 42 29 29 26 23 16 10 19 16 26 26
87 97 94 94 94 97 90 94 94 87 84 81 71 58 58 48 52 55 65 58 65 61 58 61 58 68 61 71 58 52 61 55 45 26 39 16 26 16 13 16 10 16 32
87 87 97 97 87 87 87 90 90 81 74 71 71 68 58 58 55 58 58 61 61 58 61 61 61 68 58 55 52 58 58 48 45 32 32 35 35 13 26 19 16 10 10
84 90 87 94 87 77 77 77 74 77 68 68 65 65 58 61 48 58 55 65 61 52 52 55 58 58 48 45 48 58 52 52 58 55 35 32 35 23 13 10 16 16 10
81 90 87 90 87 77 71 74 74 71 65 61 68 65 65 61 55 45 45 39 35 48 48 42 58 55 61 48 52 45 52 45 52 42 35 32 26 29 26 23 23 13 3
84 87 87 87 87 77 71 77 74 74 68 65 65 65 68 55 45 42 39 39 45 35 39 48 45 48 45 39 55 42 45 52 52 32 42 42 32 32 29 26 23 26 10
87 84 87 84 81 74 77 77 81 77 81 71 65 65 55 52 45 52 52 39 61 42 42 48 45 48 48 48 55 48 48 52 45 39 42 39 29 29 26 26 29 35 13
84 84 77 81 77 77 77 74 84 84 81 74 61 55 58 58 61 61 55 52 55 52 42 42 42 42 45 52 58 45 48 52 48 52 48 45 29 26 26 26 29 32 32
81 87 84 84 77 71 71 74 81 81 74 71 61 58 65 61 58 55 55 55 48 52 45 39 42 39 45 45 55 39 39 32 42 29 29 35 39 32 35 26 35 29 32
87 87 77 77 77 71 71 71 71 71 65 58 55 58 52 52 52 52 55 58 55 48 39 35 39 35 35 42 39 32 26 29 29 29 29 26 23 32 29 39 19 29 29
81 84 81 77 77 77 77 71 68 61 52 48 52 48 52 45 45 45 45 48 48 42 39 45 39 35 29 39 32 26 23 23 26 19 23 19 13 23 29 23 19 23 13
81 77 81 77 77 81 74 71 65 61 48 52 48 52 52 42 39 45 45 45 42 42 39 32 35 32 32 26 23 26 23 23 23 16 19 16 10 13 16 16 23 13 16
87 81 81 81 74 74 71 68 65 61 55 55 52 42 45 35 42 42 39 39 39 29 32 32 29 29 19 19 19 26 19 32 23 19 19 10 6 6 6 6 16 13 13
81 77 81 81 74 74 68 61 61 61 52 52 48 45 39 42 35 32 35 32 29 26 26 26 23 19 13 10 6 6 19 23 23 19 23 16 6 6 3 0 0 3 3
84 81 77 71 74 68 65 61 61 61 55 52 42 42 45 45 39 29 35 32 29 26 26 23 26 26 19 3 3 3 6 13 16 19 23 10 10 6 10 6 0 0 0
71 74 71 68 68 65 68 68 61 58 52 42 39 39 39 32 35 39 35 35 29 26 23 26 23 23 16 0 0 0 3 10 16 16 16 19 16 6 3 6 3 6 3
74 77 65 58 61 61 58 61 58 48 45 45 45 45 35 32 35 26 23 23 26 29 19 19 19 19 13 0 0 0 0 6 6 6 13 16 13 3 0 0 3 0 0
71 68 55 55 58 55 55 55 45 42 35 39 39 29 32 26 23 23 19 19 16 16 19 16 16 16 10 0 0 0 0 3 6 13 13 3 0 0 0 3 3 3 3
58 52 55 55 52 55 55 45 39 39 39 32 23 23 23 19 19 16 13 13 13 10 10 10 10 10 10 6 0 0 0 3 13 10 16 10 0 0 0 0 0 3 0
45 39 42 42 45 48 45 32 32 32 16 13 13 10 10 3 3 6 10 10 10 10 6 6 10 10 10 6 3 0 0 0 13 13 13 0 0 0 0 0 0 0 0
39 39 39 35 35 39 35 23 19 16 13 6 6 6 3 3 3 3 3 6 13 10 6 6 6 10 10 10 0 0 0 0 0 6 0 0 0 0 0 0 0 0 0
35 32 32 26 26 23 23 19 16 16 13 6 3 0 3 3 0 3 3 3 3 3 6 3 6 6 6 3 0 0 0 0 0 0 0 0 0 0 0 0 0 0 0
32 29 26 19 16 16 13 13 13 13 13 3 0 0 0 0 3 0 0 0 3 3 3 6 6 6 3 3 0 0 0 0 0 0 0 0 0 0 0 0 0 0 0
26 23 16 16 10 10 10 10 10 6 6 3 0 3 3 3 3 3 0 0 0 0 0 0 0 3 0 0 0 0 0 0 0 0 0 0 0 0 0 0 0 0 0

GEFSMW_con_cape1000_168.txt.gz
Probability
90 94 94 94 94 97 97 97 97 97 94 90 87 87 87 84 84 77 77 71 81 74 84 87 87 94 100 94 81 87 81 81 81 61 55 48 58 65 71 61 48 42 45
94 94 94 94 94 97 97 94 97 100 100 97 90 90 90 87 87 81 77 74 81 84 65 87 87 94 97 84 84 84 71 71 74 65 45 35 39 68 35 65 65 48 55
94 94 94 94 94 97 97 94 94 97 97 94 87 84 84 87 81 77 87 81 74 77 87 94 84 94 90 81 87 81 71 65 71 65 55 29 16 42 48 61 55 65 65
94 94 94 90 94 94 97 97 97 97 94 94 94 84 84 77 77 74 81 77 74 77 71 81 87 77 81 84 77 77 81 71 58 68 61 52 52 39 19 39 48 58 55
90 94 90 94 94 94 94 97 97 97 90 94 90 90 81 87 81 74 68 81 77 68 68 74 71 74 84 84 81 90 74 74 65 61 52 45 48 35 32 19 29 42 48
81 87 90 94 94 94 94 94 94 87 87 84 84 90 84 81 74 71 65 65 61 61 61 68 65 74 87 81 81 81 71 74 74 68 61 58 48 48 39 23 29 26 35
81 90 90 94 94 94 90 87 87 87 81 81 81 81 84 81 74 74 68 58 52 58 61 55 68 68 77 81 74 77 71 71 61 61 71 61 52 55 48 45 32 26 48
81 90 94 94 90 90 87 87 84 84 81 84 84 81 77 81 81 74 65 61 58 55 61 55 65 68 68 55 71 71 71 71 61 48 58 65 48 45 52 39 35 19 23
81 84 87 87 87 87 87 87 87 87 87 84 84 81 81 77 68 71 74 68 61 55 48 58 68 71 71 68 74 61 61 74 71 55 65 61 55 45 42 48 39 26 13
71 84 84 87 87 84 87 87 84 87 84 81 81 74 77 74 68 68 71 71 71 68 61 55 61 58 58 65 65 58 52 55 61 65 58 55 42 39 42 35 29 39 32
77 81 87 84 84 84 81 84 84 84 84 84 77 77 74 68 61 61 58 58 61 58 61 61 65 61 52 58 58 52 55 45 45 39 39 42 48 45 45 42 26 29 32
77 84 87 81 81 81 81 81 81 81 84 77 77 68 68 68 65 58 58 61 58 58 58 52 52 52 52 58 48 42 42 42 35 32 39 35 29 32 32 29 23 23 23
87 87 90 84 84 81 81 81 74 74 71 71 68 68 65 65 65 65 61 58 58 61 58 58 52 52 48 52 48 42 45 32 32 29 29 32 23 29 19 23 19 19 6
94 94 94 94 90 87 84 74 77 74 68 65 68 65 65 65 61 61 58 52 55 55 55 48 45 52 45 39 42 35 32 29 29 29 29 23 19 19 19 19 19 16 13
90 94 90 94 90 84 81 81 77 71 65 61 61 61 61 65 61 55 52 52 52 45 45 39 35 35 29 16 23 26 19 26 26 23 19 19 13 13 6 6 16 10 6
87 87 94 94 90 84 81 81 74 68 65 65 65 61 61 68 58 58 48 42 45 42 39 32 35 26 19 3 3 6 19 26 26 19 23 19 16 6 3 3 3 3 3
87 87 94 90 90 84 84 81 71 68 61 61 58 58 58 58 48 52 45 45 45 42 42 39 32 26 19 6 3 3 6 16 16 19 19 13 3 0 6 3 3 0 0
90 90 94 87 84 84 81 77 71 71 65 65 55 55 55 45 48 42 45 42 35 35 35 29 26 23 16 3 0 0 0 3 16 16 13 13 13 6 6 3 0 0 3
90 87 81 84 81 81 71 71 65 65 65 58 58 52 48 45 42 39 32 35 35 29 26 19 19 19 13 6 0 0 0 6 6 6 10 10 13 3 0 0 3 3 3
90 84 77 77 74 74 71 65 61 58 61 48 52 48 45 42 42 32 32 29 23 19 19 19 19 16 10 6 0 0 0 6 6 6 3 3 0 0 0 0 0 0 6
77 77 71 71 68 65 61 61 61 52 48 39 42 39 42 35 29 26 23 23 16 16 16 13 16 13 10 6 3 0 0 6 6 10 6 6 0 0 0 0 0 0 0
71 61 61 58 58 55 55 52 52 45 39 35 35 35 35 23 19 19 16 16 13 16 13 13 16 13 10 3 3 0 0 0 3 6 10 10 0 0 0 0 0 0 0
55 55 55 55 52 52 45 45 45 42 39 23 19 16 16 13 13 13 10 6 6 6 6 6 6 6 6 3 3 0 0 0 0 3 0 0 0 0 0 0 0 0 0
52 58 52 45 45 39 39 42 35 32 19 19 19 16 10 6 3 6 3 3 6 6 6 6 6 6 3 3 3 3 0 0 0 0 0 0 0 0 0 0 0 0 0
48 48 48 45 29 32 29 29 23 23 19 19 13 13 10 3 3 3 3 3 0 0 0 3 3 0 3 0 0 3 3 3 0 0 0 0 0 0 0 0 0 0 0
42 42 32 32 26 26 26 23 23 19 19 16 6 3 3 0 0 3 0 0 0 0 0 0 0 0 0 0 0 0 0 0 0 0 0 0 0 0 0 0 0 0 0

GEFSMW_con_cape1000_174.txt.gz
Probability
65 68 71 84 77 77 68 58 61 52 52 52 48 32 26 23 19 13 19 13 13 10 3 6 3 0 0 0 0 0 0 0 0 0 0 0 0 0 0 0 0 0 0
68 74 84 87 81 81 74 68 58 61 61 55 42 39 29 19 16 16 10 6 10 10 6 3 3 0 0 0 0 0 0 0 0 0 0 0 0 0 0 0 0 0 0
74 77 84 87 81 74 74 74 74 68 65 55 48 39 29 16 16 13 6 10 16 13 3 3 0 3 0 0 0 0 0 0 0 0 0 0 0 0 0 0 0 0 0
77 77 77 84 77 81 81 74 74 68 61 58 58 29 23 19 13 6 13 10 16 16 10 3 3 6 3 0 0 3 0 0 0 0 0 0 0 0 0 0 0 0 0
81 84 81 81 77 81 81 74 68 65 68 52 55 32 19 19 13 6 10 13 16 19 16 16 16 10 3 3 3 3 0 0 0 3 0 0 0 0 0 0 0 0 0
81 87 81 81 77 84 84 81 74 65 65 52 45 32 23 23 16 16 10 13 13 19 16 16 16 16 10 3 6 6 6 6 6 3 3 0 0 0 0 0 0 0 0
77 84 81 81 84 81 81 77 68 65 61 55 48 39 32 26 23 19 13 13 13 16 10 16 13 10 10 13 6 3 6 6 6 3 0 0 0 3 3 3 3 0 0
74 87 81 84 84 84 77 74 71 65 61 55 52 39 32 29 23 16 16 13 13 10 13 13 13 16 19 19 6 3 6 6 6 6 3 3 0 3 3 3 3 3 3
74 77 84 84 81 77 77 77 74 74 61 58 48 45 32 29 32 19 19 19 10 16 16 16 10 13 13 13 10 6 6 6 6 3 3 0 3 3 3 3 3 3 3
68 71 74 71 77 74 74 77 74 71 68 61 48 42 39 35 39 32 29 23 19 16 19 16 10 10 6 10 10 10 6 3 3 3 3 3 3 3 3 3 3 3 3
71 68 68 71 71 68 68 71 68 61 61 58 45 42 35 29 23 29 26 23 19 10 6 3 6 10 10 10 10 10 6 6 6 6 3 3 3 3 3 3 3 3 3
61 61 65 68 71 68 68 68 61 61 61 55 42 39 32 26 26 23 23 19 16 6 6 10 10 10 10 10 13 10 10 10 6 6 6 6 6 6 3 3 3 3 3
58 61 65 61 65 68 65 71 65 58 58 48 42 39 32 23 19 19 16 16 16 13 10 10 13 10 13 10 10 6 10 6 6 6 6 3 3 3 3 3 3 3 3
55 58 52 58 65 71 65 65 68 58 58 48 45 32 32 23 19 16 10 13 16 13 16 16 13 13 13 13 10 6 3 3 3 6 6 6 6 3 3 3 3 3 3
58 61 55 52 61 65 61 61 58 55 52 45 39 39 32 26 23 16 13 16 19 16 13 13 13 13 13 6 0 0 0 0 0 3 3 3 3 0 0 0 0 0 0
58 61 61 61 61 58 55 52 52 45 48 42 39 32 32 26 26 23 19 19 19 16 13 13 10 6 6 3 0 0 0 0 0 0 0 0 0 0 0 0 0 0 0
58 61 61 61 68 61 48 55 45 45 42 42 35 32 29 29 26 23 19 19 16 13 10 6 3 3 3 3 0 0 0 0 0 0 0 0 0 0 0 0 0 0 0
71 68 68 65 58 55 52 48 45 39 42 32 39 29 32 29 23 16 16 13 6 6 6 6 6 3 3 0 0 0 0 0 0 0 0 0 0 0 0 0 0 0 0
71 68 71 58 52 52 52 45 42 45 42 35 32 23 26 23 19 13 10 10 6 6 6 3 3 3 3 0 0 0 0 0 0 0 0 0 0 0 0 0 0 0 0
68 65 55 55 52 48 52 45 39 35 32 32 29 26 19 19 19 13 6 0 0 3 6 3 3 3 3 0 0 0 0 0 0 0 0 0 0 0 0 0 0 0 0
65 52 45 42 39 42 39 35 26 23 19 19 19 13 10 6 3 0 3 3 3 3 3 3 3 3 3 3 0 0 0 0 0 0 0 0 0 0 0 0 0 0 0
42 42 32 35 35 29 32 23 19 16 13 16 10 10 6 3 3 0 0 0 0 3 3 3 3 3 3 3 3 0 0 0 0 0 0 0 0 0 0 0 0 0 0
48 42 32 32 26 23 23 23 19 13 13 13 10 6 3 0 0 0 0 0 0 0 0 0 3 3 0 0 0 0 0 0 0 0 0 0 0 0 0 0 0 0 0
35 29 29 26 23 23 19 19 16 13 10 10 6 0 0 0 0 0 0 0 0 0 0 0 0 0 0 0 0 0 0 0 0 0 0 0 0 0 0 0 0 0 0
26 26 26 23 23 23 19 16 13 13 10 3 0 0 0 0 0 0 0 0 0 0 0 0 0 0 0 0 0 0 0 0 0 0 0 0 0 0 0 0 0 0 0
23 23 23 23 23 19 19 16 13 13 6 3 0 0 0 0 0 0 0 0 0 0 0 0 0 0 0 0 0 0 0 0 0 0 0 0 0 0 0 0 0 0 0

GEFSMW_con_cape1000_180.txt.gz
Probability
29 32 42 45 48 39 32 26 26 19 19 19 13 13 3 6 3 3 6 6 6 3 0 0 0 0 0 0 0 0 0 0 0 0 0 0 0 0 0 0 0 3 0
39 42 45 52 52 35 35 39 29 23 23 16 10 3 3 3 3 6 3 3 3 3 3 0 0 0 0 0 0 0 0 0 0 0 0 0 0 0 0 0 0 0 3
42 45 42 52 55 48 39 39 35 29 19 10 6 3 3 3 3 3 3 3 0 0 0 0 0 0 0 0 0 0 0 0 0 0 0 0 0 0 0 0 0 0 0
45 42 45 45 55 55 45 42 39 29 19 13 10 10 3 6 3 3 3 3 6 0 0 0 0 0 0 0 0 0 0 0 0 0 0 0 0 0 0 0 0 0 0
55 52 48 39 55 58 42 35 29 26 19 16 10 6 10 3 3 6 6 6 6 3 3 6 0 0 0 0 0 0 0 0 0 0 0 0 0 0 0 0 0 0 0
52 48 48 48 52 55 39 35 29 23 23 16 13 13 13 6 6 6 6 6 6 6 10 10 6 6 3 0 0 0 0 0 0 3 3 3 3 0 0 0 0 0 3
52 55 55 52 45 58 52 35 29 29 26 19 23 16 10 10 6 6 6 6 6 6 6 10 13 10 6 3 0 0 0 0 6 6 3 3 0 0 0 0 3 0 3
55 52 55 48 55 58 52 48 32 26 26 23 26 19 13 13 10 10 10 10 10 10 6 6 6 10 10 6 0 0 0 3 3 3 3 0 0 0 0 3 3 3 3
52 48 48 52 52 55 52 39 32 29 29 32 29 23 16 16 10 10 10 10 10 10 3 6 3 3 6 6 6 3 3 3 3 3 0 3 0 0 0 0 3 3 6
52 55 52 55 52 42 45 39 48 35 35 32 32 29 26 16 16 10 10 10 10 10 6 6 6 6 6 3 3 3 0 6 0 3 3 3 3 3 0 3 3 3 3
55 58 55 58 48 52 58 52 45 39 39 39 29 26 19 16 13 16 16 13 6 6 3 3 6 3 3 3 0 3 6 3 6 6 6 3 3 3 3 3 3 3 3
52 55 55 45 52 58 58 45 42 45 42 35 26 26 19 16 16 19 16 16 6 3 6 6 6 6 3 6 6 6 6 6 6 6 6 6 6 6 3 3 3 3 3
52 58 52 52 52 55 58 55 48 45 42 39 32 26 23 23 19 16 13 10 10 10 10 10 10 6 3 3 6 6 0 0 3 3 3 3 0 0 0 3 0 0 0
48 48 45 52 55 55 55 58 48 42 39 35 32 29 26 26 19 13 10 10 10 10 10 13 6 6 6 6 6 3 3 0 0 0 0 0 0 0 0 0 0 0 0
45 52 48 48 48 61 52 52 45 39 39 39 35 32 29 26 19 13 10 10 10 10 10 6 6 6 6 6 6 6 6 3 0 0 0 0 0 0 0 0 0 0 0
48 52 52 52 58 55 45 39 42 32 32 35 29 32 26 23 19 10 10 10 10 10 6 6 6 6 6 3 0 0 0 0 0 0 0 0 0 0 0 0 0 0 0
45 55 55 58 48 48 48 39 32 35 35 26 29 26 26 26 16 10 10 10 10 6 6 6 6 6 0 0 0 0 0 0 0 0 0 0 0 0 0 0 0 0 0
45 48 52 52 48 42 35 32 29 29 26 23 23 26 26 19 19 13 13 10 10 6 3 3 3 0 0 0 0 0 0 0 0 0 0 0 0 0 0 0 0 0 0
48 48 42 42 39 39 32 29 29 29 23 23 23 19 19 16 16 13 10 6 3 3 3 0 0 0 0 0 0 0 0 0 0 0 0 0 0 0 0 0 0 0 0
42 39 35 32 26 29 32 26 23 19 16 16 16 10 10 13 13 3 3 3 3 0 0 0 0 0 0 0 0 0 0 0 0 0 0 0 0 0 0 0 0 0 0
45 39 26 32 26 32 29 26 23 13 13 13 10 10 10 6 3 3 3 0 0 0 0 0 0 0 0 0 0 0 0 0 0 0 0 0 0 0 0 0 0 0 0
42 35 26 23 26 23 26 19 16 10 10 10 10 6 3 3 3 3 0 0 0 0 0 0 0 0 0 0 0 0 0 0 0 0 0 0 0 0 0 0 0 0 0
42 39 35 26 26 23 19 16 13 10 10 6 10 6 3 3 3 3 0 0 0 0 0 0 0 0 0 0 0 0 0 0 0 0 0 0 0 0 0 0 0 0 0
32 32 32 26 23 23 19 16 13 10 13 10 10 3 3 3 3 0 0 0 0 0 0 0 0 0 0 0 0 0 0 0 0 0 0 0 0 0 0 0 0 0 0
19 29 26 26 23 23 23 16 10 10 13 10 6 3 3 0 0 0 0 0 0 0 0 0 0 0 0 0 0 0 0 0 0 0 0 0 0 0 0 0 0 0 0
6 10 13 26 23 23 23 16 10 13 10 10 6 3 3 0 0 0 0 0 0 0 0 0 0 0 0 0 0 0 0 0 0 0 0 0 0 0 0 0 0 0 0

GEFSMW_con_cape1000_186.txt.gz
Probability
68 81 87 87 84 87 87 87 87 90 94 90 84 81 77 74 74 58 52 55 58 52 58 45 61 48 48 52 42 42 32 39 48 39 32 23 13 23 45 39 23 26 26
77 77 84 90 90 94 90 90 94 94 94 94 97 94 81 71 68 68 68 58 52 55 35 65 52 48 58 48 52 55 48 42 35 35 32 19 19 32 3 35 32 26 29
74 81 90 90 90 94 90 90 94 94 94 90 81 74 71 71 68 71 71 65 58 55 55 52 55 52 42 48 65 68 65 55 39 39 45 26 23 19 13 13 16 32 39
74 77 87 87 84 90 90 94 94 94 94 90 81 77 74 71 71 71 65 71 55 52 55 55 55 52 45 58 39 42 52 55 39 39 48 29 26 23 23 23 19 26 45
65 77 90 87 87 84 90 94 90 87 90 84 74 81 71 71 65 68 65 61 52 48 45 58 48 58 58 55 58 68 74 65 61 55 42 32 35 23 32 19 19 16 13
77 87 84 87 87 87 81 77 84 84 81 81 71 74 68 68 61 61 68 61 55 55 48 48 58 58 55 58 65 65 65 65 58 52 45 45 39 35 42 32 32 35 19
81 87 87 87 87 87 77 77 77 77 77 77 71 71 74 74 71 65 68 61 55 52 48 39 52 61 58 58 58 61 58 58 58 61 42 39 35 26 32 35 26 19 16
77 84 84 81 81 81 77 77 77 74 74 74 77 81 77 68 61 68 61 52 55 55 52 52 45 55 52 45 61 55 55 55 55 42 55 39 32 35 32 39 39 29 19
81 81 81 81 84 77 77 74 77 74 74 68 71 74 68 68 68 68 65 52 55 52 52 48 48 42 52 48 48 58 52 52 45 42 45 45 39 29 26 32 35 29 19
77 84 81 84 81 74 71 71 74 74 74 74 68 65 65 65 65 65 65 61 52 48 48 48 39 39 42 32 48 45 45 48 48 48 45 48 42 35 39 39 29 35 29
81 74 81 77 74 65 71 71 74 74 74 71 68 68 65 61 61 61 45 52 52 52 42 42 35 35 29 29 29 26 29 35 39 39 39 35 35 35 32 26 26 29 23
87 81 71 77 74 68 68 71 71 68 74 71 68 68 58 58 55 52 45 42 42 42 39 42 39 23 26 32 29 29 29 29 32 32 32 32 29 32 29 26 26 29 23
87 90 87 81 81 74 71 71 71 71 65 68 61 65 61 55 52 52 45 42 35 35 35 32 32 29 26 23 26 29 26 19 16 16 16 19 23 23 23 23 13 16 3
94 90 87 87 84 74 77 77 71 65 65 61 65 65 58 55 52 45 39 42 35 39 35 29 29 29 19 19 23 23 23 23 19 19 19 16 16 13 13 10 10 10 13
94 90 90 87 87 77 77 74 71 65 65 61 61 61 55 52 35 29 32 32 35 29 32 29 23 23 19 16 16 16 16 23 19 16 16 13 10 3 3 6 13 10 10
94 87 87 90 84 77 77 74 68 68 68 65 58 52 48 39 29 29 29 29 35 29 29 26 26 26 13 3 3 3 10 16 16 13 10 10 10 0 0 0 0 0 10
87 84 81 81 84 71 77 74 68 68 68 61 55 55 42 39 32 26 26 29 29 29 29 26 26 19 3 0 0 0 6 6 13 10 10 10 6 6 10 0 0 0 0
87 84 81 81 81 74 68 68 65 65 65 61 55 45 35 32 29 29 26 26 26 26 26 19 16 13 3 0 0 0 0 6 10 10 10 10 10 6 6 10 10 6 6
90 87 81 81 81 74 65 68 65 58 55 45 48 45 32 35 26 26 26 26 23 23 23 13 13 13 3 0 0 0 0 3 3 3 3 6 3 3 3 3 3 3 10
84 84 84 81 81 74 65 68 61 61 52 45 45 35 29 29 23 23 26 23 23 19 13 10 10 10 3 0 0 0 0 3 3 3 3 3 3 0 0 3 3 3 3
74 74 77 77 77 65 61 58 52 58 52 42 39 35 35 32 26 23 19 19 13 10 6 3 3 3 0 0 0 0 0 0 3 3 3 3 3 0 0 0 0 3 3
71 74 71 68 65 65 58 55 55 45 39 29 23 29 29 26 16 16 13 13 6 6 3 3 3 0 0 0 0 0 0 0 0 0 0 3 0 0 0 0 0 0 0
68 68 61 55 45 48 61 52 48 39 29 23 23 19 23 23 19 16 13 10 6 6 3 3 3 0 0 0 0 0 0 0 0 0 0 0 0 0 0 0 0 0 0
61 55 55 45 45 48 42 39 39 32 29 26 19 19 19 19 16 16 16 10 6 6 6 3 3 0 0 0 0 0 0 0 0 0 0 0 0 0 0 0 0 0 0
52 52 48 52 45 45 39 35 29 32 26 23 23 23 16 16 16 10 10 10 10 3 3 3 3 0 0 0 0 0 0 0 0 0 0 0 0 0 0 0 0 0 0
42 48 45 39 32 32 26 32 29 26 26 26 23 23 19 13 13 10 6 0 3 0 0 3 0 0 0 0 0 0 0 0 0 0 0 0 0 0 0 0 0 0 0

GEFSMW_con_cape1000_192.txt.gz
Probability
68 84 81 77 81 90 90 90 90 94 90 94 90 90 84 87 81 81 74 84 81 77 84 77 90 90 81 84 74 77 81 84 84 65 55 45 42 42 61 52 48 39 45
84 90 94 84 87 90 90 90 90 90 90 90 94 94 87 84 90 90 90 81 81 81 68 90 87 77 87 84 77 77 71 71 71 71 55 26 26 55 19 52 52 45 52
77 84 90 94 87 90 94 90 94 90 90 94 94 94 87 87 84 87 84 84 77 77 77 77 87 87 84 81 81 77 71 71 68 71 55 29 16 26 39 39 39 48 45
74 87 90 87 81 87 90 94 90 90 90 94 87 87 81 84 84 84 77 81 81 74 77 74 81 84 74 77 74 74 84 77 74 74 71 61 52 29 29 42 45 39 45
77 87 87 84 81 81 87 94 90 90 87 84 87 87 84 74 71 77 77 74 74 74 65 74 71 71 74 71 81 77 77 81 71 65 61 55 55 45 39 26 26 29 35
81 84 84 87 84 87 87 87 90 87 84 84 84 84 84 84 81 74 74 71 74 68 65 68 74 74 74 74 81 81 77 74 68 61 55 45 45 52 48 26 23 16 26
68 84 84 81 84 87 84 87 90 87 84 84 84 84 84 84 77 74 77 74 74 68 65 61 65 71 77 77 81 77 74 71 65 58 61 52 52 52 52 35 16 13 19
74 87 87 81 84 81 84 87 84 87 84 87 87 87 87 81 77 81 77 71 68 65 58 61 61 58 61 58 65 68 68 68 68 55 65 48 39 42 45 39 32 10 6
74 74 84 81 87 84 84 84 84 84 84 84 87 84 84 84 77 77 71 68 61 55 55 58 55 58 58 58 61 58 61 58 58 48 52 48 48 48 39 39 32 23 10
68 68 71 81 81 84 81 84 81 84 84 81 77 74 84 77 74 71 65 65 61 61 55 52 52 55 55 58 58 58 52 55 52 45 48 45 45 42 35 39 39 23 13
58 68 74 81 81 77 74 81 81 81 81 77 81 77 71 68 71 71 58 61 65 58 45 42 42 45 48 42 52 45 42 42 48 42 32 35 32 48 42 39 39 23 16
71 74 74 84 74 71 71 74 77 81 77 77 81 77 71 68 68 58 58 58 61 52 48 55 45 39 35 35 39 32 32 39 39 32 32 26 23 23 29 29 16 16 13
84 94 90 84 84 81 77 77 77 77 77 74 74 74 74 71 65 58 55 48 55 52 45 45 35 35 32 32 32 29 26 26 26 23 19 19 23 23 19 19 16 19 10
97 97 90 94 84 77 77 81 77 77 71 71 74 71 71 68 61 58 48 52 48 45 42 42 39 32 29 29 26 26 29 29 23 23 16 19 16 19 16 13 13 13 16
97 94 97 97 87 77 81 81 81 77 74 71 71 71 71 68 58 48 48 48 45 42 42 39 35 35 29 23 23 26 26 19 19 23 16 16 10 6 6 6 10 10 10
97 94 97 97 87 87 84 81 81 81 81 74 71 71 71 65 45 45 45 45 45 39 39 35 35 35 16 3 6 10 23 19 23 16 19 13 10 6 6 0 0 0 3
97 97 97 97 97 87 87 84 74 74 74 71 68 68 61 48 48 42 39 35 35 35 39 32 26 16 13 3 3 3 10 10 13 10 10 3 3 0 6 6 0 0 0
90 94 94 94 94 84 84 77 71 71 71 68 65 65 58 45 42 42 35 39 32 32 29 26 26 16 10 0 0 0 3 6 6 3 6 6 3 3 3 0 0 10 6
87 84 84 87 90 84 81 74 71 71 71 68 61 52 48 39 35 35 35 32 32 32 26 26 23 16 10 0 0 0 3 3 6 0 3 3 3 0 0 0 0 0 0
87 84 81 84 84 84 74 74 71 71 68 65 61 55 48 35 32 32 29 29 29 26 23 19 19 16 6 0 0 0 3 3 3 3 3 0 0 0 0 0 0 0 0
84 81 81 81 84 81 77 71 71 65 68 65 55 48 42 32 29 32 32 26 26 23 19 16 16 16 6 0 0 0 0 3 0 0 0 0 0 0 0 0 0 0 0
84 81 81 74 77 81 77 74 68 68 65 55 42 42 29 29 29 29 26 26 26 23 19 13 16 13 10 0 0 0 0 0 0 0 0 0 0 0 0 0 0 0 0
81 77 74 74 74 74 74 68 65 58 55 42 32 32 29 29 29 26 26 26 26 23 16 16 13 13 10 0 0 0 0 0 0 0 0 0 0 0 0 0 0 0 0
74 74 68 61 55 58 65 65 65 61 48 35 29 23 26 26 26 26 26 26 23 19 19 16 16 16 10 0 0 0 0 0 0 0 0 0 0 0 0 0 0 0 0
65 65 61 55 55 61 48 48 42 48 45 26 23 19 19 23 26 23 19 19 19 19 16 16 16 13 10 10 0 0 0 0 0 0 0 0 0 0 0 0 0 0 0
65 61 58 48 52 52 52 45 45 45 39 29 26 19 19 23 23 16 13 6 6 3 3 3 3 3 3 0 0 0 0 0 0 0 0 0 0 0 0 0 0 0 0

GEFSMW_con_cape1000_198.txt.gz
Probability
26 42 48 55 55 52 48 39 42 39 35 32 29 26 26 13 13 10 10 16 10 10 10 10 10 6 6 3 3 3 3 3 3 3 3 0 0 0 0 0 0 0 0
29 42 48 58 58 52 45 48 52 52 45 45 35 29 26 23 19 13 16 13 13 10 19 13 10 6 6 6 6 3 3 3 3 3 0 0 0 0 0 0 0 0 0
29 45 52 48 55 58 58 58 48 52 58 55 45 42 35 26 29 19 16 16 26 13 13 13 10 6 6 6 6 6 3 3 3 3 0 0 0 0 0 0 0 0 0
35 42 55 55 58 61 52 55 61 58 61 58 48 42 35 35 32 26 23 23 26 19 19 10 10 10 10 10 6 10 6 6 3 0 0 0 0 0 0 0 0 0 0
39 48 58 55 58 52 58 55 61 58 61 55 52 42 35 32 35 32 29 23 26 26 26 26 19 16 13 10 10 13 6 6 6 0 0 0 0 0 0 0 0 0 0
45 58 52 58 61 55 71 68 65 68 65 48 52 48 45 42 39 42 32 32 26 26 26 26 16 13 13 10 10 13 10 6 3 0 0 0 0 0 0 0 0 0 0
48 48 48 61 61 68 68 77 71 71 65 55 55 58 48 45 42 39 39 26 23 19 23 26 23 19 16 13 13 13 6 3 0 0 0 0 0 0 0 0 0 0 0
48 48 52 55 61 68 71 74 71 65 65 65 61 58 55 48 45 42 35 26 26 23 23 23 19 23 23 26 13 10 6 3 0 0 0 0 0 0 0 0 0 0 0
48 52 55 55 58 71 71 74 68 65 65 52 45 45 45 45 45 39 35 26 29 29 26 19 23 19 13 6 6 6 6 10 3 3 3 3 3 3 0 0 0 0 0
45 48 52 48 55 68 68 71 65 58 65 48 45 45 42 42 35 39 35 32 32 35 26 29 26 13 6 6 6 6 6 6 6 3 6 6 6 3 3 3 3 0 0
45 52 52 52 55 61 68 71 68 61 61 58 45 48 42 42 35 32 29 29 26 26 26 26 23 16 13 10 10 13 10 6 3 3 3 3 3 3 3 3 3 3 0
48 55 58 58 68 61 61 74 65 65 61 58 48 45 45 42 39 39 29 26 26 26 26 23 19 13 10 10 10 10 10 6 10 10 6 10 6 3 0 0 0 0 0
52 52 45 55 58 61 65 68 65 68 65 58 52 52 48 39 39 32 29 26 26 26 26 19 19 13 10 10 10 10 10 10 6 10 10 6 6 6 6 3 0 0 0
55 58 45 48 55 61 65 65 61 61 65 61 52 52 45 35 29 29 29 26 26 19 19 19 19 16 13 13 10 10 6 10 10 10 6 6 6 6 3 3 0 0 0
58 58 45 45 52 61 65 61 61 58 58 61 48 48 32 32 29 29 26 19 19 19 19 23 19 10 6 6 6 10 10 6 3 3 3 3 3 3 3 3 3 0 0
58 55 55 52 52 61 65 68 58 58 58 55 48 45 29 26 23 23 23 23 19 19 19 19 10 6 6 6 6 3 3 3 3 3 3 3 3 3 0 0 0 0 0
52 61 55 48 58 58 58 65 58 58 58 52 52 35 26 23 26 26 23 23 19 19 13 10 10 6 6 6 6 3 3 3 3 3 3 0 0 0 0 0 0 0 0
58 68 58 45 48 48 48 48 48 52 55 52 45 29 26 26 26 26 26 23 16 16 13 10 10 10 6 6 6 3 3 3 3 0 0 0 0 0 0 0 0 0 0
58 58 58 48 52 45 48 45 45 48 52 42 35 26 29 26 26 23 23 19 16 16 16 10 10 10 6 6 3 3 3 0 0 0 0 0 0 0 0 0 0 0 0
58 58 58 55 52 48 42 42 35 35 39 35 35 29 23 19 23 19 19 16 19 13 13 10 10 10 6 6 0 0 0 0 0 0 0 0 0 0 0 0 0 0 0
68 68 71 55 52 45 39 39 35 29 26 26 26 23 26 16 16 13 19 19 13 13 13 10 10 10 6 6 0 0 0 0 0 0 0 0 0 0 0 0 0 0 0
61 61 58 48 45 35 39 39 29 26 19 23 23 19 23 23 19 13 13 13 13 13 10 10 10 10 6 3 0 0 0 0 0 0 0 0 0 0 0 0 0 0 0
58 45 42 42 42 39 35 26 26 23 13 19 16 10 16 19 16 19 13 13 13 13 10 10 10 10 6 3 0 0 0 0 0 0 0 0 0 0 0 0 0 0 0
48 42 39 39 35 32 29 26 26 19 19 16 10 6 13 13 13 13 13 13 13 13 10 10 10 10 6 3 0 0 0 0 0 0 0 0 0 0 0 0 0 0 0
45 39 32 35 29 23 16 16 16 13 16 13 10 10 13 13 13 10 10 13 13 16 16 13 10 10 6 3 0 0 0 0 0 0 0 0 0 0 0 0 0 0 0
35 32 32 26 26 23 16 16 13 6 10 10 6 6 6 10 10 10 6 6 3 3 3 6 6 3 3 3 0 0 0 0 0 0 0 0 0 0 0 0 0 0 0

GEFSMW_con_cape1000_204.txt.gz
Probability
19 16 16 16 10 13 6 6 6 10 10 13 13 13 10 10 6 0 0 3 0 0 0 0 0 3 3 0 0 0 3 3 3 3 0 0 0 0 0 0 0 0 0
19 16 16 13 13 16 13 6 13 13 13 13 10 10 10 6 6 10 6 3 3 3 6 3 0 3 3 3 3 3 3 3 3 3 0 0 0 0 0 0 0 0 0
19 16 19 19 26 19 16 23 16 10 16 16 13 16 13 13 13 10 10 6 3 6 10 6 6 3 3 3 3 3 3 3 3 0 0 0 0 0 0 0 0 0 0
16 19 23 23 26 23 23 23 19 16 19 23 23 23 19 16 6 3 6 6 10 6 10 10 6 6 6 6 6 6 6 6 6 0 0 0 0 0 0 0 0 0 0
23 23 26 23 19 29 29 26 26 26 23 19 16 16 13 6 6 6 13 13 10 10 13 13 6 6 6 6 10 10 3 3 3 0 0 0 0 0 0 0 0 0 0
16 13 23 26 26 32 32 29 26 19 19 16 16 16 16 13 13 16 16 16 10 10 10 16 16 6 6 6 6 6 3 3 3 0 0 0 0 0 0 0 0 0 0
16 16 16 23 29 29 29 32 29 23 19 16 23 26 23 16 26 23 16 13 13 10 13 10 13 6 10 10 6 10 3 3 3 3 0 0 0 0 0 0 0 0 0
23 23 19 23 26 35 26 35 29 26 19 23 23 29 26 26 23 23 16 16 16 16 19 13 16 10 10 10 10 10 6 6 3 3 3 0 0 0 0 0 0 0 3
23 23 26 19 26 26 29 45 29 26 23 29 26 26 26 23 26 23 23 19 19 19 19 16 16 16 13 13 10 6 6 6 6 3 6 0 0 0 0 0 0 0 3
23 26 23 23 29 39 32 35 35 39 29 26 32 32 29 26 26 23 23 23 19 23 23 19 23 19 13 10 6 6 6 6 6 3 3 3 3 3 0 0 0 0 3
26 26 19 23 32 35 29 29 39 35 35 32 32 32 32 29 29 29 29 23 23 23 26 26 26 19 16 6 6 6 6 6 10 10 3 6 3 0 0 0 0 0 0
19 23 16 26 32 39 32 32 35 45 39 35 32 35 35 32 32 32 29 29 29 26 26 26 23 19 16 13 10 10 10 10 10 6 3 3 3 10 10 0 0 0 0
35 23 19 26 42 39 29 29 35 42 39 35 32 35 39 32 32 29 29 29 26 23 23 23 23 16 16 10 10 10 6 6 6 6 6 6 10 10 10 3 3 0 0
39 29 29 39 32 35 35 32 29 42 45 42 39 42 35 29 29 29 29 26 23 23 23 19 19 16 13 10 6 6 6 6 6 6 6 10 6 6 6 3 3 3 3
42 35 26 35 42 39 45 35 32 42 48 42 35 35 32 29 23 26 19 19 19 16 19 19 19 10 10 10 10 6 6 6 6 10 6 3 3 3 3 3 3 3 3
45 32 32 35 35 32 35 42 39 39 39 32 29 29 19 19 19 19 19 19 19 16 13 13 16 10 10 6 6 6 10 10 10 3 3 3 3 3 3 0 0 0 0
45 39 39 32 35 32 42 48 45 42 35 32 26 19 16 23 16 16 16 16 16 13 13 10 10 6 6 6 6 3 3 6 6 3 3 3 3 3 0 0 0 0 0
48 48 45 39 39 35 39 35 35 42 39 32 29 16 13 13 19 16 16 13 13 13 13 10 6 6 6 6 3 0 0 0 3 3 3 3 3 0 0 0 0 0 0
48 52 45 32 39 39 29 39 35 35 39 35 32 26 13 13 13 19 13 13 16 13 10 10 6 6 6 6 6 0 3 3 3 3 3 3 0 0 0 0 0 0 0
42 42 42 32 32 29 35 42 42 32 29 29 32 19 13 13 13 16 13 13 13 13 10 10 6 6 6 6 6 0 3 3 3 3 0 0 0 0 0 0 0 0 0
39 42 42 35 32 26 26 32 29 23 23 26 23 16 16 16 13 10 13 13 13 10 10 6 6 6 6 6 3 3 3 3 3 3 3 0 0 0 0 0 0 0 0
45 42 48 35 29 26 26 26 23 19 23 19 13 13 6 10 6 3 3 3 6 6 6 6 6 3 3 3 3 3 3 3 3 3 3 0 0 0 0 0 0 0 0
52 45 39 32 26 26 26 26 19 16 16 6 10 6 6 6 6 3 6 3 3 0 3 3 3 3 3 3 3 3 3 0 3 3 3 0 0 0 0 0 0 0 0
45 35 29 29 29 19 19 19 16 13 13 6 6 0 0 0 3 0 0 0 0 0 0 3 3 3 3 3 3 3 3 3 3 3 0 0 0 0 0 0 0 0 0
39 39 29 26 19 19 19 16 13 13 6 3 3 0 0 0 0 0 0 0 0 0 0 0 0 3 3 3 3 3 3 3 3 3 0 0 0 0 0 0 0 0 0
23 26 19 16 16 13 10 10 13 13 6 6 3 0 0 0 0 0 0 0 0 0 0 0 0 0 0 0 0 0 3 3 3 0 0 0 0 0 0 0 0 0 0

GEFSMW_con_cape1000_210.txt.gz
Probability
39 45 55 48 65 74 74 84 87 90 90 81 77 77 74 77 71 61 65 68 68 68 65 45 65 74 65 68 48 65 55 52 58 42 45 39 29 26 42 29 29 26 26
45 61 58 65 74 81 74 81 81 87 90 87 84 84 77 71 65 68 71 71 61 65 48 68 65 65 77 61 61 74 61 45 42 42 39 32 19 35 16 26 32 29 32
45 61 65 71 71 81 81 74 81 84 87 84 68 71 77 74 81 77 81 71 58 55 58 65 55 68 61 68 74 71 68 61 45 35 35 45 29 29 16 19 19 29 32
48 52 68 71 74 74 74 77 77 81 84 77 65 65 77 71 84 81 77 74 61 58 58 55 61 65 58 71 65 55 74 71 61 52 52 39 32 29 19 3 16 19 26
45 65 68 77 74 71 74 77 77 81 81 81 81 81 71 71 68 74 74 71 61 58 61 58 61 68 65 58 61 68 68 71 68 55 55 45 45 23 42 23 29 23 23
45 61 65 74 74 71 74 74 81 81 81 81 77 87 81 74 71 71 58 55 58 58 52 52 61 68 55 58 58 65 55 65 61 61 58 52 48 45 42 45 39 29 19
55 65 68 84 74 77 77 77 81 84 77 77 77 77 77 74 68 65 55 52 55 52 55 48 58 55 58 52 55 61 55 58 58 61 61 39 32 35 45 42 32 26 19
58 55 68 71 81 81 81 81 81 81 74 74 77 77 71 65 58 58 52 52 52 48 52 48 48 48 48 48 52 48 52 55 61 48 65 61 42 32 35 39 39 23 19
48 55 61 61 74 81 84 84 81 81 74 74 74 77 74 71 65 65 65 48 58 52 48 45 42 35 42 42 42 39 45 42 48 29 39 42 39 29 35 35 35 26 23
61 55 68 58 61 81 84 81 81 81 81 74 74 71 68 68 68 65 61 58 55 52 48 48 39 35 35 39 42 39 35 35 29 39 35 39 35 32 29 29 32 32 32
65 65 74 71 68 74 81 77 81 77 81 74 74 71 68 65 65 58 55 55 52 48 55 48 39 35 35 32 35 35 35 23 29 29 29 35 32 23 26 26 29 26 29
71 68 68 84 81 74 71 77 77 77 77 74 74 71 68 68 65 55 55 55 52 52 45 39 42 32 32 32 35 32 29 29 23 23 23 23 23 32 32 26 26 29 35
77 77 77 90 87 74 77 77 77 77 77 77 74 71 74 68 65 55 52 52 48 48 48 39 35 35 32 29 26 26 26 29 23 26 23 19 19 29 32 35 29 26 16
84 84 84 90 90 81 81 77 77 77 81 77 65 71 71 65 61 52 48 52 52 45 42 39 35 35 29 26 26 26 26 23 23 23 23 19 19 23 29 29 29 23 23
84 84 84 87 84 77 77 74 71 77 74 71 65 68 65 61 55 48 48 48 42 39 32 32 32 32 32 23 23 19 19 29 29 29 29 23 13 10 16 10 19 19 16
84 90 90 87 87 81 74 71 68 71 71 68 68 65 58 55 48 48 45 45 39 39 35 32 32 32 19 10 10 16 19 23 29 26 23 19 10 6 3 0 0 3 10
90 90 84 81 81 74 71 74 68 68 71 68 65 58 58 45 42 39 42 42 42 42 35 32 32 26 13 10 6 10 19 26 26 26 23 6 6 6 6 3 0 0 0
84 87 84 84 81 74 77 71 65 65 61 58 55 52 48 45 39 39 32 32 42 42 35 29 29 29 16 10 6 3 16 23 23 23 16 10 6 6 6 6 6 6 6
81 84 81 81 81 77 71 68 61 61 61 55 52 52 42 42 39 39 32 32 32 32 29 23 19 19 13 6 3 0 19 23 23 19 16 13 10 3 3 3 6 6 3
81 81 81 81 81 71 68 65 65 61 55 55 48 48 45 42 35 35 32 32 32 32 19 19 23 19 13 3 3 0 16 23 19 19 10 3 3 3 3 6 6 6 6
77 81 81 77 77 74 68 68 61 61 55 52 45 45 39 35 35 32 35 29 26 26 19 16 16 16 13 3 3 3 13 10 6 6 10 6 3 3 0 0 6 3 0
71 77 81 77 71 68 71 71 68 58 55 42 42 39 39 35 23 23 19 23 23 23 19 19 16 16 16 6 3 3 3 3 10 3 3 3 3 0 0 0 0 0 0
71 74 74 74 68 68 68 61 61 55 52 42 42 39 35 35 19 19 16 16 16 19 16 16 6 10 10 10 3 3 3 0 3 10 3 3 3 0 0 0 0 0 0
61 74 68 68 61 65 61 65 61 55 48 45 45 32 29 19 16 16 16 16 13 6 6 13 10 6 10 13 10 3 3 3 3 3 3 3 3 0 0 0 0 0 0
65 68 61 55 52 48 48 55 48 48 45 39 35 26 26 23 23 16 16 13 13 6 6 6 6 10 10 3 3 3 3 3 0 0 6 6 6 3 0 0 0 0 0
58 55 52 52 45 48 42 48 48 45 42 39 29 26 23 26 16 10 3 0 0 0 0 3 3 3 3 3 0 0 0 0 0 0 3 3 3 3 3 3 3 0 0

GEFSMW_con_cape1000_216.txt.gz
Probability
42 55 58 65 71 87 87 90 94 94 94 94 94 94 87 87 84 84 84 77 77 81 81 74 81 77 81 77 81 74 65 74 71 61 61 61 61 45 55 48 39 39 39
55 65 74 71 71 87 87 87 90 90 94 94 94 94 94 87 81 84 81 74 77 77 65 81 74 81 84 81 81 81 81 71 71 65 65 48 45 52 35 45 48 45 42
55 61 68 81 74 84 84 84 87 90 94 94 90 94 94 90 90 84 84 74 71 74 77 77 77 77 77 74 77 81 81 71 81 74 68 48 32 42 39 32 29 39 45
39 61 71 81 74 77 81 84 87 90 90 90 90 90 90 87 87 87 84 84 77 68 65 71 65 65 74 71 71 71 77 74 71 81 74 55 55 42 42 39 29 32 35
39 55 71 81 71 77 84 84 84 87 90 90 90 90 90 84 87 87 87 87 74 68 65 68 65 65 71 74 71 74 81 77 68 61 65 58 55 48 35 29 29 32 29
42 61 71 74 65 74 87 84 84 84 87 90 87 90 87 87 87 87 84 77 77 68 61 68 68 68 68 71 68 68 68 71 71 71 71 61 52 48 42 29 32 32 29
48 58 71 77 77 74 81 81 84 84 84 84 84 84 87 87 84 84 81 74 68 61 68 58 65 65 68 58 58 68 61 61 65 68 65 61 68 61 45 29 32 26 32
55 55 81 77 74 77 84 84 87 84 84 81 81 81 81 81 77 84 77 71 65 61 65 61 61 61 58 55 61 65 65 65 65 55 65 68 55 58 52 45 26 23 19
45 52 74 71 77 84 84 84 87 87 84 81 81 81 84 84 81 84 77 68 68 58 58 58 58 52 48 52 58 65 61 65 65 58 58 48 52 48 55 45 35 23 13
48 52 55 71 74 81 84 87 87 87 84 84 81 81 81 81 81 81 77 74 68 65 58 61 48 45 55 48 45 45 42 48 48 55 48 48 48 52 55 42 45 39 23
45 52 61 68 74 74 77 81 84 84 84 84 84 84 84 81 77 74 77 77 74 77 68 61 55 48 39 42 42 35 35 35 32 35 35 45 45 42 42 48 42 39 26
48 55 61 74 71 71 71 84 81 77 77 77 84 84 84 81 81 77 77 74 71 71 58 58 48 39 29 32 35 32 35 35 32 29 32 39 35 42 35 39 32 26 29
65 61 65 77 84 84 84 84 81 77 77 77 81 84 84 81 81 77 74 71 68 58 55 55 48 45 35 32 29 29 29 29 29 26 32 32 35 45 35 29 29 23 16
68 81 90 94 90 90 84 84 77 77 77 77 77 81 77 77 77 74 71 68 61 58 52 52 45 45 32 29 26 29 29 29 29 29 32 29 23 26 32 26 23 23 16
68 87 90 94 90 87 84 81 71 71 74 77 74 71 71 74 71 71 61 58 58 45 48 42 39 39 29 29 32 32 26 29 26 29 29 19 10 10 10 10 16 10 16
77 81 87 87 90 87 87 81 74 71 71 71 71 68 68 65 61 58 55 52 48 42 45 42 42 39 26 13 16 23 23 23 23 23 16 16 10 10 6 3 3 3 10
77 84 87 87 90 84 84 81 74 71 71 71 71 68 68 61 58 42 45 42 39 32 42 39 39 35 19 6 6 6 19 23 19 19 19 13 10 6 10 6 0 0 0
71 87 84 84 84 84 84 84 71 71 71 71 71 71 68 55 55 52 48 42 39 29 35 35 35 26 16 3 6 3 10 16 23 19 19 16 13 3 3 10 3 3 3
71 77 84 84 87 87 87 84 68 68 68 68 68 65 61 55 55 48 42 45 35 32 29 29 32 29 16 6 3 0 10 10 16 16 16 16 13 3 3 3 3 3 3
65 68 71 81 87 87 87 84 77 71 71 71 71 65 65 65 58 48 45 39 35 32 32 29 26 26 19 3 0 0 10 10 13 16 16 10 10 3 3 3 3 3 3
68 71 74 74 84 87 84 81 74 71 68 68 65 61 61 58 55 48 48 45 32 29 32 29 26 23 16 3 0 0 10 10 13 16 16 13 3 3 3 3 3 3 3
65 65 77 77 84 87 84 81 74 74 68 65 65 61 58 52 48 52 48 42 35 35 32 29 29 19 16 3 0 0 3 3 10 10 10 6 3 0 0 0 3 3 3
65 65 77 81 84 87 84 81 77 74 74 65 65 61 58 48 45 48 42 35 35 26 23 23 19 19 13 6 3 0 0 0 6 6 6 0 0 0 3 0 0 3 3
61 65 68 71 84 87 81 81 77 74 68 58 55 55 45 45 45 42 32 29 26 26 26 23 23 19 16 13 6 6 0 0 0 0 0 0 0 0 0 3 0 0 3
55 58 68 71 77 81 74 68 65 65 61 58 55 52 39 39 35 32 32 23 19 16 13 19 13 16 13 3 3 3 6 3 0 0 3 3 3 0 3 3 3 3 3
52 48 52 58 58 68 65 61 58 61 58 55 48 39 35 35 32 32 26 3 3 3 3 6 6 6 0 0 0 0 3 3 0 0 0 0 0 3 3 6 6 6 3

GEFSMW_con_cape1000_222.txt.gz
Probability
6 6 16 26 35 26 29 29 29 29 32 35 32 29 23 26 19 19 16 16 13 16 16 19 13 6 3 3 3 3 3 3 6 6 3 3 3 3 3 0 0 0 0
0 6 23 35 42 45 39 39 32 45 45 39 32 26 23 35 23 23 23 19 16 19 26 13 13 10 6 3 3 3 3 3 6 6 3 3 3 3 3 3 3 0 0
6 6 23 39 45 48 45 55 48 55 55 48 48 48 39 39 32 29 16 19 23 26 23 16 16 13 6 3 3 6 3 6 6 6 6 3 3 3 3 3 3 0 0
6 6 29 42 45 52 52 48 52 55 55 52 48 45 45 32 32 23 29 26 26 29 32 29 35 16 16 6 16 6 6 6 6 6 6 6 3 3 3 3 3 3 0
16 13 29 35 61 58 61 52 58 55 55 55 45 45 42 35 35 29 39 29 29 32 35 35 35 35 23 23 29 19 19 10 10 6 3 3 3 3 3 3 3 3 3
19 16 29 35 58 65 65 68 58 52 52 55 52 48 45 45 45 39 42 35 35 32 29 35 23 26 26 26 26 23 19 13 13 10 10 6 6 3 3 3 3 3 3
26 19 16 32 52 65 71 71 61 55 55 58 58 55 48 45 45 45 45 35 35 35 32 32 29 26 26 29 26 26 16 13 13 13 13 10 10 10 6 6 3 3 3
16 23 23 29 55 65 65 65 65 61 55 65 61 58 55 48 45 45 42 39 35 35 32 32 29 26 23 26 26 19 19 19 10 10 10 10 10 10 10 10 6 3 0
16 23 26 35 48 61 58 65 61 65 61 65 68 58 55 48 48 42 42 39 39 35 29 29 29 26 23 26 23 23 23 16 13 10 10 10 10 6 6 6 6 6 3
19 16 26 32 42 55 55 68 61 61 65 71 68 65 55 48 48 39 35 35 35 32 26 26 26 23 23 19 19 19 16 16 13 10 10 10 6 6 6 6 6 6 6
26 19 26 42 52 55 58 61 65 58 61 68 68 61 52 45 39 35 35 35 32 29 26 26 26 23 23 19 19 19 16 13 10 10 10 6 6 6 6 6 6 6 3
23 19 26 32 42 52 55 61 61 61 61 68 65 61 48 42 42 35 35 29 26 26 26 23 23 19 19 19 19 19 19 13 10 10 6 6 6 6 6 6 6 6 6
29 26 26 39 42 52 58 61 61 61 65 68 65 55 52 45 42 35 32 32 32 26 23 23 16 16 19 19 19 19 16 10 10 6 6 6 6 6 6 6 6 6 6
29 23 19 32 39 39 52 55 65 65 61 61 55 55 48 39 32 29 29 26 26 26 19 19 23 19 19 16 16 16 13 10 6 3 3 3 3 3 3 6 3 3 3
29 26 32 29 35 35 45 55 58 65 58 55 55 55 48 39 32 35 26 23 23 23 19 19 16 16 16 16 16 16 10 6 6 6 6 6 6 0 3 3 3 0 3
48 48 35 35 39 39 39 55 58 55 52 58 58 55 52 39 29 32 32 26 26 23 19 19 19 16 19 13 16 16 6 3 6 6 3 3 3 3 3 3 3 3 3
55 55 45 48 45 45 39 52 52 55 52 55 58 58 52 42 32 32 32 29 29 26 23 19 19 16 13 10 3 3 3 3 0 0 3 3 3 3 3 3 3 0 0
45 52 58 58 52 45 42 42 52 52 52 52 55 55 48 39 39 32 32 29 29 29 29 26 19 16 6 3 3 0 0 3 3 0 3 3 3 3 3 3 3 3 3
39 52 61 65 55 48 45 45 52 52 52 45 45 52 52 39 35 35 32 29 29 26 29 19 16 13 3 0 0 0 0 0 0 0 0 3 6 3 3 3 3 3 3
39 42 55 52 48 52 48 48 52 52 48 45 45 45 35 39 35 35 29 26 26 23 23 19 19 16 6 0 0 0 0 0 0 0 0 3 3 6 3 3 3 3 3
39 45 55 48 48 45 45 45 52 48 52 45 48 45 42 35 32 32 26 26 26 23 23 19 16 10 6 3 0 0 0 0 0 0 0 3 0 0 0 0 3 3 3
42 48 45 48 42 39 35 39 42 42 42 48 52 48 42 39 35 32 26 26 23 23 23 16 16 10 3 3 3 0 0 0 0 0 0 0 0 0 0 0 0 0 0
39 42 42 42 39 39 35 35 39 39 39 45 42 39 35 35 35 35 26 23 23 19 16 13 10 10 3 3 3 0 0 0 0 0 0 0 0 0 0 0 0 0 0
35 42 42 39 39 35 32 29 35 32 39 39 35 32 29 26 26 19 19 19 16 13 10 10 13 10 3 3 3 3 0 0 0 0 0 0 0 0 0 0 0 0 0
32 35 35 35 32 32 29 26 23 26 35 32 32 26 19 19 19 16 13 13 6 6 6 6 6 6 6 3 0 0 0 3 0 0 0 0 0 0 0 0 0 0 0
29 23 26 32 39 32 26 26 23 29 32 32 29 16 19 19 16 10 6 0 3 3 6 6 3 3 3 0 0 0 0 0 0 0 0 0 0 0 0 0 0 0 0

GEFSMW_con_cape1000_228.txt.gz
Probability
0 0 3 6 3 6 6 6 10 3 0 6 6 6 10 6 6 10 6 6 6 6 3 3 3 3 3 3 3 3 3 3 3 3 3 3 3 3 3 3 3 3 3
0 0 6 16 10 10 10 6 3 6 3 10 10 10 6 6 6 6 6 6 10 13 10 6 3 3 3 3 3 3 3 3 6 6 3 3 3 3 3 3 3 3 3
0 0 16 16 16 13 13 6 3 10 3 10 10 10 10 13 6 10 6 10 10 10 10 10 10 6 3 3 3 3 3 3 6 6 3 3 3 3 3 3 3 3 3
0 3 13 16 13 16 13 13 6 10 3 10 16 19 13 19 19 10 6 10 10 10 13 13 6 6 6 10 6 3 3 6 6 6 3 3 6 6 6 3 3 3 3
0 3 13 13 10 10 13 10 3 6 10 10 13 13 10 19 13 10 10 6 10 13 19 16 10 10 13 10 3 3 6 6 6 6 6 6 3 3 6 6 0 0 0
3 6 10 16 13 16 26 23 10 10 13 13 16 16 16 19 19 16 16 16 10 13 19 19 16 19 19 13 3 3 0 3 3 3 3 3 3 6 3 6 6 3 6
6 6 13 10 10 19 26 32 19 16 16 23 29 29 26 23 26 26 23 23 26 23 23 19 13 13 10 10 10 6 10 6 6 6 6 6 6 6 6 6 6 6 6
6 10 13 16 10 26 32 32 26 19 19 26 35 35 35 32 32 29 26 26 23 26 23 19 19 19 13 13 10 13 13 16 13 10 10 10 10 10 6 6 10 10 6
13 16 16 16 10 26 35 32 29 26 26 26 35 32 39 39 35 32 29 23 23 26 23 23 23 23 16 16 13 10 19 19 19 13 10 10 10 10 6 6 6 10 10
10 13 19 16 13 19 26 26 26 32 32 32 35 39 42 39 39 29 29 26 26 19 19 23 19 19 16 19 19 19 19 19 19 10 10 10 10 10 10 10 6 6 6
10 13 10 16 13 19 29 29 26 32 35 39 39 42 45 42 35 35 32 29 26 23 19 19 19 19 16 16 16 16 16 19 19 10 10 10 10 6 6 6 6 6 6
16 13 13 13 10 16 23 29 32 29 42 42 42 45 35 35 35 32 29 29 26 23 23 19 19 19 16 16 16 16 16 16 16 6 6 10 10 6 6 6 6 6 3
16 13 13 16 13 16 19 29 35 39 42 42 42 39 39 32 32 29 26 23 23 19 19 19 16 19 16 16 16 16 16 16 16 16 10 6 6 3 3 0 3 3 3
16 13 16 19 13 16 19 26 35 45 42 39 39 35 32 32 26 29 23 23 23 19 19 19 19 16 13 13 13 13 13 13 10 10 6 3 6 0 0 0 0 0 0
19 16 16 16 16 19 23 23 35 32 35 39 35 32 32 32 29 29 26 26 23 23 19 19 19 19 13 13 13 13 13 13 6 6 6 3 3 0 0 3 3 0 0
23 19 19 16 16 23 16 19 32 35 39 39 35 35 35 26 29 26 23 16 19 19 19 19 19 16 16 13 6 10 10 10 10 6 6 6 0 0 0 0 0 0 3
26 26 23 13 13 16 23 19 23 35 35 42 39 35 35 26 26 23 19 16 16 19 19 19 16 16 16 10 10 6 13 13 13 10 6 3 0 0 0 0 0 0 0
29 32 26 19 16 19 19 19 26 32 39 39 35 32 39 32 23 23 16 16 19 19 19 19 16 16 16 13 3 3 6 10 13 13 6 0 0 0 0 0 0 3 3
26 26 29 26 19 26 26 26 29 29 32 35 39 35 35 35 29 23 19 16 19 19 16 19 16 16 13 10 3 0 6 6 6 6 0 0 0 0 0 0 0 3 3
26 26 26 29 26 26 26 32 35 32 32 32 32 35 35 29 32 26 23 19 19 23 16 13 13 13 13 10 3 0 6 6 6 6 0 0 0 0 0 0 0 0 0
26 26 29 26 26 19 29 32 35 32 26 26 26 23 29 19 16 19 16 13 16 13 13 16 16 16 16 10 3 0 6 6 6 3 3 0 0 0 0 0 0 0 0
26 23 23 23 23 23 19 23 19 19 16 16 16 23 23 16 13 16 13 13 10 10 13 10 13 13 10 10 10 0 0 3 3 3 6 0 0 0 0 0 0 0 0
23 23 19 16 19 19 16 13 16 13 10 13 16 19 16 13 13 13 13 10 3 10 10 10 13 13 10 10 3 0 0 0 3 3 0 0 0 0 0 0 0 0 0
19 19 23 23 26 23 19 19 16 16 13 13 16 19 16 10 13 10 10 6 6 3 3 3 10 3 3 3 3 0 0 0 0 0 0 0 0 0 0 0 0 0 0
13 19 19 19 19 19 19 13 16 16 10 10 13 13 16 6 10 10 6 6 10 6 3 3 3 3 3 3 3 0 0 0 0 0 0 0 0 0 0 0 0 0 0
13 10 13 13 13 16 16 16 10 13 13 13 10 13 16 16 6 13 10 3 3 3 3 3 3 3 3 3 0 0 0 0 0 0 0 0 0 0 0 0 0 0 0

GEFSMW_con_cape1000_234.txt.gz
Probability
13 19 29 35 45 68 74 77 84 84 81 81 81 74 77 77 61 65 61 68 61 68 74 58 71 58 55 55 61 61 48 55 58 48 45 32 26 32 32 42 42 29 29
16 32 42 48 52 71 74 81 77 77 81 81 81 81 77 68 61 61 71 71 65 61 48 61 65 55 65 65 61 71 52 52 58 48 39 35 35 42 26 45 35 23 26
23 39 48 58 61 68 71 71 77 77 81 81 81 77 77 77 68 65 65 68 58 61 55 55 61 68 58 61 71 71 65 52 58 52 45 32 42 42 29 32 26 26 29
16 29 48 61 61 65 68 81 84 84 84 84 77 74 77 71 71 74 71 74 68 58 55 52 65 65 58 71 65 48 61 68 55 48 45 35 32 32 26 29 16 26 32
13 23 39 65 61 65 68 77 84 84 84 84 87 84 81 74 68 68 74 74 74 55 55 58 65 68 65 61 61 58 58 61 52 55 45 45 45 29 45 32 26 19 19
19 29 39 61 68 65 61 71 84 84 84 84 81 81 81 84 77 77 71 68 71 68 58 55 55 68 68 68 65 61 61 55 55 55 45 45 39 35 32 29 29 32 13
45 39 45 58 65 65 65 68 87 84 84 84 77 81 77 74 68 68 68 68 68 65 61 48 61 65 65 61 65 61 55 52 58 58 52 48 35 29 29 29 26 29 16
45 58 55 58 71 65 68 74 81 81 77 77 81 77 71 71 68 68 58 58 58 52 55 55 58 61 55 42 61 55 52 48 48 45 58 48 35 39 35 29 29 29 26
39 48 52 58 61 77 74 74 77 81 81 74 77 81 77 71 71 71 65 61 58 48 55 55 55 61 58 58 61 52 55 48 45 52 58 55 48 52 42 39 39 35 35
42 35 32 45 58 68 74 74 77 77 77 74 77 77 77 71 68 65 68 65 61 55 48 52 52 58 58 52 52 42 52 48 48 48 55 52 42 39 45 35 45 42 35
39 42 35 48 55 61 68 74 74 74 77 74 74 81 74 74 68 68 65 68 65 58 48 52 55 58 48 52 52 35 39 42 39 39 32 45 42 45 45 42 35 35 39
42 42 48 48 52 61 61 74 74 74 74 74 74 74 77 71 68 65 65 61 58 55 55 55 55 48 45 45 39 39 32 35 32 32 29 32 29 42 39 39 32 35 39
48 52 58 58 68 65 65 65 65 65 71 71 71 71 68 68 68 68 65 65 61 58 55 61 61 52 42 42 39 32 35 35 32 32 32 29 32 42 32 35 32 29 16
71 65 65 68 71 71 71 68 68 65 65 68 71 74 68 65 65 61 61 65 61 58 61 58 55 48 42 35 39 32 32 29 26 26 23 23 26 26 26 23 26 29 26
65 68 68 68 81 77 77 68 65 61 61 65 68 68 65 58 58 58 58 61 65 42 48 39 45 45 35 29 32 32 26 32 23 23 19 19 19 16 16 13 16 16 19
71 65 65 65 65 68 65 58 65 68 65 65 68 65 61 61 61 58 55 55 52 45 45 42 39 35 26 16 16 19 26 26 23 16 19 16 13 13 6 6 6 10 16
58 65 65 65 68 68 65 65 58 58 65 61 58 58 58 61 61 58 55 52 48 48 48 42 45 39 29 13 13 6 26 19 19 19 19 16 13 13 13 10 0 3 3
58 58 58 61 65 68 65 65 58 55 61 58 48 48 55 61 61 61 58 55 58 55 52 48 42 39 29 13 3 0 13 23 23 23 19 23 23 16 16 16 13 13 10
52 55 55 52 55 58 58 61 61 52 55 48 45 48 52 55 58 55 58 58 55 52 52 52 45 45 35 10 0 0 16 23 23 19 19 19 19 16 10 16 13 13 10
52 52 55 52 52 48 48 55 55 55 48 48 52 48 52 55 52 55 52 52 48 48 48 48 45 45 35 13 3 0 19 26 26 23 19 10 13 13 3 13 16 13 13
52 52 55 55 55 52 52 55 48 48 52 48 48 48 45 42 45 45 52 55 45 48 48 35 39 35 29 13 3 0 16 23 29 23 23 16 6 0 0 0 10 10 10
42 52 52 55 55 55 55 52 52 48 52 48 45 45 39 42 39 42 42 42 35 39 39 32 29 29 29 10 3 0 0 3 19 26 26 16 3 0 0 0 3 0 0
42 42 42 45 48 52 52 48 45 45 42 42 39 35 35 32 32 32 29 32 29 35 32 26 19 23 23 13 3 0 0 0 6 13 6 3 0 0 0 0 0 0 0
35 39 42 39 42 39 39 42 35 35 35 32 35 32 29 23 19 23 16 23 26 29 29 23 16 16 19 16 6 6 6 0 0 3 3 0 0 0 0 0 0 0 3
26 29 39 35 32 29 29 29 26 32 35 32 29 32 32 23 19 19 16 16 26 19 26 26 16 13 13 10 3 3 10 6 6 3 3 3 3 0 3 3 0 6 6
23 23 26 32 29 26 26 29 29 29 32 29 29 29 26 26 16 13 10 6 10 6 0 3 3 10 10 3 3 3 3 3 3 3 3 6 6 3 3 3 3 3 3

GEFSMW_con_cape1000_240.txt.gz
Probability
13 16 23 42 71 84 87 90 90 90 90 87 87 87 87 90 87 74 71 68 71 68 68 61 68 74 77 77 74 77 65 68 65 61 58 58 52 52 52 52 45 42 39
19 35 39 45 74 84 87 87 90 87 87 90 90 87 87 87 81 77 77 77 71 68 58 74 68 71 74 74 74 77 71 65 65 68 48 48 42 45 39 45 45 35 42
16 39 39 52 61 84 87 87 87 90 90 87 87 84 84 87 87 84 77 71 71 71 77 71 71 84 74 71 74 71 68 65 61 61 58 48 39 42 45 42 39 39 39
13 39 39 52 61 74 81 87 87 87 87 87 87 87 84 81 87 87 81 81 81 74 74 77 74 84 74 81 74 68 74 65 58 65 61 55 55 45 39 45 42 42 39
23 42 45 68 61 71 77 87 87 87 87 87 84 84 81 84 90 81 81 81 77 74 74 71 71 74 74 71 71 71 65 65 71 68 61 55 58 52 45 39 42 39 35
26 39 52 68 68 71 81 84 87 90 90 87 87 84 84 84 84 87 81 77 77 74 74 74 68 71 71 68 71 74 71 65 65 65 58 58 65 58 52 45 42 39 39
32 42 52 61 71 71 74 77 87 87 87 87 90 84 84 77 84 81 77 74 71 71 77 74 68 71 71 68 68 65 68 68 68 61 61 61 55 55 52 45 42 42 35
35 32 55 68 71 74 77 81 87 87 87 87 84 81 81 81 77 77 74 74 71 68 68 68 71 68 68 68 71 71 68 65 61 55 58 65 58 58 55 48 45 32 26
35 35 48 55 58 71 74 81 87 87 87 87 84 81 81 81 77 81 74 74 74 65 61 68 68 71 65 74 65 65 68 65 65 61 61 65 61 61 52 48 48 42 26
35 35 42 45 55 65 74 81 87 94 87 81 81 74 77 81 81 81 81 81 74 71 68 65 65 65 65 74 71 74 74 68 65 65 65 68 61 58 55 52 48 48 42
42 42 45 45 48 61 65 77 81 84 84 84 84 81 81 81 77 81 77 77 74 71 68 68 68 68 61 61 68 68 71 68 65 65 65 65 61 61 55 55 45 45 35
42 45 48 55 55 65 68 77 77 74 74 81 84 81 81 81 84 74 74 74 71 71 61 65 65 65 61 58 58 58 58 61 65 65 65 65 58 61 58 48 48 42 39
45 45 45 58 65 68 71 77 77 77 74 74 77 81 81 81 81 77 74 68 71 71 61 61 65 65 61 61 58 55 55 55 52 52 55 58 61 61 52 48 39 29 26
68 58 65 71 77 77 77 77 71 71 71 77 77 71 77 81 77 68 71 71 71 71 71 61 61 58 61 61 61 61 48 52 45 39 39 39 39 45 42 35 32 29 23
68 71 74 77 84 77 74 74 74 74 71 71 71 68 68 77 74 68 68 71 71 65 68 65 61 58 58 48 45 45 35 42 35 35 39 32 26 26 19 19 19 19 16
61 68 71 74 74 81 77 74 71 77 81 74 74 71 68 65 68 68 68 68 68 65 65 68 65 61 45 32 23 32 39 39 32 29 29 29 23 13 13 13 13 13 16
68 68 71 74 74 71 74 74 71 71 74 74 71 68 68 65 65 61 68 71 71 71 71 68 61 55 39 29 16 16 32 39 39 39 32 19 13 10 13 13 10 10 3
65 65 61 61 65 65 68 68 65 61 65 68 65 65 65 65 65 61 61 68 71 71 71 68 58 58 42 29 13 6 16 35 39 39 29 32 26 13 16 16 13 16 13
61 61 55 55 58 65 68 65 65 65 61 61 68 61 61 61 65 58 61 65 68 68 61 65 61 58 45 19 10 6 19 32 32 35 29 29 23 16 13 13 16 16 16
52 52 52 48 52 52 55 58 61 61 61 58 61 68 71 65 61 58 65 68 68 65 61 58 65 61 55 19 13 3 16 23 26 29 26 16 10 6 3 16 23 19 16
52 52 52 52 52 52 52 52 58 58 55 58 58 65 74 74 68 68 55 61 61 55 58 55 48 58 45 16 10 0 16 23 23 23 26 19 3 3 0 3 13 13 13
45 45 48 48 52 48 48 55 55 52 52 55 55 58 65 52 48 58 61 58 55 48 52 48 52 52 42 19 10 3 0 3 16 16 23 13 3 0 0 0 3 6 6
39 45 45 48 48 58 55 55 55 52 48 52 52 48 48 55 48 48 48 42 52 45 42 45 32 39 32 26 10 3 0 0 6 13 3 3 3 0 0 0 0 3 6
35 35 39 39 45 48 48 48 55 52 42 42 42 42 42 42 45 39 35 35 32 32 32 35 35 32 35 32 16 13 3 0 0 3 3 3 0 0 0 0 0 3 6
32 32 35 32 32 35 35 32 39 48 52 42 42 39 39 39 42 39 32 29 29 29 26 29 26 23 23 16 10 6 10 6 6 6 3 3 6 3 3 10 10 13 13
26 26 26 26 26 26 35 29 35 39 45 35 35 35 35 32 29 26 26 16 10 10 6 10 13 13 10 3 0 0 0 0 3 3 6 6 6 10 10 13 10 6 6